<?xml version="1.0" encoding="UTF-8" standalone="no" ?>
<gpx xmlns="http://www.topografix.com/GPX/1/1" xmlns:xsi="http://www.w3.org/2001/XMLSchema-instance" xsi:schemaLocation="http://www.topografix.com/GPX/1/1 http://www.topografix.com/GPX/1/1/gpx.xsd" version="1.1" creator="VisuGPX - https://www.visugpx.com">
  <metadata>
    <name>Vendredi 27 février 26</name>
  </metadata>
  <trk>
    <name><![CDATA[Vendredi 13 février 2026]]></name>
    <extensions>
      <line xmlns="http://www.topografix.com/GPX/gpx_style/0/2">
        <width>7</width>
      </line>
    </extensions>
    <trkseg>
      <trkpt lat="43.38306" lon="-1.65893">
        <ele>4</ele>
        <time>2026-02-04T08:49:03.000Z</time>
      </trkpt>
      <trkpt lat="43.38305" lon="-1.65894">
        <ele>4</ele>
        <time>2026-02-04T08:49:03.000Z</time>
      </trkpt>
      <trkpt lat="43.38298" lon="-1.65877">
        <ele>4</ele>
        <time>2026-02-04T08:49:06.000Z</time>
      </trkpt>
      <trkpt lat="43.38234" lon="-1.65703">
        <ele>4</ele>
        <time>2026-02-04T08:49:31.000Z</time>
      </trkpt>
      <trkpt lat="43.38233" lon="-1.65687">
        <ele>4</ele>
        <time>2026-02-04T08:49:33.000Z</time>
      </trkpt>
      <trkpt lat="43.38236" lon="-1.65679">
        <ele>4</ele>
        <time>2026-02-04T08:49:34.000Z</time>
      </trkpt>
      <trkpt lat="43.38252" lon="-1.65655">
        <ele>4</ele>
        <time>2026-02-04T08:49:38.000Z</time>
      </trkpt>
      <trkpt lat="43.38351" lon="-1.65522">
        <ele>4</ele>
        <time>2026-02-04T08:50:03.000Z</time>
      </trkpt>
      <trkpt lat="43.38357" lon="-1.65509">
        <ele>4</ele>
        <time>2026-02-04T08:50:05.000Z</time>
      </trkpt>
      <trkpt lat="43.38352" lon="-1.65508">
        <ele>4</ele>
        <time>2026-02-04T08:50:06.000Z</time>
      </trkpt>
      <trkpt lat="43.38328" lon="-1.65473">
        <ele>4</ele>
        <time>2026-02-04T08:50:12.000Z</time>
      </trkpt>
      <trkpt lat="43.38325" lon="-1.65465">
        <ele>4</ele>
        <time>2026-02-04T08:50:13.000Z</time>
      </trkpt>
      <trkpt lat="43.38326" lon="-1.65462">
        <ele>4</ele>
        <time>2026-02-04T08:50:14.000Z</time>
      </trkpt>
      <trkpt lat="43.38327" lon="-1.65457">
        <ele>4</ele>
        <time>2026-02-04T08:50:14.000Z</time>
      </trkpt>
      <trkpt lat="43.38331" lon="-1.65453">
        <ele>5</ele>
        <time>2026-02-04T08:50:15.000Z</time>
      </trkpt>
      <trkpt lat="43.3837" lon="-1.65376">
        <ele>5</ele>
        <time>2026-02-04T08:50:27.000Z</time>
      </trkpt>
      <trkpt lat="43.3839" lon="-1.65332">
        <ele>6</ele>
        <time>2026-02-04T08:50:34.000Z</time>
      </trkpt>
      <trkpt lat="43.38394" lon="-1.65317">
        <ele>8</ele>
        <time>2026-02-04T08:50:36.000Z</time>
      </trkpt>
      <trkpt lat="43.38392" lon="-1.65295">
        <ele>10</ele>
        <time>2026-02-04T08:50:39.000Z</time>
      </trkpt>
      <trkpt lat="43.38384" lon="-1.65266">
        <ele>13</ele>
        <time>2026-02-04T08:50:43.000Z</time>
      </trkpt>
      <trkpt lat="43.38365" lon="-1.65248">
        <ele>13</ele>
        <time>2026-02-04T08:50:47.000Z</time>
      </trkpt>
      <trkpt lat="43.3836" lon="-1.65239">
        <ele>13</ele>
        <time>2026-02-04T08:50:49.000Z</time>
      </trkpt>
      <trkpt lat="43.38356" lon="-1.65227">
        <ele>13</ele>
        <time>2026-02-04T08:50:50.000Z</time>
      </trkpt>
      <trkpt lat="43.38343" lon="-1.652">
        <ele>12</ele>
        <time>2026-02-04T08:50:55.000Z</time>
      </trkpt>
      <trkpt lat="43.38276" lon="-1.65016">
        <ele>9</ele>
        <time>2026-02-04T08:51:21.000Z</time>
      </trkpt>
      <trkpt lat="43.3826" lon="-1.64971">
        <ele>8</ele>
        <time>2026-02-04T08:51:28.000Z</time>
      </trkpt>
      <trkpt lat="43.38254" lon="-1.64945">
        <ele>8</ele>
        <time>2026-02-04T08:51:31.000Z</time>
      </trkpt>
      <trkpt lat="43.38252" lon="-1.64928">
        <ele>8</ele>
        <time>2026-02-04T08:51:33.000Z</time>
      </trkpt>
      <trkpt lat="43.38255" lon="-1.6488">
        <ele>9</ele>
        <time>2026-02-04T08:51:40.000Z</time>
      </trkpt>
      <trkpt lat="43.38273" lon="-1.64701">
        <ele>7</ele>
        <time>2026-02-04T08:52:03.000Z</time>
      </trkpt>
      <trkpt lat="43.3828" lon="-1.64595">
        <ele>8</ele>
        <time>2026-02-04T08:52:17.000Z</time>
      </trkpt>
      <trkpt lat="43.38277" lon="-1.64488">
        <ele>10</ele>
        <time>2026-02-04T08:52:31.000Z</time>
      </trkpt>
      <trkpt lat="43.38272" lon="-1.64424">
        <ele>8</ele>
        <time>2026-02-04T08:52:39.000Z</time>
      </trkpt>
      <trkpt lat="43.38264" lon="-1.64383">
        <ele>7</ele>
        <time>2026-02-04T08:52:44.000Z</time>
      </trkpt>
      <trkpt lat="43.3825" lon="-1.64341">
        <ele>5</ele>
        <time>2026-02-04T08:52:50.000Z</time>
      </trkpt>
      <trkpt lat="43.38232" lon="-1.64309">
        <ele>5</ele>
        <time>2026-02-04T08:52:56.000Z</time>
      </trkpt>
      <trkpt lat="43.38212" lon="-1.64283">
        <ele>5</ele>
        <time>2026-02-04T08:53:01.000Z</time>
      </trkpt>
      <trkpt lat="43.38155" lon="-1.6423">
        <ele>6</ele>
        <time>2026-02-04T08:53:13.000Z</time>
      </trkpt>
      <trkpt lat="43.3812" lon="-1.64193">
        <ele>6</ele>
        <time>2026-02-04T08:53:21.000Z</time>
      </trkpt>
      <trkpt lat="43.38056" lon="-1.64058">
        <ele>9</ele>
        <time>2026-02-04T08:53:41.000Z</time>
      </trkpt>
      <trkpt lat="43.37999" lon="-1.64003">
        <ele>8</ele>
        <time>2026-02-04T08:53:54.000Z</time>
      </trkpt>
      <trkpt lat="43.38027" lon="-1.63939">
        <ele>13</ele>
        <time>2026-02-04T08:54:04.000Z</time>
      </trkpt>
      <trkpt lat="43.38031" lon="-1.63905">
        <ele>15</ele>
        <time>2026-02-04T08:54:08.000Z</time>
      </trkpt>
      <trkpt lat="43.3803" lon="-1.63882">
        <ele>16</ele>
        <time>2026-02-04T08:54:11.000Z</time>
      </trkpt>
      <trkpt lat="43.38026" lon="-1.63857">
        <ele>17</ele>
        <time>2026-02-04T08:54:14.000Z</time>
      </trkpt>
      <trkpt lat="43.38007" lon="-1.6381">
        <ele>16</ele>
        <time>2026-02-04T08:54:21.000Z</time>
      </trkpt>
      <trkpt lat="43.37994" lon="-1.63769">
        <ele>16</ele>
        <time>2026-02-04T08:54:27.000Z</time>
      </trkpt>
      <trkpt lat="43.37981" lon="-1.63678">
        <ele>21</ele>
        <time>2026-02-04T08:54:39.000Z</time>
      </trkpt>
      <trkpt lat="43.37959" lon="-1.63625">
        <ele>24</ele>
        <time>2026-02-04T08:54:47.000Z</time>
      </trkpt>
      <trkpt lat="43.37934" lon="-1.63567">
        <ele>25</ele>
        <time>2026-02-04T08:54:56.000Z</time>
      </trkpt>
      <trkpt lat="43.37911" lon="-1.63486">
        <ele>24</ele>
        <time>2026-02-04T08:55:07.000Z</time>
      </trkpt>
      <trkpt lat="43.37878" lon="-1.63422">
        <ele>22</ele>
        <time>2026-02-04T08:55:17.000Z</time>
      </trkpt>
      <trkpt lat="43.37874" lon="-1.63406">
        <ele>22</ele>
        <time>2026-02-04T08:55:19.000Z</time>
      </trkpt>
      <trkpt lat="43.37884" lon="-1.63387">
        <ele>23</ele>
        <time>2026-02-04T08:55:22.000Z</time>
      </trkpt>
      <trkpt lat="43.3791" lon="-1.63372">
        <ele>26</ele>
        <time>2026-02-04T08:55:27.000Z</time>
      </trkpt>
      <trkpt lat="43.37919" lon="-1.6337">
        <ele>27</ele>
        <time>2026-02-04T08:55:29.000Z</time>
      </trkpt>
      <trkpt lat="43.3793" lon="-1.63371">
        <ele>28</ele>
        <time>2026-02-04T08:55:31.000Z</time>
      </trkpt>
      <trkpt lat="43.37947" lon="-1.63394">
        <ele>30</ele>
        <time>2026-02-04T08:55:35.000Z</time>
      </trkpt>
      <trkpt lat="43.3797" lon="-1.63449">
        <ele>33</ele>
        <time>2026-02-04T08:55:43.000Z</time>
      </trkpt>
      <trkpt lat="43.37999" lon="-1.63513">
        <ele>37</ele>
        <time>2026-02-04T08:55:53.000Z</time>
      </trkpt>
      <trkpt lat="43.38029" lon="-1.63548">
        <ele>37</ele>
        <time>2026-02-04T08:56:00.000Z</time>
      </trkpt>
      <trkpt lat="43.38076" lon="-1.63597">
        <ele>39</ele>
        <time>2026-02-04T08:56:11.000Z</time>
      </trkpt>
      <trkpt lat="43.38109" lon="-1.63618">
        <ele>39</ele>
        <time>2026-02-04T08:56:17.000Z</time>
      </trkpt>
      <trkpt lat="43.38148" lon="-1.63628">
        <ele>42</ele>
        <time>2026-02-04T08:56:24.000Z</time>
      </trkpt>
      <trkpt lat="43.38157" lon="-1.63634">
        <ele>42</ele>
        <time>2026-02-04T08:56:26.000Z</time>
      </trkpt>
      <trkpt lat="43.38166" lon="-1.63643">
        <ele>42</ele>
        <time>2026-02-04T08:56:28.000Z</time>
      </trkpt>
      <trkpt lat="43.3818" lon="-1.63666">
        <ele>41</ele>
        <time>2026-02-04T08:56:32.000Z</time>
      </trkpt>
      <trkpt lat="43.38201" lon="-1.63597">
        <ele>43</ele>
        <time>2026-02-04T08:56:41.000Z</time>
      </trkpt>
      <trkpt lat="43.38215" lon="-1.63525">
        <ele>42</ele>
        <time>2026-02-04T08:56:51.000Z</time>
      </trkpt>
      <trkpt lat="43.38222" lon="-1.63476">
        <ele>42</ele>
        <time>2026-02-04T08:56:57.000Z</time>
      </trkpt>
      <trkpt lat="43.38242" lon="-1.6345">
        <ele>42</ele>
        <time>2026-02-04T08:57:02.000Z</time>
      </trkpt>
      <trkpt lat="43.38335" lon="-1.6339">
        <ele>45</ele>
        <time>2026-02-04T08:57:21.000Z</time>
      </trkpt>
      <trkpt lat="43.38348" lon="-1.63373">
        <ele>45</ele>
        <time>2026-02-04T08:57:24.000Z</time>
      </trkpt>
      <trkpt lat="43.38363" lon="-1.63343">
        <ele>45</ele>
        <time>2026-02-04T08:57:29.000Z</time>
      </trkpt>
      <trkpt lat="43.38414" lon="-1.63199">
        <ele>49</ele>
        <time>2026-02-04T08:57:49.000Z</time>
      </trkpt>
      <trkpt lat="43.3843" lon="-1.63168">
        <ele>50</ele>
        <time>2026-02-04T08:57:54.000Z</time>
      </trkpt>
      <trkpt lat="43.3847" lon="-1.63118">
        <ele>49</ele>
        <time>2026-02-04T08:58:04.000Z</time>
      </trkpt>
      <trkpt lat="43.38543" lon="-1.62989">
        <ele>47</ele>
        <time>2026-02-04T08:58:25.000Z</time>
      </trkpt>
      <trkpt lat="43.38554" lon="-1.6295">
        <ele>48</ele>
        <time>2026-02-04T08:58:30.000Z</time>
      </trkpt>
      <trkpt lat="43.38555" lon="-1.62716">
        <ele>56</ele>
        <time>2026-02-04T08:59:01.000Z</time>
      </trkpt>
      <trkpt lat="43.38558" lon="-1.62672">
        <ele>57</ele>
        <time>2026-02-04T08:59:06.000Z</time>
      </trkpt>
      <trkpt lat="43.38568" lon="-1.62639">
        <ele>56</ele>
        <time>2026-02-04T08:59:11.000Z</time>
      </trkpt>
      <trkpt lat="43.38598" lon="-1.6258">
        <ele>56</ele>
        <time>2026-02-04T08:59:20.000Z</time>
      </trkpt>
      <trkpt lat="43.38618" lon="-1.62554">
        <ele>55</ele>
        <time>2026-02-04T08:59:25.000Z</time>
      </trkpt>
      <trkpt lat="43.38642" lon="-1.62528">
        <ele>56</ele>
        <time>2026-02-04T08:59:31.000Z</time>
      </trkpt>
      <trkpt lat="43.38649" lon="-1.62504">
        <ele>56</ele>
        <time>2026-02-04T08:59:34.000Z</time>
      </trkpt>
      <trkpt lat="43.38646" lon="-1.62461">
        <ele>55</ele>
        <time>2026-02-04T08:59:39.000Z</time>
      </trkpt>
      <trkpt lat="43.38651" lon="-1.62443">
        <ele>56</ele>
        <time>2026-02-04T08:59:42.000Z</time>
      </trkpt>
      <trkpt lat="43.38706" lon="-1.62404">
        <ele>59</ele>
        <time>2026-02-04T08:59:53.000Z</time>
      </trkpt>
      <trkpt lat="43.38731" lon="-1.62393">
        <ele>60</ele>
        <time>2026-02-04T08:59:58.000Z</time>
      </trkpt>
      <trkpt lat="43.38744" lon="-1.62391">
        <ele>61</ele>
        <time>2026-02-04T09:00:00.000Z</time>
      </trkpt>
      <trkpt lat="43.3874" lon="-1.62345">
        <ele>60</ele>
        <time>2026-02-04T09:00:06.000Z</time>
      </trkpt>
      <trkpt lat="43.3871" lon="-1.62133">
        <ele>61</ele>
        <time>2026-02-04T09:00:34.000Z</time>
      </trkpt>
      <trkpt lat="43.38697" lon="-1.62075">
        <ele>63</ele>
        <time>2026-02-04T09:00:42.000Z</time>
      </trkpt>
      <trkpt lat="43.38687" lon="-1.62043">
        <ele>64</ele>
        <time>2026-02-04T09:00:46.000Z</time>
      </trkpt>
      <trkpt lat="43.38666" lon="-1.61994">
        <ele>67</ele>
        <time>2026-02-04T09:00:54.000Z</time>
      </trkpt>
      <trkpt lat="43.3865" lon="-1.61967">
        <ele>69</ele>
        <time>2026-02-04T09:00:58.000Z</time>
      </trkpt>
      <trkpt lat="43.38636" lon="-1.61948">
        <ele>71</ele>
        <time>2026-02-04T09:01:02.000Z</time>
      </trkpt>
      <trkpt lat="43.3862" lon="-1.61929">
        <ele>73</ele>
        <time>2026-02-04T09:01:05.000Z</time>
      </trkpt>
      <trkpt lat="43.38584" lon="-1.61895">
        <ele>75</ele>
        <time>2026-02-04T09:01:13.000Z</time>
      </trkpt>
      <trkpt lat="43.38566" lon="-1.61881">
        <ele>75</ele>
        <time>2026-02-04T09:01:17.000Z</time>
      </trkpt>
      <trkpt lat="43.38555" lon="-1.61875">
        <ele>76</ele>
        <time>2026-02-04T09:01:19.000Z</time>
      </trkpt>
      <trkpt lat="43.38521" lon="-1.61862">
        <ele>77</ele>
        <time>2026-02-04T09:01:25.000Z</time>
      </trkpt>
      <trkpt lat="43.38487" lon="-1.6185">
        <ele>78</ele>
        <time>2026-02-04T09:01:31.000Z</time>
      </trkpt>
      <trkpt lat="43.38468" lon="-1.61846">
        <ele>78</ele>
        <time>2026-02-04T09:01:35.000Z</time>
      </trkpt>
      <trkpt lat="43.38452" lon="-1.61846">
        <ele>78</ele>
        <time>2026-02-04T09:01:38.000Z</time>
      </trkpt>
      <trkpt lat="43.38354" lon="-1.61859">
        <ele>78</ele>
        <time>2026-02-04T09:01:55.000Z</time>
      </trkpt>
      <trkpt lat="43.38335" lon="-1.61855">
        <ele>78</ele>
        <time>2026-02-04T09:01:59.000Z</time>
      </trkpt>
      <trkpt lat="43.38303" lon="-1.6184">
        <ele>79</ele>
        <time>2026-02-04T09:02:05.000Z</time>
      </trkpt>
      <trkpt lat="43.38131" lon="-1.61673">
        <ele>74</ele>
        <time>2026-02-04T09:02:42.000Z</time>
      </trkpt>
      <trkpt lat="43.38102" lon="-1.61637">
        <ele>74</ele>
        <time>2026-02-04T09:02:49.000Z</time>
      </trkpt>
      <trkpt lat="43.38088" lon="-1.61593">
        <ele>76</ele>
        <time>2026-02-04T09:02:55.000Z</time>
      </trkpt>
      <trkpt lat="43.38082" lon="-1.61527">
        <ele>78</ele>
        <time>2026-02-04T09:03:04.000Z</time>
      </trkpt>
      <trkpt lat="43.38084" lon="-1.61464">
        <ele>78</ele>
        <time>2026-02-04T09:03:12.000Z</time>
      </trkpt>
      <trkpt lat="43.38096" lon="-1.61353">
        <ele>78</ele>
        <time>2026-02-04T09:03:27.000Z</time>
      </trkpt>
      <trkpt lat="43.38114" lon="-1.61112">
        <ele>78</ele>
        <time>2026-02-04T09:03:58.000Z</time>
      </trkpt>
      <trkpt lat="43.38098" lon="-1.60992">
        <ele>78</ele>
        <time>2026-02-04T09:04:14.000Z</time>
      </trkpt>
      <trkpt lat="43.38055" lon="-1.6092">
        <ele>77</ele>
        <time>2026-02-04T09:04:26.000Z</time>
      </trkpt>
      <trkpt lat="43.3805" lon="-1.60899">
        <ele>78</ele>
        <time>2026-02-04T09:04:29.000Z</time>
      </trkpt>
      <trkpt lat="43.38051" lon="-1.60873">
        <ele>79</ele>
        <time>2026-02-04T09:04:32.000Z</time>
      </trkpt>
      <trkpt lat="43.38065" lon="-1.60831">
        <ele>79</ele>
        <time>2026-02-04T09:04:38.000Z</time>
      </trkpt>
      <trkpt lat="43.38072" lon="-1.60794">
        <ele>80</ele>
        <time>2026-02-04T09:04:43.000Z</time>
      </trkpt>
      <trkpt lat="43.38074" lon="-1.60737">
        <ele>83</ele>
        <time>2026-02-04T09:04:50.000Z</time>
      </trkpt>
      <trkpt lat="43.3807" lon="-1.60651">
        <ele>84</ele>
        <time>2026-02-04T09:05:01.000Z</time>
      </trkpt>
      <trkpt lat="43.38091" lon="-1.60474">
        <ele>82</ele>
        <time>2026-02-04T09:05:25.000Z</time>
      </trkpt>
      <trkpt lat="43.38087" lon="-1.60427">
        <ele>81</ele>
        <time>2026-02-04T09:05:31.000Z</time>
      </trkpt>
      <trkpt lat="43.38054" lon="-1.6027">
        <ele>78</ele>
        <time>2026-02-04T09:05:52.000Z</time>
      </trkpt>
      <trkpt lat="43.38045" lon="-1.60246">
        <ele>78</ele>
        <time>2026-02-04T09:05:55.000Z</time>
      </trkpt>
      <trkpt lat="43.38036" lon="-1.60229">
        <ele>78</ele>
        <time>2026-02-04T09:05:58.000Z</time>
      </trkpt>
      <trkpt lat="43.38025" lon="-1.60215">
        <ele>78</ele>
        <time>2026-02-04T09:06:01.000Z</time>
      </trkpt>
      <trkpt lat="43.37864" lon="-1.60003">
        <ele>83</ele>
        <time>2026-02-04T09:06:40.000Z</time>
      </trkpt>
      <trkpt lat="43.37847" lon="-1.59972">
        <ele>82</ele>
        <time>2026-02-04T09:06:45.000Z</time>
      </trkpt>
      <trkpt lat="43.37839" lon="-1.59949">
        <ele>82</ele>
        <time>2026-02-04T09:06:49.000Z</time>
      </trkpt>
      <trkpt lat="43.37815" lon="-1.59712">
        <ele>84</ele>
        <time>2026-02-04T09:07:20.000Z</time>
      </trkpt>
      <trkpt lat="43.37805" lon="-1.59672">
        <ele>84</ele>
        <time>2026-02-04T09:07:25.000Z</time>
      </trkpt>
      <trkpt lat="43.37724" lon="-1.5947">
        <ele>81</ele>
        <time>2026-02-04T09:07:55.000Z</time>
      </trkpt>
      <trkpt lat="43.37715" lon="-1.59453">
        <ele>80</ele>
        <time>2026-02-04T09:07:58.000Z</time>
      </trkpt>
      <trkpt lat="43.37701" lon="-1.5944">
        <ele>80</ele>
        <time>2026-02-04T09:08:01.000Z</time>
      </trkpt>
      <trkpt lat="43.37687" lon="-1.59434">
        <ele>79</ele>
        <time>2026-02-04T09:08:03.000Z</time>
      </trkpt>
      <trkpt lat="43.37671" lon="-1.59432">
        <ele>80</ele>
        <time>2026-02-04T09:08:06.000Z</time>
      </trkpt>
      <trkpt lat="43.3759" lon="-1.59439">
        <ele>86</ele>
        <time>2026-02-04T09:08:21.000Z</time>
      </trkpt>
      <trkpt lat="43.37553" lon="-1.59439">
        <ele>87</ele>
        <time>2026-02-04T09:08:27.000Z</time>
      </trkpt>
      <trkpt lat="43.37538" lon="-1.59436">
        <ele>87</ele>
        <time>2026-02-04T09:08:30.000Z</time>
      </trkpt>
      <trkpt lat="43.37527" lon="-1.5943">
        <ele>87</ele>
        <time>2026-02-04T09:08:32.000Z</time>
      </trkpt>
      <trkpt lat="43.37512" lon="-1.59415">
        <ele>88</ele>
        <time>2026-02-04T09:08:35.000Z</time>
      </trkpt>
      <trkpt lat="43.37507" lon="-1.59403">
        <ele>88</ele>
        <time>2026-02-04T09:08:37.000Z</time>
      </trkpt>
      <trkpt lat="43.37502" lon="-1.59383">
        <ele>88</ele>
        <time>2026-02-04T09:08:40.000Z</time>
      </trkpt>
      <trkpt lat="43.3747" lon="-1.59186">
        <ele>84</ele>
        <time>2026-02-04T09:09:06.000Z</time>
      </trkpt>
      <trkpt lat="43.37487" lon="-1.59145">
        <ele>87</ele>
        <time>2026-02-04T09:09:12.000Z</time>
      </trkpt>
      <trkpt lat="43.37497" lon="-1.5913">
        <ele>89</ele>
        <time>2026-02-04T09:09:15.000Z</time>
      </trkpt>
      <trkpt lat="43.37522" lon="-1.5911">
        <ele>88</ele>
        <time>2026-02-04T09:09:20.000Z</time>
      </trkpt>
      <trkpt lat="43.37536" lon="-1.59102">
        <ele>88</ele>
        <time>2026-02-04T09:09:22.000Z</time>
      </trkpt>
      <trkpt lat="43.37601" lon="-1.59091">
        <ele>84</ele>
        <time>2026-02-04T09:09:34.000Z</time>
      </trkpt>
      <trkpt lat="43.37625" lon="-1.59072">
        <ele>83</ele>
        <time>2026-02-04T09:09:39.000Z</time>
      </trkpt>
      <trkpt lat="43.37641" lon="-1.59065">
        <ele>82</ele>
        <time>2026-02-04T09:09:42.000Z</time>
      </trkpt>
      <trkpt lat="43.37653" lon="-1.59056">
        <ele>81</ele>
        <time>2026-02-04T09:09:44.000Z</time>
      </trkpt>
      <trkpt lat="43.37676" lon="-1.59026">
        <ele>78</ele>
        <time>2026-02-04T09:09:50.000Z</time>
      </trkpt>
      <trkpt lat="43.37709" lon="-1.59005">
        <ele>77</ele>
        <time>2026-02-04T09:09:57.000Z</time>
      </trkpt>
      <trkpt lat="43.37739" lon="-1.58991">
        <ele>77</ele>
        <time>2026-02-04T09:10:02.000Z</time>
      </trkpt>
      <trkpt lat="43.37768" lon="-1.58986">
        <ele>76</ele>
        <time>2026-02-04T09:10:07.000Z</time>
      </trkpt>
      <trkpt lat="43.37781" lon="-1.58982">
        <ele>76</ele>
        <time>2026-02-04T09:10:10.000Z</time>
      </trkpt>
      <trkpt lat="43.37792" lon="-1.58973">
        <ele>77</ele>
        <time>2026-02-04T09:10:12.000Z</time>
      </trkpt>
      <trkpt lat="43.37805" lon="-1.5896">
        <ele>77</ele>
        <time>2026-02-04T09:10:15.000Z</time>
      </trkpt>
      <trkpt lat="43.3783" lon="-1.58918">
        <ele>79</ele>
        <time>2026-02-04T09:10:22.000Z</time>
      </trkpt>
      <trkpt lat="43.37838" lon="-1.58898">
        <ele>79</ele>
        <time>2026-02-04T09:10:25.000Z</time>
      </trkpt>
      <trkpt lat="43.37843" lon="-1.58874">
        <ele>78</ele>
        <time>2026-02-04T09:10:28.000Z</time>
      </trkpt>
      <trkpt lat="43.37844" lon="-1.5885">
        <ele>78</ele>
        <time>2026-02-04T09:10:31.000Z</time>
      </trkpt>
      <trkpt lat="43.3783" lon="-1.58744">
        <ele>75</ele>
        <time>2026-02-04T09:10:45.000Z</time>
      </trkpt>
      <trkpt lat="43.37831" lon="-1.58721">
        <ele>75</ele>
        <time>2026-02-04T09:10:48.000Z</time>
      </trkpt>
      <trkpt lat="43.37836" lon="-1.58691">
        <ele>75</ele>
        <time>2026-02-04T09:10:52.000Z</time>
      </trkpt>
      <trkpt lat="43.37865" lon="-1.58578">
        <ele>75</ele>
        <time>2026-02-04T09:11:08.000Z</time>
      </trkpt>
      <trkpt lat="43.37865" lon="-1.58557">
        <ele>76</ele>
        <time>2026-02-04T09:11:10.000Z</time>
      </trkpt>
      <trkpt lat="43.37857" lon="-1.58507">
        <ele>78</ele>
        <time>2026-02-04T09:11:17.000Z</time>
      </trkpt>
      <trkpt lat="43.37857" lon="-1.58484">
        <ele>78</ele>
        <time>2026-02-04T09:11:20.000Z</time>
      </trkpt>
      <trkpt lat="43.3786" lon="-1.58462">
        <ele>79</ele>
        <time>2026-02-04T09:11:23.000Z</time>
      </trkpt>
      <trkpt lat="43.37872" lon="-1.58427">
        <ele>78</ele>
        <time>2026-02-04T09:11:28.000Z</time>
      </trkpt>
      <trkpt lat="43.37886" lon="-1.58405">
        <ele>77</ele>
        <time>2026-02-04T09:11:32.000Z</time>
      </trkpt>
      <trkpt lat="43.37892" lon="-1.5839">
        <ele>77</ele>
        <time>2026-02-04T09:11:34.000Z</time>
      </trkpt>
      <trkpt lat="43.37895" lon="-1.58377">
        <ele>78</ele>
        <time>2026-02-04T09:11:36.000Z</time>
      </trkpt>
      <trkpt lat="43.37896" lon="-1.58355">
        <ele>79</ele>
        <time>2026-02-04T09:11:38.000Z</time>
      </trkpt>
      <trkpt lat="43.37893" lon="-1.58317">
        <ele>80</ele>
        <time>2026-02-04T09:11:43.000Z</time>
      </trkpt>
      <trkpt lat="43.37895" lon="-1.58294">
        <ele>81</ele>
        <time>2026-02-04T09:11:46.000Z</time>
      </trkpt>
      <trkpt lat="43.379" lon="-1.58269">
        <ele>82</ele>
        <time>2026-02-04T09:11:50.000Z</time>
      </trkpt>
      <trkpt lat="43.37905" lon="-1.58252">
        <ele>83</ele>
        <time>2026-02-04T09:11:52.000Z</time>
      </trkpt>
      <trkpt lat="43.37934" lon="-1.58205">
        <ele>84</ele>
        <time>2026-02-04T09:12:00.000Z</time>
      </trkpt>
      <trkpt lat="43.37947" lon="-1.58177">
        <ele>85</ele>
        <time>2026-02-04T09:12:04.000Z</time>
      </trkpt>
      <trkpt lat="43.3796" lon="-1.58133">
        <ele>85</ele>
        <time>2026-02-04T09:12:11.000Z</time>
      </trkpt>
      <trkpt lat="43.37969" lon="-1.58094">
        <ele>86</ele>
        <time>2026-02-04T09:12:16.000Z</time>
      </trkpt>
      <trkpt lat="43.37986" lon="-1.58063">
        <ele>88</ele>
        <time>2026-02-04T09:12:21.000Z</time>
      </trkpt>
      <trkpt lat="43.38009" lon="-1.58039">
        <ele>90</ele>
        <time>2026-02-04T09:12:26.000Z</time>
      </trkpt>
      <trkpt lat="43.38042" lon="-1.58022">
        <ele>93</ele>
        <time>2026-02-04T09:12:32.000Z</time>
      </trkpt>
      <trkpt lat="43.38057" lon="-1.58018">
        <ele>94</ele>
        <time>2026-02-04T09:12:35.000Z</time>
      </trkpt>
      <trkpt lat="43.38189" lon="-1.57997">
        <ele>97</ele>
        <time>2026-02-04T09:12:59.000Z</time>
      </trkpt>
      <trkpt lat="43.38209" lon="-1.5799">
        <ele>97</ele>
        <time>2026-02-04T09:13:02.000Z</time>
      </trkpt>
      <trkpt lat="43.38225" lon="-1.57979">
        <ele>97</ele>
        <time>2026-02-04T09:13:05.000Z</time>
      </trkpt>
      <trkpt lat="43.38242" lon="-1.57961">
        <ele>98</ele>
        <time>2026-02-04T09:13:09.000Z</time>
      </trkpt>
      <trkpt lat="43.38252" lon="-1.57943">
        <ele>100</ele>
        <time>2026-02-04T09:13:12.000Z</time>
      </trkpt>
      <trkpt lat="43.38258" lon="-1.57924">
        <ele>101</ele>
        <time>2026-02-04T09:13:15.000Z</time>
      </trkpt>
      <trkpt lat="43.38292" lon="-1.57809">
        <ele>100</ele>
        <time>2026-02-04T09:13:31.000Z</time>
      </trkpt>
      <trkpt lat="43.38302" lon="-1.57745">
        <ele>96</ele>
        <time>2026-02-04T09:13:39.000Z</time>
      </trkpt>
      <trkpt lat="43.38315" lon="-1.57602">
        <ele>91</ele>
        <time>2026-02-04T09:13:58.000Z</time>
      </trkpt>
      <trkpt lat="43.38313" lon="-1.57565">
        <ele>91</ele>
        <time>2026-02-04T09:14:03.000Z</time>
      </trkpt>
      <trkpt lat="43.38307" lon="-1.57543">
        <ele>92</ele>
        <time>2026-02-04T09:14:06.000Z</time>
      </trkpt>
      <trkpt lat="43.38301" lon="-1.57526">
        <ele>92</ele>
        <time>2026-02-04T09:14:08.000Z</time>
      </trkpt>
      <trkpt lat="43.3829" lon="-1.57507">
        <ele>92</ele>
        <time>2026-02-04T09:14:11.000Z</time>
      </trkpt>
      <trkpt lat="43.38279" lon="-1.57494">
        <ele>92</ele>
        <time>2026-02-04T09:14:14.000Z</time>
      </trkpt>
      <trkpt lat="43.38252" lon="-1.57473">
        <ele>93</ele>
        <time>2026-02-04T09:14:20.000Z</time>
      </trkpt>
      <trkpt lat="43.38237" lon="-1.57453">
        <ele>94</ele>
        <time>2026-02-04T09:14:23.000Z</time>
      </trkpt>
      <trkpt lat="43.38225" lon="-1.57427">
        <ele>94</ele>
        <time>2026-02-04T09:14:27.000Z</time>
      </trkpt>
      <trkpt lat="43.38216" lon="-1.57397">
        <ele>94</ele>
        <time>2026-02-04T09:14:31.000Z</time>
      </trkpt>
      <trkpt lat="43.38215" lon="-1.57365">
        <ele>94</ele>
        <time>2026-02-04T09:14:36.000Z</time>
      </trkpt>
      <trkpt lat="43.38216" lon="-1.57298">
        <ele>94</ele>
        <time>2026-02-04T09:14:44.000Z</time>
      </trkpt>
      <trkpt lat="43.38241" lon="-1.57172">
        <ele>92</ele>
        <time>2026-02-04T09:15:01.000Z</time>
      </trkpt>
      <trkpt lat="43.38254" lon="-1.57132">
        <ele>92</ele>
        <time>2026-02-04T09:15:07.000Z</time>
      </trkpt>
      <trkpt lat="43.38267" lon="-1.57104">
        <ele>92</ele>
        <time>2026-02-04T09:15:11.000Z</time>
      </trkpt>
      <trkpt lat="43.38289" lon="-1.57074">
        <ele>92</ele>
        <time>2026-02-04T09:15:17.000Z</time>
      </trkpt>
      <trkpt lat="43.383" lon="-1.57051">
        <ele>93</ele>
        <time>2026-02-04T09:15:20.000Z</time>
      </trkpt>
      <trkpt lat="43.38309" lon="-1.57023">
        <ele>93</ele>
        <time>2026-02-04T09:15:24.000Z</time>
      </trkpt>
      <trkpt lat="43.38315" lon="-1.56991">
        <ele>93</ele>
        <time>2026-02-04T09:15:28.000Z</time>
      </trkpt>
      <trkpt lat="43.38318" lon="-1.56959">
        <ele>92</ele>
        <time>2026-02-04T09:15:33.000Z</time>
      </trkpt>
      <trkpt lat="43.38314" lon="-1.56913">
        <ele>91</ele>
        <time>2026-02-04T09:15:39.000Z</time>
      </trkpt>
      <trkpt lat="43.38302" lon="-1.56875">
        <ele>92</ele>
        <time>2026-02-04T09:15:44.000Z</time>
      </trkpt>
      <trkpt lat="43.38286" lon="-1.56846">
        <ele>92</ele>
        <time>2026-02-04T09:15:49.000Z</time>
      </trkpt>
      <trkpt lat="43.38274" lon="-1.5683">
        <ele>92</ele>
        <time>2026-02-04T09:15:52.000Z</time>
      </trkpt>
      <trkpt lat="43.3825" lon="-1.56814">
        <ele>93</ele>
        <time>2026-02-04T09:15:56.000Z</time>
      </trkpt>
      <trkpt lat="43.38227" lon="-1.56786">
        <ele>91</ele>
        <time>2026-02-04T09:16:02.000Z</time>
      </trkpt>
      <trkpt lat="43.38208" lon="-1.56756">
        <ele>90</ele>
        <time>2026-02-04T09:16:07.000Z</time>
      </trkpt>
      <trkpt lat="43.38205" lon="-1.56741">
        <ele>90</ele>
        <time>2026-02-04T09:16:09.000Z</time>
      </trkpt>
      <trkpt lat="43.38207" lon="-1.56714">
        <ele>90</ele>
        <time>2026-02-04T09:16:12.000Z</time>
      </trkpt>
      <trkpt lat="43.38139" lon="-1.56707">
        <ele>86</ele>
        <time>2026-02-04T09:16:25.000Z</time>
      </trkpt>
      <trkpt lat="43.38092" lon="-1.56706">
        <ele>85</ele>
        <time>2026-02-04T09:16:33.000Z</time>
      </trkpt>
      <trkpt lat="43.38073" lon="-1.56703">
        <ele>84</ele>
        <time>2026-02-04T09:16:36.000Z</time>
      </trkpt>
      <trkpt lat="43.38057" lon="-1.56695">
        <ele>84</ele>
        <time>2026-02-04T09:16:39.000Z</time>
      </trkpt>
      <trkpt lat="43.38042" lon="-1.5668">
        <ele>83</ele>
        <time>2026-02-04T09:16:43.000Z</time>
      </trkpt>
      <trkpt lat="43.38022" lon="-1.56649">
        <ele>82</ele>
        <time>2026-02-04T09:16:48.000Z</time>
      </trkpt>
      <trkpt lat="43.38007" lon="-1.5663">
        <ele>80</ele>
        <time>2026-02-04T09:16:52.000Z</time>
      </trkpt>
      <trkpt lat="43.3782" lon="-1.56433">
        <ele>77</ele>
        <time>2026-02-04T09:17:34.000Z</time>
      </trkpt>
      <trkpt lat="43.3778" lon="-1.56395">
        <ele>77</ele>
        <time>2026-02-04T09:17:42.000Z</time>
      </trkpt>
      <trkpt lat="43.37741" lon="-1.56366">
        <ele>78</ele>
        <time>2026-02-04T09:17:50.000Z</time>
      </trkpt>
      <trkpt lat="43.37716" lon="-1.56354">
        <ele>78</ele>
        <time>2026-02-04T09:17:55.000Z</time>
      </trkpt>
      <trkpt lat="43.37556" lon="-1.56315">
        <ele>86</ele>
        <time>2026-02-04T09:18:24.000Z</time>
      </trkpt>
      <trkpt lat="43.37544" lon="-1.56266">
        <ele>87</ele>
        <time>2026-02-04T09:18:30.000Z</time>
      </trkpt>
      <trkpt lat="43.37514" lon="-1.56077">
        <ele>86</ele>
        <time>2026-02-04T09:18:55.000Z</time>
      </trkpt>
      <trkpt lat="43.37515" lon="-1.56045">
        <ele>87</ele>
        <time>2026-02-04T09:19:00.000Z</time>
      </trkpt>
      <trkpt lat="43.37562" lon="-1.56002">
        <ele>86</ele>
        <time>2026-02-04T09:19:10.000Z</time>
      </trkpt>
      <trkpt lat="43.37573" lon="-1.55983">
        <ele>86</ele>
        <time>2026-02-04T09:19:13.000Z</time>
      </trkpt>
      <trkpt lat="43.37577" lon="-1.55959">
        <ele>87</ele>
        <time>2026-02-04T09:19:16.000Z</time>
      </trkpt>
      <trkpt lat="43.37575" lon="-1.55943">
        <ele>88</ele>
        <time>2026-02-04T09:19:18.000Z</time>
      </trkpt>
      <trkpt lat="43.37549" lon="-1.55872">
        <ele>91</ele>
        <time>2026-02-04T09:19:28.000Z</time>
      </trkpt>
      <trkpt lat="43.37516" lon="-1.55802">
        <ele>93</ele>
        <time>2026-02-04T09:19:39.000Z</time>
      </trkpt>
      <trkpt lat="43.37499" lon="-1.55783">
        <ele>93</ele>
        <time>2026-02-04T09:19:43.000Z</time>
      </trkpt>
      <trkpt lat="43.37456" lon="-1.55752">
        <ele>93</ele>
        <time>2026-02-04T09:19:52.000Z</time>
      </trkpt>
      <trkpt lat="43.37446" lon="-1.55735">
        <ele>92</ele>
        <time>2026-02-04T09:19:55.000Z</time>
      </trkpt>
      <trkpt lat="43.37438" lon="-1.55669">
        <ele>91</ele>
        <time>2026-02-04T09:20:03.000Z</time>
      </trkpt>
      <trkpt lat="43.37439" lon="-1.55621">
        <ele>91</ele>
        <time>2026-02-04T09:20:09.000Z</time>
      </trkpt>
      <trkpt lat="43.37435" lon="-1.55589">
        <ele>91</ele>
        <time>2026-02-04T09:20:14.000Z</time>
      </trkpt>
      <trkpt lat="43.37412" lon="-1.55546">
        <ele>93</ele>
        <time>2026-02-04T09:20:20.000Z</time>
      </trkpt>
      <trkpt lat="43.37399" lon="-1.5553">
        <ele>93</ele>
        <time>2026-02-04T09:20:24.000Z</time>
      </trkpt>
      <trkpt lat="43.37332" lon="-1.55489">
        <ele>99</ele>
        <time>2026-02-04T09:20:37.000Z</time>
      </trkpt>
      <trkpt lat="43.37305" lon="-1.55483">
        <ele>99</ele>
        <time>2026-02-04T09:20:42.000Z</time>
      </trkpt>
      <trkpt lat="43.37211" lon="-1.55481">
        <ele>98</ele>
        <time>2026-02-04T09:20:58.000Z</time>
      </trkpt>
      <trkpt lat="43.37174" lon="-1.55473">
        <ele>96</ele>
        <time>2026-02-04T09:21:05.000Z</time>
      </trkpt>
      <trkpt lat="43.37068" lon="-1.55527">
        <ele>97</ele>
        <time>2026-02-04T09:21:25.000Z</time>
      </trkpt>
      <trkpt lat="43.37003" lon="-1.55534">
        <ele>100</ele>
        <time>2026-02-04T09:21:37.000Z</time>
      </trkpt>
      <trkpt lat="43.36987" lon="-1.55526">
        <ele>102</ele>
        <time>2026-02-04T09:21:40.000Z</time>
      </trkpt>
      <trkpt lat="43.36974" lon="-1.55511">
        <ele>103</ele>
        <time>2026-02-04T09:21:43.000Z</time>
      </trkpt>
      <trkpt lat="43.36975" lon="-1.55454">
        <ele>100</ele>
        <time>2026-02-04T09:21:50.000Z</time>
      </trkpt>
      <trkpt lat="43.36969" lon="-1.55434">
        <ele>99</ele>
        <time>2026-02-04T09:21:53.000Z</time>
      </trkpt>
      <trkpt lat="43.36953" lon="-1.55421">
        <ele>100</ele>
        <time>2026-02-04T09:21:56.000Z</time>
      </trkpt>
      <trkpt lat="43.36915" lon="-1.55417">
        <ele>105</ele>
        <time>2026-02-04T09:22:03.000Z</time>
      </trkpt>
      <trkpt lat="43.36897" lon="-1.5541">
        <ele>105</ele>
        <time>2026-02-04T09:22:06.000Z</time>
      </trkpt>
      <trkpt lat="43.36886" lon="-1.55399">
        <ele>104</ele>
        <time>2026-02-04T09:22:09.000Z</time>
      </trkpt>
      <trkpt lat="43.36848" lon="-1.55386">
        <ele>105</ele>
        <time>2026-02-04T09:22:16.000Z</time>
      </trkpt>
      <trkpt lat="43.36833" lon="-1.55378">
        <ele>105</ele>
        <time>2026-02-04T09:22:18.000Z</time>
      </trkpt>
      <trkpt lat="43.36747" lon="-1.55241">
        <ele>112</ele>
        <time>2026-02-04T09:22:42.000Z</time>
      </trkpt>
      <trkpt lat="43.3672" lon="-1.55171">
        <ele>111</ele>
        <time>2026-02-04T09:22:52.000Z</time>
      </trkpt>
      <trkpt lat="43.36657" lon="-1.55105">
        <ele>105</ele>
        <time>2026-02-04T09:23:06.000Z</time>
      </trkpt>
      <trkpt lat="43.36624" lon="-1.55057">
        <ele>102</ele>
        <time>2026-02-04T09:23:15.000Z</time>
      </trkpt>
      <trkpt lat="43.36608" lon="-1.54987">
        <ele>102</ele>
        <time>2026-02-04T09:23:24.000Z</time>
      </trkpt>
      <trkpt lat="43.36619" lon="-1.54834">
        <ele>103</ele>
        <time>2026-02-04T09:23:44.000Z</time>
      </trkpt>
      <trkpt lat="43.36621" lon="-1.54776">
        <ele>105</ele>
        <time>2026-02-04T09:23:52.000Z</time>
      </trkpt>
      <trkpt lat="43.36641" lon="-1.54725">
        <ele>106</ele>
        <time>2026-02-04T09:23:59.000Z</time>
      </trkpt>
      <trkpt lat="43.36646" lon="-1.5469">
        <ele>105</ele>
        <time>2026-02-04T09:24:04.000Z</time>
      </trkpt>
      <trkpt lat="43.36637" lon="-1.54647">
        <ele>102</ele>
        <time>2026-02-04T09:24:10.000Z</time>
      </trkpt>
      <trkpt lat="43.36619" lon="-1.54616">
        <ele>98</ele>
        <time>2026-02-04T09:24:15.000Z</time>
      </trkpt>
      <trkpt lat="43.36591" lon="-1.54599">
        <ele>98</ele>
        <time>2026-02-04T09:24:20.000Z</time>
      </trkpt>
      <trkpt lat="43.36583" lon="-1.54578">
        <ele>95</ele>
        <time>2026-02-04T09:24:23.000Z</time>
      </trkpt>
      <trkpt lat="43.36571" lon="-1.54513">
        <ele>89</ele>
        <time>2026-02-04T09:24:32.000Z</time>
      </trkpt>
      <trkpt lat="43.36551" lon="-1.54482">
        <ele>89</ele>
        <time>2026-02-04T09:24:37.000Z</time>
      </trkpt>
      <trkpt lat="43.36549" lon="-1.54474">
        <ele>89</ele>
        <time>2026-02-04T09:24:38.000Z</time>
      </trkpt>
      <trkpt lat="43.36529" lon="-1.54476">
        <ele>90</ele>
        <time>2026-02-04T09:24:42.000Z</time>
      </trkpt>
      <trkpt lat="43.36539" lon="-1.54346">
        <ele>90</ele>
        <time>2026-02-04T09:24:59.000Z</time>
      </trkpt>
      <trkpt lat="43.36522" lon="-1.54318">
        <ele>91</ele>
        <time>2026-02-04T09:25:04.000Z</time>
      </trkpt>
      <trkpt lat="43.36492" lon="-1.54318">
        <ele>95</ele>
        <time>2026-02-04T09:25:09.000Z</time>
      </trkpt>
      <trkpt lat="43.36468" lon="-1.54315">
        <ele>97</ele>
        <time>2026-02-04T09:25:13.000Z</time>
      </trkpt>
      <trkpt lat="43.3645" lon="-1.54307">
        <ele>99</ele>
        <time>2026-02-04T09:25:17.000Z</time>
      </trkpt>
      <trkpt lat="43.36434" lon="-1.54296">
        <ele>100</ele>
        <time>2026-02-04T09:25:20.000Z</time>
      </trkpt>
      <trkpt lat="43.36422" lon="-1.54277">
        <ele>101</ele>
        <time>2026-02-04T09:25:23.000Z</time>
      </trkpt>
      <trkpt lat="43.36416" lon="-1.54258">
        <ele>100</ele>
        <time>2026-02-04T09:25:26.000Z</time>
      </trkpt>
      <trkpt lat="43.36416" lon="-1.54232">
        <ele>99</ele>
        <time>2026-02-04T09:25:29.000Z</time>
      </trkpt>
      <trkpt lat="43.36438" lon="-1.54039">
        <ele>95</ele>
        <time>2026-02-04T09:25:54.000Z</time>
      </trkpt>
      <trkpt lat="43.3644" lon="-1.53976">
        <ele>96</ele>
        <time>2026-02-04T09:26:02.000Z</time>
      </trkpt>
      <trkpt lat="43.36451" lon="-1.53875">
        <ele>99</ele>
        <time>2026-02-04T09:26:16.000Z</time>
      </trkpt>
      <trkpt lat="43.36453" lon="-1.53796">
        <ele>99</ele>
        <time>2026-02-04T09:26:26.000Z</time>
      </trkpt>
      <trkpt lat="43.36458" lon="-1.5377">
        <ele>99</ele>
        <time>2026-02-04T09:26:29.000Z</time>
      </trkpt>
      <trkpt lat="43.36486" lon="-1.53691">
        <ele>98</ele>
        <time>2026-02-04T09:26:41.000Z</time>
      </trkpt>
      <trkpt lat="43.36504" lon="-1.53627">
        <ele>97</ele>
        <time>2026-02-04T09:26:50.000Z</time>
      </trkpt>
      <trkpt lat="43.36507" lon="-1.53566">
        <ele>97</ele>
        <time>2026-02-04T09:26:58.000Z</time>
      </trkpt>
      <trkpt lat="43.36496" lon="-1.53439">
        <ele>104</ele>
        <time>2026-02-04T09:27:14.000Z</time>
      </trkpt>
      <trkpt lat="43.36463" lon="-1.53252">
        <ele>108</ele>
        <time>2026-02-04T09:27:39.000Z</time>
      </trkpt>
      <trkpt lat="43.36424" lon="-1.53">
        <ele>110</ele>
        <time>2026-02-04T09:28:12.000Z</time>
      </trkpt>
      <trkpt lat="43.3641" lon="-1.52925">
        <ele>115</ele>
        <time>2026-02-04T09:28:22.000Z</time>
      </trkpt>
      <trkpt lat="43.36402" lon="-1.52897">
        <ele>114</ele>
        <time>2026-02-04T09:28:26.000Z</time>
      </trkpt>
      <trkpt lat="43.3639" lon="-1.52871">
        <ele>114</ele>
        <time>2026-02-04T09:28:30.000Z</time>
      </trkpt>
      <trkpt lat="43.36341" lon="-1.52783">
        <ele>117</ele>
        <time>2026-02-04T09:28:45.000Z</time>
      </trkpt>
      <trkpt lat="43.36322" lon="-1.52743">
        <ele>118</ele>
        <time>2026-02-04T09:28:51.000Z</time>
      </trkpt>
      <trkpt lat="43.36305" lon="-1.5269">
        <ele>120</ele>
        <time>2026-02-04T09:28:58.000Z</time>
      </trkpt>
      <trkpt lat="43.36299" lon="-1.52656">
        <ele>123</ele>
        <time>2026-02-04T09:29:03.000Z</time>
      </trkpt>
      <trkpt lat="43.36298" lon="-1.52625">
        <ele>125</ele>
        <time>2026-02-04T09:29:07.000Z</time>
      </trkpt>
      <trkpt lat="43.36335" lon="-1.52415">
        <ele>132</ele>
        <time>2026-02-04T09:29:35.000Z</time>
      </trkpt>
      <trkpt lat="43.36342" lon="-1.52397">
        <ele>132</ele>
        <time>2026-02-04T09:29:37.000Z</time>
      </trkpt>
      <trkpt lat="43.36356" lon="-1.52376">
        <ele>132</ele>
        <time>2026-02-04T09:29:41.000Z</time>
      </trkpt>
      <trkpt lat="43.3638" lon="-1.52351">
        <ele>132</ele>
        <time>2026-02-04T09:29:46.000Z</time>
      </trkpt>
      <trkpt lat="43.36417" lon="-1.52323">
        <ele>131</ele>
        <time>2026-02-04T09:29:54.000Z</time>
      </trkpt>
      <trkpt lat="43.36446" lon="-1.52304">
        <ele>130</ele>
        <time>2026-02-04T09:30:00.000Z</time>
      </trkpt>
      <trkpt lat="43.36473" lon="-1.5229">
        <ele>130</ele>
        <time>2026-02-04T09:30:05.000Z</time>
      </trkpt>
      <trkpt lat="43.36506" lon="-1.52278">
        <ele>131</ele>
        <time>2026-02-04T09:30:11.000Z</time>
      </trkpt>
      <trkpt lat="43.36523" lon="-1.52274">
        <ele>133</ele>
        <time>2026-02-04T09:30:14.000Z</time>
      </trkpt>
      <trkpt lat="43.36522" lon="-1.52264">
        <ele>133</ele>
        <time>2026-02-04T09:30:15.000Z</time>
      </trkpt>
      <trkpt lat="43.36526" lon="-1.52233">
        <ele>133</ele>
        <time>2026-02-04T09:30:19.000Z</time>
      </trkpt>
      <trkpt lat="43.3655" lon="-1.52112">
        <ele>135</ele>
        <time>2026-02-04T09:30:35.000Z</time>
      </trkpt>
      <trkpt lat="43.36558" lon="-1.52055">
        <ele>136</ele>
        <time>2026-02-04T09:30:43.000Z</time>
      </trkpt>
      <trkpt lat="43.36559" lon="-1.52028">
        <ele>136</ele>
        <time>2026-02-04T09:30:46.000Z</time>
      </trkpt>
      <trkpt lat="43.36555" lon="-1.52004">
        <ele>135</ele>
        <time>2026-02-04T09:30:50.000Z</time>
      </trkpt>
      <trkpt lat="43.36547" lon="-1.51989">
        <ele>134</ele>
        <time>2026-02-04T09:30:52.000Z</time>
      </trkpt>
      <trkpt lat="43.36489" lon="-1.51926">
        <ele>129</ele>
        <time>2026-02-04T09:31:05.000Z</time>
      </trkpt>
      <trkpt lat="43.36474" lon="-1.51905">
        <ele>128</ele>
        <time>2026-02-04T09:31:09.000Z</time>
      </trkpt>
      <trkpt lat="43.36455" lon="-1.5187">
        <ele>125</ele>
        <time>2026-02-04T09:31:15.000Z</time>
      </trkpt>
      <trkpt lat="43.36394" lon="-1.51742">
        <ele>115</ele>
        <time>2026-02-04T09:31:34.000Z</time>
      </trkpt>
      <trkpt lat="43.36376" lon="-1.51705">
        <ele>114</ele>
        <time>2026-02-04T09:31:40.000Z</time>
      </trkpt>
      <trkpt lat="43.36349" lon="-1.51661">
        <ele>114</ele>
        <time>2026-02-04T09:31:48.000Z</time>
      </trkpt>
      <trkpt lat="43.36317" lon="-1.51615">
        <ele>112</ele>
        <time>2026-02-04T09:31:56.000Z</time>
      </trkpt>
      <trkpt lat="43.3621" lon="-1.51502">
        <ele>105</ele>
        <time>2026-02-04T09:32:20.000Z</time>
      </trkpt>
      <trkpt lat="43.36157" lon="-1.51454">
        <ele>106</ele>
        <time>2026-02-04T09:32:31.000Z</time>
      </trkpt>
      <trkpt lat="43.36041" lon="-1.51358">
        <ele>116</ele>
        <time>2026-02-04T09:32:55.000Z</time>
      </trkpt>
      <trkpt lat="43.36029" lon="-1.5135">
        <ele>117</ele>
        <time>2026-02-04T09:32:58.000Z</time>
      </trkpt>
      <trkpt lat="43.36011" lon="-1.5135">
        <ele>117</ele>
        <time>2026-02-04T09:33:01.000Z</time>
      </trkpt>
      <trkpt lat="43.35947" lon="-1.51376">
        <ele>114</ele>
        <time>2026-02-04T09:33:13.000Z</time>
      </trkpt>
      <trkpt lat="43.35925" lon="-1.51377">
        <ele>113</ele>
        <time>2026-02-04T09:33:17.000Z</time>
      </trkpt>
      <trkpt lat="43.35871" lon="-1.51334">
        <ele>114</ele>
        <time>2026-02-04T09:33:28.000Z</time>
      </trkpt>
      <trkpt lat="43.35854" lon="-1.51327">
        <ele>113</ele>
        <time>2026-02-04T09:33:31.000Z</time>
      </trkpt>
      <trkpt lat="43.35832" lon="-1.51331">
        <ele>112</ele>
        <time>2026-02-04T09:33:35.000Z</time>
      </trkpt>
      <trkpt lat="43.35799" lon="-1.51366">
        <ele>105</ele>
        <time>2026-02-04T09:33:42.000Z</time>
      </trkpt>
      <trkpt lat="43.35778" lon="-1.51413">
        <ele>100</ele>
        <time>2026-02-04T09:33:49.000Z</time>
      </trkpt>
      <trkpt lat="43.3575" lon="-1.51446">
        <ele>99</ele>
        <time>2026-02-04T09:33:56.000Z</time>
      </trkpt>
      <trkpt lat="43.35725" lon="-1.51466">
        <ele>97</ele>
        <time>2026-02-04T09:34:01.000Z</time>
      </trkpt>
      <trkpt lat="43.35706" lon="-1.51468">
        <ele>97</ele>
        <time>2026-02-04T09:34:05.000Z</time>
      </trkpt>
      <trkpt lat="43.35551" lon="-1.51457">
        <ele>94</ele>
        <time>2026-02-04T09:34:32.000Z</time>
      </trkpt>
      <trkpt lat="43.35528" lon="-1.51464">
        <ele>95</ele>
        <time>2026-02-04T09:34:36.000Z</time>
      </trkpt>
      <trkpt lat="43.3551" lon="-1.51482">
        <ele>97</ele>
        <time>2026-02-04T09:34:40.000Z</time>
      </trkpt>
      <trkpt lat="43.35496" lon="-1.51503">
        <ele>101</ele>
        <time>2026-02-04T09:34:44.000Z</time>
      </trkpt>
      <trkpt lat="43.35485" lon="-1.51529">
        <ele>104</ele>
        <time>2026-02-04T09:34:48.000Z</time>
      </trkpt>
      <trkpt lat="43.35479" lon="-1.51555">
        <ele>108</ele>
        <time>2026-02-04T09:34:51.000Z</time>
      </trkpt>
      <trkpt lat="43.35476" lon="-1.51613">
        <ele>110</ele>
        <time>2026-02-04T09:34:59.000Z</time>
      </trkpt>
      <trkpt lat="43.35473" lon="-1.51634">
        <ele>110</ele>
        <time>2026-02-04T09:35:02.000Z</time>
      </trkpt>
      <trkpt lat="43.3546" lon="-1.51657">
        <ele>111</ele>
        <time>2026-02-04T09:35:05.000Z</time>
      </trkpt>
      <trkpt lat="43.35444" lon="-1.51678">
        <ele>112</ele>
        <time>2026-02-04T09:35:09.000Z</time>
      </trkpt>
      <trkpt lat="43.35425" lon="-1.51696">
        <ele>112</ele>
        <time>2026-02-04T09:35:13.000Z</time>
      </trkpt>
      <trkpt lat="43.35406" lon="-1.51709">
        <ele>111</ele>
        <time>2026-02-04T09:35:17.000Z</time>
      </trkpt>
      <trkpt lat="43.35386" lon="-1.51717">
        <ele>108</ele>
        <time>2026-02-04T09:35:21.000Z</time>
      </trkpt>
      <trkpt lat="43.35362" lon="-1.51719">
        <ele>106</ele>
        <time>2026-02-04T09:35:25.000Z</time>
      </trkpt>
      <trkpt lat="43.35339" lon="-1.51712">
        <ele>105</ele>
        <time>2026-02-04T09:35:29.000Z</time>
      </trkpt>
      <trkpt lat="43.35297" lon="-1.51689">
        <ele>104</ele>
        <time>2026-02-04T09:35:37.000Z</time>
      </trkpt>
      <trkpt lat="43.35274" lon="-1.5169">
        <ele>102</ele>
        <time>2026-02-04T09:35:42.000Z</time>
      </trkpt>
      <trkpt lat="43.35256" lon="-1.517">
        <ele>100</ele>
        <time>2026-02-04T09:35:45.000Z</time>
      </trkpt>
      <trkpt lat="43.35227" lon="-1.51735">
        <ele>98</ele>
        <time>2026-02-04T09:35:52.000Z</time>
      </trkpt>
      <trkpt lat="43.35213" lon="-1.51752">
        <ele>97</ele>
        <time>2026-02-04T09:35:55.000Z</time>
      </trkpt>
      <trkpt lat="43.35184" lon="-1.51776">
        <ele>95</ele>
        <time>2026-02-04T09:36:01.000Z</time>
      </trkpt>
      <trkpt lat="43.35157" lon="-1.51789">
        <ele>93</ele>
        <time>2026-02-04T09:36:06.000Z</time>
      </trkpt>
      <trkpt lat="43.35126" lon="-1.51793">
        <ele>91</ele>
        <time>2026-02-04T09:36:12.000Z</time>
      </trkpt>
      <trkpt lat="43.35097" lon="-1.51786">
        <ele>89</ele>
        <time>2026-02-04T09:36:17.000Z</time>
      </trkpt>
      <trkpt lat="43.35071" lon="-1.5177">
        <ele>88</ele>
        <time>2026-02-04T09:36:22.000Z</time>
      </trkpt>
      <trkpt lat="43.35069" lon="-1.51802">
        <ele>86</ele>
        <time>2026-02-04T09:36:26.000Z</time>
      </trkpt>
      <trkpt lat="43.35074" lon="-1.51935">
        <ele>74</ele>
        <time>2026-02-04T09:36:44.000Z</time>
      </trkpt>
      <trkpt lat="43.3508" lon="-1.51963">
        <ele>71</ele>
        <time>2026-02-04T09:36:47.000Z</time>
      </trkpt>
      <trkpt lat="43.35095" lon="-1.52004">
        <ele>67</ele>
        <time>2026-02-04T09:36:53.000Z</time>
      </trkpt>
      <trkpt lat="43.35094" lon="-1.52014">
        <ele>66</ele>
        <time>2026-02-04T09:36:55.000Z</time>
      </trkpt>
      <trkpt lat="43.35089" lon="-1.52024">
        <ele>65</ele>
        <time>2026-02-04T09:36:56.000Z</time>
      </trkpt>
      <trkpt lat="43.34993" lon="-1.52086">
        <ele>54</ele>
        <time>2026-02-04T09:37:15.000Z</time>
      </trkpt>
      <trkpt lat="43.34981" lon="-1.52104">
        <ele>52</ele>
        <time>2026-02-04T09:37:18.000Z</time>
      </trkpt>
      <trkpt lat="43.34991" lon="-1.52117">
        <ele>51</ele>
        <time>2026-02-04T09:37:21.000Z</time>
      </trkpt>
      <trkpt lat="43.35002" lon="-1.52136">
        <ele>50</ele>
        <time>2026-02-04T09:37:24.000Z</time>
      </trkpt>
      <trkpt lat="43.3501" lon="-1.52158">
        <ele>49</ele>
        <time>2026-02-04T09:37:27.000Z</time>
      </trkpt>
      <trkpt lat="43.35028" lon="-1.52184">
        <ele>50</ele>
        <time>2026-02-04T09:37:32.000Z</time>
      </trkpt>
      <trkpt lat="43.35031" lon="-1.52193">
        <ele>51</ele>
        <time>2026-02-04T09:37:33.000Z</time>
      </trkpt>
      <trkpt lat="43.35031" lon="-1.5221">
        <ele>51</ele>
        <time>2026-02-04T09:37:35.000Z</time>
      </trkpt>
      <trkpt lat="43.35028" lon="-1.52223">
        <ele>51</ele>
        <time>2026-02-04T09:37:37.000Z</time>
      </trkpt>
      <trkpt lat="43.3502" lon="-1.52232">
        <ele>52</ele>
        <time>2026-02-04T09:37:39.000Z</time>
      </trkpt>
      <trkpt lat="43.35012" lon="-1.52236">
        <ele>52</ele>
        <time>2026-02-04T09:37:40.000Z</time>
      </trkpt>
      <trkpt lat="43.35003" lon="-1.52237">
        <ele>52</ele>
        <time>2026-02-04T09:37:42.000Z</time>
      </trkpt>
      <trkpt lat="43.34959" lon="-1.52229">
        <ele>51</ele>
        <time>2026-02-04T09:37:50.000Z</time>
      </trkpt>
      <trkpt lat="43.34933" lon="-1.5223">
        <ele>52</ele>
        <time>2026-02-04T09:37:54.000Z</time>
      </trkpt>
      <trkpt lat="43.34917" lon="-1.52228">
        <ele>51</ele>
        <time>2026-02-04T09:37:57.000Z</time>
      </trkpt>
      <trkpt lat="43.34901" lon="-1.52223">
        <ele>51</ele>
        <time>2026-02-04T09:38:00.000Z</time>
      </trkpt>
      <trkpt lat="43.34889" lon="-1.52217">
        <ele>51</ele>
        <time>2026-02-04T09:38:02.000Z</time>
      </trkpt>
      <trkpt lat="43.34842" lon="-1.52188">
        <ele>50</ele>
        <time>2026-02-04T09:38:12.000Z</time>
      </trkpt>
      <trkpt lat="43.3481" lon="-1.5218">
        <ele>48</ele>
        <time>2026-02-04T09:38:17.000Z</time>
      </trkpt>
      <trkpt lat="43.34779" lon="-1.52181">
        <ele>48</ele>
        <time>2026-02-04T09:38:23.000Z</time>
      </trkpt>
      <trkpt lat="43.34768" lon="-1.52185">
        <ele>47</ele>
        <time>2026-02-04T09:38:25.000Z</time>
      </trkpt>
      <trkpt lat="43.3476" lon="-1.52192">
        <ele>47</ele>
        <time>2026-02-04T09:38:27.000Z</time>
      </trkpt>
      <trkpt lat="43.34748" lon="-1.52211">
        <ele>48</ele>
        <time>2026-02-04T09:38:30.000Z</time>
      </trkpt>
      <trkpt lat="43.34719" lon="-1.52292">
        <ele>51</ele>
        <time>2026-02-04T09:38:42.000Z</time>
      </trkpt>
      <trkpt lat="43.3467" lon="-1.52387">
        <ele>52</ele>
        <time>2026-02-04T09:38:57.000Z</time>
      </trkpt>
      <trkpt lat="43.3466" lon="-1.52415">
        <ele>52</ele>
        <time>2026-02-04T09:39:01.000Z</time>
      </trkpt>
      <trkpt lat="43.34654" lon="-1.52443">
        <ele>52</ele>
        <time>2026-02-04T09:39:04.000Z</time>
      </trkpt>
      <trkpt lat="43.34647" lon="-1.52486">
        <ele>52</ele>
        <time>2026-02-04T09:39:10.000Z</time>
      </trkpt>
      <trkpt lat="43.34639" lon="-1.52549">
        <ele>52</ele>
        <time>2026-02-04T09:39:18.000Z</time>
      </trkpt>
      <trkpt lat="43.34636" lon="-1.5257">
        <ele>52</ele>
        <time>2026-02-04T09:39:21.000Z</time>
      </trkpt>
      <trkpt lat="43.34624" lon="-1.52593">
        <ele>52</ele>
        <time>2026-02-04T09:39:25.000Z</time>
      </trkpt>
      <trkpt lat="43.34619" lon="-1.52599">
        <ele>52</ele>
        <time>2026-02-04T09:39:26.000Z</time>
      </trkpt>
      <trkpt lat="43.34609" lon="-1.52606">
        <ele>51</ele>
        <time>2026-02-04T09:39:28.000Z</time>
      </trkpt>
      <trkpt lat="43.34577" lon="-1.52612">
        <ele>49</ele>
        <time>2026-02-04T09:39:34.000Z</time>
      </trkpt>
      <trkpt lat="43.34568" lon="-1.52618">
        <ele>48</ele>
        <time>2026-02-04T09:39:36.000Z</time>
      </trkpt>
      <trkpt lat="43.34561" lon="-1.52627">
        <ele>48</ele>
        <time>2026-02-04T09:39:37.000Z</time>
      </trkpt>
      <trkpt lat="43.34535" lon="-1.52675">
        <ele>45</ele>
        <time>2026-02-04T09:39:45.000Z</time>
      </trkpt>
      <trkpt lat="43.3451" lon="-1.52744">
        <ele>44</ele>
        <time>2026-02-04T09:39:55.000Z</time>
      </trkpt>
      <trkpt lat="43.34456" lon="-1.52784">
        <ele>39</ele>
        <time>2026-02-04T09:40:06.000Z</time>
      </trkpt>
      <trkpt lat="43.34426" lon="-1.52856">
        <ele>36</ele>
        <time>2026-02-04T09:40:17.000Z</time>
      </trkpt>
      <trkpt lat="43.34412" lon="-1.52904">
        <ele>35</ele>
        <time>2026-02-04T09:40:23.000Z</time>
      </trkpt>
      <trkpt lat="43.34431" lon="-1.52938">
        <ele>36</ele>
        <time>2026-02-04T09:40:29.000Z</time>
      </trkpt>
      <trkpt lat="43.34439" lon="-1.5296">
        <ele>36</ele>
        <time>2026-02-04T09:40:32.000Z</time>
      </trkpt>
      <trkpt lat="43.34451" lon="-1.53016">
        <ele>38</ele>
        <time>2026-02-04T09:40:40.000Z</time>
      </trkpt>
      <trkpt lat="43.34461" lon="-1.53096">
        <ele>41</ele>
        <time>2026-02-04T09:40:50.000Z</time>
      </trkpt>
      <trkpt lat="43.34488" lon="-1.53413">
        <ele>43</ele>
        <time>2026-02-04T09:41:31.000Z</time>
      </trkpt>
      <trkpt lat="43.34523" lon="-1.53674">
        <ele>39</ele>
        <time>2026-02-04T09:42:06.000Z</time>
      </trkpt>
      <trkpt lat="43.34531" lon="-1.53721">
        <ele>38</ele>
        <time>2026-02-04T09:42:12.000Z</time>
      </trkpt>
      <trkpt lat="43.34557" lon="-1.53827">
        <ele>38</ele>
        <time>2026-02-04T09:42:26.000Z</time>
      </trkpt>
      <trkpt lat="43.34564" lon="-1.53862">
        <ele>37</ele>
        <time>2026-02-04T09:42:31.000Z</time>
      </trkpt>
      <trkpt lat="43.34567" lon="-1.53905">
        <ele>35</ele>
        <time>2026-02-04T09:42:37.000Z</time>
      </trkpt>
      <trkpt lat="43.34568" lon="-1.53959">
        <ele>34</ele>
        <time>2026-02-04T09:42:44.000Z</time>
      </trkpt>
      <trkpt lat="43.34572" lon="-1.53997">
        <ele>34</ele>
        <time>2026-02-04T09:42:49.000Z</time>
      </trkpt>
      <trkpt lat="43.34579" lon="-1.54025">
        <ele>34</ele>
        <time>2026-02-04T09:42:53.000Z</time>
      </trkpt>
      <trkpt lat="43.3459" lon="-1.54058">
        <ele>34</ele>
        <time>2026-02-04T09:42:57.000Z</time>
      </trkpt>
      <trkpt lat="43.34639" lon="-1.54155">
        <ele>37</ele>
        <time>2026-02-04T09:43:12.000Z</time>
      </trkpt>
      <trkpt lat="43.3465" lon="-1.54178">
        <ele>38</ele>
        <time>2026-02-04T09:43:16.000Z</time>
      </trkpt>
      <trkpt lat="43.34661" lon="-1.5421">
        <ele>37</ele>
        <time>2026-02-04T09:43:21.000Z</time>
      </trkpt>
      <trkpt lat="43.34667" lon="-1.54235">
        <ele>36</ele>
        <time>2026-02-04T09:43:24.000Z</time>
      </trkpt>
      <trkpt lat="43.34673" lon="-1.54279">
        <ele>35</ele>
        <time>2026-02-04T09:43:30.000Z</time>
      </trkpt>
      <trkpt lat="43.34674" lon="-1.54364">
        <ele>32</ele>
        <time>2026-02-04T09:43:41.000Z</time>
      </trkpt>
      <trkpt lat="43.34678" lon="-1.54431">
        <ele>30</ele>
        <time>2026-02-04T09:43:50.000Z</time>
      </trkpt>
      <trkpt lat="43.3468" lon="-1.5445">
        <ele>29</ele>
        <time>2026-02-04T09:43:52.000Z</time>
      </trkpt>
      <trkpt lat="43.34688" lon="-1.54483">
        <ele>28</ele>
        <time>2026-02-04T09:43:57.000Z</time>
      </trkpt>
      <trkpt lat="43.347" lon="-1.54509">
        <ele>28</ele>
        <time>2026-02-04T09:44:00.000Z</time>
      </trkpt>
      <trkpt lat="43.34869" lon="-1.54775">
        <ele>25</ele>
        <time>2026-02-04T09:44:46.000Z</time>
      </trkpt>
      <trkpt lat="43.34888" lon="-1.548">
        <ele>25</ele>
        <time>2026-02-04T09:44:51.000Z</time>
      </trkpt>
      <trkpt lat="43.34909" lon="-1.54821">
        <ele>24</ele>
        <time>2026-02-04T09:44:55.000Z</time>
      </trkpt>
      <trkpt lat="43.34941" lon="-1.54841">
        <ele>23</ele>
        <time>2026-02-04T09:45:02.000Z</time>
      </trkpt>
      <trkpt lat="43.35076" lon="-1.54912">
        <ele>20</ele>
        <time>2026-02-04T09:45:27.000Z</time>
      </trkpt>
      <trkpt lat="43.35106" lon="-1.54935">
        <ele>19</ele>
        <time>2026-02-04T09:45:34.000Z</time>
      </trkpt>
      <trkpt lat="43.35113" lon="-1.54934">
        <ele>19</ele>
        <time>2026-02-04T09:45:35.000Z</time>
      </trkpt>
      <trkpt lat="43.3512" lon="-1.54937">
        <ele>19</ele>
        <time>2026-02-04T09:45:36.000Z</time>
      </trkpt>
      <trkpt lat="43.35125" lon="-1.54942">
        <ele>19</ele>
        <time>2026-02-04T09:45:37.000Z</time>
      </trkpt>
      <trkpt lat="43.35132" lon="-1.54956">
        <ele>18</ele>
        <time>2026-02-04T09:45:39.000Z</time>
      </trkpt>
      <trkpt lat="43.35133" lon="-1.54964">
        <ele>18</ele>
        <time>2026-02-04T09:45:40.000Z</time>
      </trkpt>
      <trkpt lat="43.35132" lon="-1.54974">
        <ele>18</ele>
        <time>2026-02-04T09:45:42.000Z</time>
      </trkpt>
      <trkpt lat="43.35128" lon="-1.54983">
        <ele>18</ele>
        <time>2026-02-04T09:45:43.000Z</time>
      </trkpt>
      <trkpt lat="43.35123" lon="-1.5499">
        <ele>18</ele>
        <time>2026-02-04T09:45:44.000Z</time>
      </trkpt>
      <trkpt lat="43.35117" lon="-1.54993">
        <ele>18</ele>
        <time>2026-02-04T09:45:46.000Z</time>
      </trkpt>
      <trkpt lat="43.3511" lon="-1.54994">
        <ele>18</ele>
        <time>2026-02-04T09:45:47.000Z</time>
      </trkpt>
      <trkpt lat="43.35104" lon="-1.54993">
        <ele>18</ele>
        <time>2026-02-04T09:45:48.000Z</time>
      </trkpt>
      <trkpt lat="43.35098" lon="-1.54988">
        <ele>18</ele>
        <time>2026-02-04T09:45:49.000Z</time>
      </trkpt>
      <trkpt lat="43.35078" lon="-1.54991">
        <ele>19</ele>
        <time>2026-02-04T09:45:53.000Z</time>
      </trkpt>
      <trkpt lat="43.35056" lon="-1.55009">
        <ele>20</ele>
        <time>2026-02-04T09:45:57.000Z</time>
      </trkpt>
      <trkpt lat="43.35052" lon="-1.55001">
        <ele>20</ele>
        <time>2026-02-04T09:45:59.000Z</time>
      </trkpt>
      <trkpt lat="43.35056" lon="-1.55009">
        <ele>20</ele>
        <time>2026-02-04T09:46:00.000Z</time>
      </trkpt>
      <trkpt lat="43.35004" lon="-1.55055">
        <ele>22</ele>
        <time>2026-02-04T09:46:11.000Z</time>
      </trkpt>
      <trkpt lat="43.34874" lon="-1.55162">
        <ele>21</ele>
        <time>2026-02-04T09:46:38.000Z</time>
      </trkpt>
      <trkpt lat="43.34865" lon="-1.55186">
        <ele>20</ele>
        <time>2026-02-04T09:46:41.000Z</time>
      </trkpt>
      <trkpt lat="43.34859" lon="-1.55222">
        <ele>19</ele>
        <time>2026-02-04T09:46:46.000Z</time>
      </trkpt>
      <trkpt lat="43.34857" lon="-1.5523">
        <ele>19</ele>
        <time>2026-02-04T09:46:47.000Z</time>
      </trkpt>
      <trkpt lat="43.34847" lon="-1.55243">
        <ele>18</ele>
        <time>2026-02-04T09:46:50.000Z</time>
      </trkpt>
      <trkpt lat="43.34831" lon="-1.55248">
        <ele>18</ele>
        <time>2026-02-04T09:46:52.000Z</time>
      </trkpt>
      <trkpt lat="43.34821" lon="-1.55247">
        <ele>18</ele>
        <time>2026-02-04T09:46:54.000Z</time>
      </trkpt>
      <trkpt lat="43.34801" lon="-1.55235">
        <ele>19</ele>
        <time>2026-02-04T09:46:58.000Z</time>
      </trkpt>
      <trkpt lat="43.34597" lon="-1.55214">
        <ele>19</ele>
        <time>2026-02-04T09:47:35.000Z</time>
      </trkpt>
      <trkpt lat="43.34571" lon="-1.55205">
        <ele>19</ele>
        <time>2026-02-04T09:47:39.000Z</time>
      </trkpt>
      <trkpt lat="43.34548" lon="-1.55189">
        <ele>20</ele>
        <time>2026-02-04T09:47:44.000Z</time>
      </trkpt>
      <trkpt lat="43.3449" lon="-1.55114">
        <ele>22</ele>
        <time>2026-02-04T09:47:58.000Z</time>
      </trkpt>
      <trkpt lat="43.3434" lon="-1.5491">
        <ele>30</ele>
        <time>2026-02-04T09:48:36.000Z</time>
      </trkpt>
      <trkpt lat="43.34316" lon="-1.54886">
        <ele>30</ele>
        <time>2026-02-04T09:48:41.000Z</time>
      </trkpt>
      <trkpt lat="43.34293" lon="-1.54871">
        <ele>30</ele>
        <time>2026-02-04T09:48:45.000Z</time>
      </trkpt>
      <trkpt lat="43.34268" lon="-1.54861">
        <ele>31</ele>
        <time>2026-02-04T09:48:50.000Z</time>
      </trkpt>
      <trkpt lat="43.34239" lon="-1.54859">
        <ele>32</ele>
        <time>2026-02-04T09:48:55.000Z</time>
      </trkpt>
      <trkpt lat="43.34212" lon="-1.54863">
        <ele>33</ele>
        <time>2026-02-04T09:49:00.000Z</time>
      </trkpt>
      <trkpt lat="43.34189" lon="-1.54871">
        <ele>34</ele>
        <time>2026-02-04T09:49:04.000Z</time>
      </trkpt>
      <trkpt lat="43.33917" lon="-1.55038">
        <ele>45</ele>
        <time>2026-02-04T09:49:57.000Z</time>
      </trkpt>
      <trkpt lat="43.33903" lon="-1.55043">
        <ele>44</ele>
        <time>2026-02-04T09:50:00.000Z</time>
      </trkpt>
      <trkpt lat="43.33883" lon="-1.55045">
        <ele>42</ele>
        <time>2026-02-04T09:50:03.000Z</time>
      </trkpt>
      <trkpt lat="43.33864" lon="-1.55037">
        <ele>40</ele>
        <time>2026-02-04T09:50:07.000Z</time>
      </trkpt>
      <trkpt lat="43.33759" lon="-1.54975">
        <ele>34</ele>
        <time>2026-02-04T09:50:27.000Z</time>
      </trkpt>
      <trkpt lat="43.33749" lon="-1.54969">
        <ele>33</ele>
        <time>2026-02-04T09:50:29.000Z</time>
      </trkpt>
      <trkpt lat="43.33689" lon="-1.54934">
        <ele>34</ele>
        <time>2026-02-04T09:50:41.000Z</time>
      </trkpt>
      <trkpt lat="43.33606" lon="-1.54902">
        <ele>38</ele>
        <time>2026-02-04T09:50:56.000Z</time>
      </trkpt>
      <trkpt lat="43.33531" lon="-1.54866">
        <ele>36</ele>
        <time>2026-02-04T09:51:10.000Z</time>
      </trkpt>
      <trkpt lat="43.33451" lon="-1.54835">
        <ele>35</ele>
        <time>2026-02-04T09:51:25.000Z</time>
      </trkpt>
      <trkpt lat="43.33342" lon="-1.5481">
        <ele>40</ele>
        <time>2026-02-04T09:51:45.000Z</time>
      </trkpt>
      <trkpt lat="43.33316" lon="-1.54798">
        <ele>42</ele>
        <time>2026-02-04T09:51:50.000Z</time>
      </trkpt>
      <trkpt lat="43.33226" lon="-1.54715">
        <ele>40</ele>
        <time>2026-02-04T09:52:09.000Z</time>
      </trkpt>
      <trkpt lat="43.3321" lon="-1.54694">
        <ele>39</ele>
        <time>2026-02-04T09:52:13.000Z</time>
      </trkpt>
      <trkpt lat="43.332" lon="-1.54673">
        <ele>38</ele>
        <time>2026-02-04T09:52:16.000Z</time>
      </trkpt>
      <trkpt lat="43.3317" lon="-1.54594">
        <ele>35</ele>
        <time>2026-02-04T09:52:28.000Z</time>
      </trkpt>
      <trkpt lat="43.33146" lon="-1.54555">
        <ele>34</ele>
        <time>2026-02-04T09:52:34.000Z</time>
      </trkpt>
      <trkpt lat="43.3308" lon="-1.54478">
        <ele>32</ele>
        <time>2026-02-04T09:52:50.000Z</time>
      </trkpt>
      <trkpt lat="43.33056" lon="-1.54454">
        <ele>32</ele>
        <time>2026-02-04T09:52:55.000Z</time>
      </trkpt>
      <trkpt lat="43.33034" lon="-1.54441">
        <ele>31</ele>
        <time>2026-02-04T09:52:59.000Z</time>
      </trkpt>
      <trkpt lat="43.33014" lon="-1.54435">
        <ele>31</ele>
        <time>2026-02-04T09:53:03.000Z</time>
      </trkpt>
      <trkpt lat="43.32992" lon="-1.54437">
        <ele>31</ele>
        <time>2026-02-04T09:53:07.000Z</time>
      </trkpt>
      <trkpt lat="43.32973" lon="-1.54445">
        <ele>31</ele>
        <time>2026-02-04T09:53:10.000Z</time>
      </trkpt>
      <trkpt lat="43.32897" lon="-1.54492">
        <ele>33</ele>
        <time>2026-02-04T09:53:25.000Z</time>
      </trkpt>
      <trkpt lat="43.32876" lon="-1.54504">
        <ele>34</ele>
        <time>2026-02-04T09:53:29.000Z</time>
      </trkpt>
      <trkpt lat="43.32846" lon="-1.54527">
        <ele>37</ele>
        <time>2026-02-04T09:53:35.000Z</time>
      </trkpt>
      <trkpt lat="43.32564" lon="-1.54806">
        <ele>36</ele>
        <time>2026-02-04T09:54:37.000Z</time>
      </trkpt>
      <trkpt lat="43.32463" lon="-1.54893">
        <ele>34</ele>
        <time>2026-02-04T09:54:58.000Z</time>
      </trkpt>
      <trkpt lat="43.32445" lon="-1.54904">
        <ele>34</ele>
        <time>2026-02-04T09:55:02.000Z</time>
      </trkpt>
      <trkpt lat="43.32245" lon="-1.54992">
        <ele>30</ele>
        <time>2026-02-04T09:55:39.000Z</time>
      </trkpt>
      <trkpt lat="43.32183" lon="-1.55023">
        <ele>30</ele>
        <time>2026-02-04T09:55:51.000Z</time>
      </trkpt>
      <trkpt lat="43.32153" lon="-1.55042">
        <ele>31</ele>
        <time>2026-02-04T09:55:57.000Z</time>
      </trkpt>
      <trkpt lat="43.32152" lon="-1.5505">
        <ele>31</ele>
        <time>2026-02-04T09:55:58.000Z</time>
      </trkpt>
      <trkpt lat="43.32151" lon="-1.55053">
        <ele>31</ele>
        <time>2026-02-04T09:55:58.000Z</time>
      </trkpt>
      <trkpt lat="43.32146" lon="-1.55056">
        <ele>31</ele>
        <time>2026-02-04T09:55:59.000Z</time>
      </trkpt>
      <trkpt lat="43.32143" lon="-1.55056">
        <ele>31</ele>
        <time>2026-02-04T09:56:00.000Z</time>
      </trkpt>
      <trkpt lat="43.32091" lon="-1.55274">
        <ele>33</ele>
        <time>2026-02-04T09:56:29.000Z</time>
      </trkpt>
      <trkpt lat="43.32078" lon="-1.55312">
        <ele>33</ele>
        <time>2026-02-04T09:56:35.000Z</time>
      </trkpt>
      <trkpt lat="43.32064" lon="-1.55338">
        <ele>34</ele>
        <time>2026-02-04T09:56:39.000Z</time>
      </trkpt>
      <trkpt lat="43.32054" lon="-1.5535">
        <ele>34</ele>
        <time>2026-02-04T09:56:41.000Z</time>
      </trkpt>
      <trkpt lat="43.32007" lon="-1.55395">
        <ele>35</ele>
        <time>2026-02-04T09:56:52.000Z</time>
      </trkpt>
      <trkpt lat="43.31996" lon="-1.55417">
        <ele>35</ele>
        <time>2026-02-04T09:56:55.000Z</time>
      </trkpt>
      <trkpt lat="43.3199" lon="-1.55439">
        <ele>35</ele>
        <time>2026-02-04T09:56:58.000Z</time>
      </trkpt>
      <trkpt lat="43.31962" lon="-1.55573">
        <ele>37</ele>
        <time>2026-02-04T09:57:16.000Z</time>
      </trkpt>
      <trkpt lat="43.31948" lon="-1.55631">
        <ele>40</ele>
        <time>2026-02-04T09:57:24.000Z</time>
      </trkpt>
      <trkpt lat="43.31941" lon="-1.55653">
        <ele>41</ele>
        <time>2026-02-04T09:57:27.000Z</time>
      </trkpt>
      <trkpt lat="43.3192" lon="-1.55689">
        <ele>43</ele>
        <time>2026-02-04T09:57:33.000Z</time>
      </trkpt>
      <trkpt lat="43.31864" lon="-1.55764">
        <ele>46</ele>
        <time>2026-02-04T09:57:47.000Z</time>
      </trkpt>
      <trkpt lat="43.31836" lon="-1.5581">
        <ele>46</ele>
        <time>2026-02-04T09:57:55.000Z</time>
      </trkpt>
      <trkpt lat="43.31809" lon="-1.55859">
        <ele>48</ele>
        <time>2026-02-04T09:58:03.000Z</time>
      </trkpt>
      <trkpt lat="43.31774" lon="-1.55909">
        <ele>50</ele>
        <time>2026-02-04T09:58:12.000Z</time>
      </trkpt>
      <trkpt lat="43.31763" lon="-1.55933">
        <ele>51</ele>
        <time>2026-02-04T09:58:15.000Z</time>
      </trkpt>
      <trkpt lat="43.31756" lon="-1.55967">
        <ele>52</ele>
        <time>2026-02-04T09:58:20.000Z</time>
      </trkpt>
      <trkpt lat="43.31748" lon="-1.55985">
        <ele>52</ele>
        <time>2026-02-04T09:58:23.000Z</time>
      </trkpt>
      <trkpt lat="43.31735" lon="-1.56002">
        <ele>53</ele>
        <time>2026-02-04T09:58:26.000Z</time>
      </trkpt>
      <trkpt lat="43.31662" lon="-1.56079">
        <ele>57</ele>
        <time>2026-02-04T09:58:42.000Z</time>
      </trkpt>
      <trkpt lat="43.31606" lon="-1.5614">
        <ele>54</ele>
        <time>2026-02-04T09:58:55.000Z</time>
      </trkpt>
      <trkpt lat="43.3159" lon="-1.56152">
        <ele>53</ele>
        <time>2026-02-04T09:58:58.000Z</time>
      </trkpt>
      <trkpt lat="43.31574" lon="-1.56157">
        <ele>53</ele>
        <time>2026-02-04T09:59:01.000Z</time>
      </trkpt>
      <trkpt lat="43.31559" lon="-1.56155">
        <ele>53</ele>
        <time>2026-02-04T09:59:04.000Z</time>
      </trkpt>
      <trkpt lat="43.31553" lon="-1.56153">
        <ele>52</ele>
        <time>2026-02-04T09:59:05.000Z</time>
      </trkpt>
      <trkpt lat="43.31496" lon="-1.56112">
        <ele>49</ele>
        <time>2026-02-04T09:59:16.000Z</time>
      </trkpt>
      <trkpt lat="43.31485" lon="-1.56107">
        <ele>48</ele>
        <time>2026-02-04T09:59:18.000Z</time>
      </trkpt>
      <trkpt lat="43.31477" lon="-1.56106">
        <ele>47</ele>
        <time>2026-02-04T09:59:20.000Z</time>
      </trkpt>
      <trkpt lat="43.31468" lon="-1.56113">
        <ele>46</ele>
        <time>2026-02-04T09:59:22.000Z</time>
      </trkpt>
      <trkpt lat="43.31461" lon="-1.56126">
        <ele>46</ele>
        <time>2026-02-04T09:59:24.000Z</time>
      </trkpt>
      <trkpt lat="43.31458" lon="-1.56134">
        <ele>46</ele>
        <time>2026-02-04T09:59:25.000Z</time>
      </trkpt>
      <trkpt lat="43.31453" lon="-1.56164">
        <ele>46</ele>
        <time>2026-02-04T09:59:29.000Z</time>
      </trkpt>
      <trkpt lat="43.31448" lon="-1.56194">
        <ele>46</ele>
        <time>2026-02-04T09:59:33.000Z</time>
      </trkpt>
      <trkpt lat="43.31439" lon="-1.56228">
        <ele>45</ele>
        <time>2026-02-04T09:59:38.000Z</time>
      </trkpt>
      <trkpt lat="43.31429" lon="-1.56255">
        <ele>44</ele>
        <time>2026-02-04T09:59:42.000Z</time>
      </trkpt>
      <trkpt lat="43.31417" lon="-1.56278">
        <ele>44</ele>
        <time>2026-02-04T09:59:45.000Z</time>
      </trkpt>
      <trkpt lat="43.31401" lon="-1.56299">
        <ele>44</ele>
        <time>2026-02-04T09:59:49.000Z</time>
      </trkpt>
      <trkpt lat="43.31391" lon="-1.56308">
        <ele>44</ele>
        <time>2026-02-04T09:59:51.000Z</time>
      </trkpt>
      <trkpt lat="43.31331" lon="-1.56357">
        <ele>44</ele>
        <time>2026-02-04T10:00:04.000Z</time>
      </trkpt>
      <trkpt lat="43.31316" lon="-1.56371">
        <ele>45</ele>
        <time>2026-02-04T10:00:07.000Z</time>
      </trkpt>
      <trkpt lat="43.31305" lon="-1.56386">
        <ele>46</ele>
        <time>2026-02-04T10:00:10.000Z</time>
      </trkpt>
      <trkpt lat="43.31264" lon="-1.56459">
        <ele>47</ele>
        <time>2026-02-04T10:00:22.000Z</time>
      </trkpt>
      <trkpt lat="43.31252" lon="-1.56476">
        <ele>47</ele>
        <time>2026-02-04T10:00:25.000Z</time>
      </trkpt>
      <trkpt lat="43.31245" lon="-1.56484">
        <ele>47</ele>
        <time>2026-02-04T10:00:26.000Z</time>
      </trkpt>
      <trkpt lat="43.31226" lon="-1.56498">
        <ele>47</ele>
        <time>2026-02-04T10:00:30.000Z</time>
      </trkpt>
      <trkpt lat="43.31081" lon="-1.56585">
        <ele>47</ele>
        <time>2026-02-04T10:00:58.000Z</time>
      </trkpt>
      <trkpt lat="43.31059" lon="-1.56599">
        <ele>47</ele>
        <time>2026-02-04T10:01:03.000Z</time>
      </trkpt>
      <trkpt lat="43.31033" lon="-1.56626">
        <ele>48</ele>
        <time>2026-02-04T10:01:08.000Z</time>
      </trkpt>
      <trkpt lat="43.30981" lon="-1.56719">
        <ele>50</ele>
        <time>2026-02-04T10:01:24.000Z</time>
      </trkpt>
      <trkpt lat="43.30953" lon="-1.56764">
        <ele>49</ele>
        <time>2026-02-04T10:01:31.000Z</time>
      </trkpt>
      <trkpt lat="43.30947" lon="-1.56775">
        <ele>49</ele>
        <time>2026-02-04T10:01:33.000Z</time>
      </trkpt>
      <trkpt lat="43.3094" lon="-1.56798">
        <ele>49</ele>
        <time>2026-02-04T10:01:36.000Z</time>
      </trkpt>
      <trkpt lat="43.30918" lon="-1.56887">
        <ele>50</ele>
        <time>2026-02-04T10:01:48.000Z</time>
      </trkpt>
      <trkpt lat="43.30918" lon="-1.56908">
        <ele>51</ele>
        <time>2026-02-04T10:01:51.000Z</time>
      </trkpt>
      <trkpt lat="43.30921" lon="-1.56933">
        <ele>51</ele>
        <time>2026-02-04T10:01:54.000Z</time>
      </trkpt>
      <trkpt lat="43.30933" lon="-1.56976">
        <ele>50</ele>
        <time>2026-02-04T10:02:00.000Z</time>
      </trkpt>
      <trkpt lat="43.30952" lon="-1.57024">
        <ele>50</ele>
        <time>2026-02-04T10:02:08.000Z</time>
      </trkpt>
      <trkpt lat="43.30978" lon="-1.57064">
        <ele>50</ele>
        <time>2026-02-04T10:02:14.000Z</time>
      </trkpt>
      <trkpt lat="43.30984" lon="-1.57075">
        <ele>50</ele>
        <time>2026-02-04T10:02:16.000Z</time>
      </trkpt>
      <trkpt lat="43.30988" lon="-1.57086">
        <ele>49</ele>
        <time>2026-02-04T10:02:18.000Z</time>
      </trkpt>
      <trkpt lat="43.30989" lon="-1.57111">
        <ele>49</ele>
        <time>2026-02-04T10:02:21.000Z</time>
      </trkpt>
      <trkpt lat="43.30987" lon="-1.57138">
        <ele>48</ele>
        <time>2026-02-04T10:02:25.000Z</time>
      </trkpt>
      <trkpt lat="43.3098" lon="-1.57165">
        <ele>47</ele>
        <time>2026-02-04T10:02:28.000Z</time>
      </trkpt>
      <trkpt lat="43.30968" lon="-1.57201">
        <ele>47</ele>
        <time>2026-02-04T10:02:33.000Z</time>
      </trkpt>
      <trkpt lat="43.30967" lon="-1.57219">
        <ele>47</ele>
        <time>2026-02-04T10:02:36.000Z</time>
      </trkpt>
      <trkpt lat="43.30968" lon="-1.57222">
        <ele>47</ele>
        <time>2026-02-04T10:02:36.000Z</time>
      </trkpt>
      <trkpt lat="43.30976" lon="-1.5723">
        <ele>48</ele>
        <time>2026-02-04T10:02:38.000Z</time>
      </trkpt>
      <trkpt lat="43.31007" lon="-1.57234">
        <ele>48</ele>
        <time>2026-02-04T10:02:43.000Z</time>
      </trkpt>
      <trkpt lat="43.3105" lon="-1.57243">
        <ele>46</ele>
        <time>2026-02-04T10:02:51.000Z</time>
      </trkpt>
      <trkpt lat="43.31078" lon="-1.57256">
        <ele>44</ele>
        <time>2026-02-04T10:02:56.000Z</time>
      </trkpt>
      <trkpt lat="43.31095" lon="-1.57271">
        <ele>45</ele>
        <time>2026-02-04T10:03:00.000Z</time>
      </trkpt>
      <trkpt lat="43.31221" lon="-1.57392">
        <ele>51</ele>
        <time>2026-02-04T10:03:27.000Z</time>
      </trkpt>
      <trkpt lat="43.31256" lon="-1.57422">
        <ele>51</ele>
        <time>2026-02-04T10:03:35.000Z</time>
      </trkpt>
      <trkpt lat="43.31333" lon="-1.57478">
        <ele>53</ele>
        <time>2026-02-04T10:03:50.000Z</time>
      </trkpt>
      <trkpt lat="43.31351" lon="-1.57496">
        <ele>53</ele>
        <time>2026-02-04T10:03:54.000Z</time>
      </trkpt>
      <trkpt lat="43.31359" lon="-1.57506">
        <ele>54</ele>
        <time>2026-02-04T10:03:56.000Z</time>
      </trkpt>
      <trkpt lat="43.31369" lon="-1.57529">
        <ele>55</ele>
        <time>2026-02-04T10:04:00.000Z</time>
      </trkpt>
      <trkpt lat="43.31382" lon="-1.5757">
        <ele>56</ele>
        <time>2026-02-04T10:04:05.000Z</time>
      </trkpt>
      <trkpt lat="43.3144" lon="-1.57773">
        <ele>61</ele>
        <time>2026-02-04T10:04:34.000Z</time>
      </trkpt>
      <trkpt lat="43.31454" lon="-1.57825">
        <ele>63</ele>
        <time>2026-02-04T10:04:41.000Z</time>
      </trkpt>
      <trkpt lat="43.31459" lon="-1.57827">
        <ele>63</ele>
        <time>2026-02-04T10:04:42.000Z</time>
      </trkpt>
      <trkpt lat="43.31475" lon="-1.57826">
        <ele>62</ele>
        <time>2026-02-04T10:04:45.000Z</time>
      </trkpt>
      <trkpt lat="43.31535" lon="-1.57834">
        <ele>60</ele>
        <time>2026-02-04T10:04:55.000Z</time>
      </trkpt>
      <trkpt lat="43.31583" lon="-1.57812">
        <ele>58</ele>
        <time>2026-02-04T10:05:04.000Z</time>
      </trkpt>
      <trkpt lat="43.31535" lon="-1.57834">
        <ele>60</ele>
        <time>2026-02-04T10:05:13.000Z</time>
      </trkpt>
      <trkpt lat="43.31509" lon="-1.57831">
        <ele>61</ele>
        <time>2026-02-04T10:05:18.000Z</time>
      </trkpt>
      <trkpt lat="43.31475" lon="-1.57826">
        <ele>62</ele>
        <time>2026-02-04T10:05:24.000Z</time>
      </trkpt>
      <trkpt lat="43.31459" lon="-1.57827">
        <ele>63</ele>
        <time>2026-02-04T10:05:27.000Z</time>
      </trkpt>
      <trkpt lat="43.31454" lon="-1.57825">
        <ele>63</ele>
        <time>2026-02-04T10:05:28.000Z</time>
      </trkpt>
      <trkpt lat="43.31496" lon="-1.5798">
        <ele>55</ele>
        <time>2026-02-04T10:05:49.000Z</time>
      </trkpt>
      <trkpt lat="43.31502" lon="-1.58012">
        <ele>55</ele>
        <time>2026-02-04T10:05:54.000Z</time>
      </trkpt>
      <trkpt lat="43.31503" lon="-1.58036">
        <ele>56</ele>
        <time>2026-02-04T10:05:57.000Z</time>
      </trkpt>
      <trkpt lat="43.315" lon="-1.58057">
        <ele>56</ele>
        <time>2026-02-04T10:05:59.000Z</time>
      </trkpt>
      <trkpt lat="43.31492" lon="-1.58083">
        <ele>57</ele>
        <time>2026-02-04T10:06:03.000Z</time>
      </trkpt>
      <trkpt lat="43.31462" lon="-1.58164">
        <ele>59</ele>
        <time>2026-02-04T10:06:15.000Z</time>
      </trkpt>
      <trkpt lat="43.31457" lon="-1.58188">
        <ele>59</ele>
        <time>2026-02-04T10:06:18.000Z</time>
      </trkpt>
      <trkpt lat="43.31456" lon="-1.58226">
        <ele>60</ele>
        <time>2026-02-04T10:06:23.000Z</time>
      </trkpt>
      <trkpt lat="43.31458" lon="-1.5825">
        <ele>60</ele>
        <time>2026-02-04T10:06:26.000Z</time>
      </trkpt>
      <trkpt lat="43.31464" lon="-1.58271">
        <ele>61</ele>
        <time>2026-02-04T10:06:29.000Z</time>
      </trkpt>
      <trkpt lat="43.31472" lon="-1.58277">
        <ele>61</ele>
        <time>2026-02-04T10:06:31.000Z</time>
      </trkpt>
      <trkpt lat="43.31476" lon="-1.58287">
        <ele>61</ele>
        <time>2026-02-04T10:06:32.000Z</time>
      </trkpt>
      <trkpt lat="43.31476" lon="-1.583">
        <ele>62</ele>
        <time>2026-02-04T10:06:34.000Z</time>
      </trkpt>
      <trkpt lat="43.31473" lon="-1.58306">
        <ele>62</ele>
        <time>2026-02-04T10:06:35.000Z</time>
      </trkpt>
      <trkpt lat="43.31464" lon="-1.58313">
        <ele>62</ele>
        <time>2026-02-04T10:06:37.000Z</time>
      </trkpt>
      <trkpt lat="43.31455" lon="-1.58311">
        <ele>61</ele>
        <time>2026-02-04T10:06:38.000Z</time>
      </trkpt>
      <trkpt lat="43.31443" lon="-1.58321">
        <ele>61</ele>
        <time>2026-02-04T10:06:41.000Z</time>
      </trkpt>
      <trkpt lat="43.31425" lon="-1.58356">
        <ele>61</ele>
        <time>2026-02-04T10:06:46.000Z</time>
      </trkpt>
      <trkpt lat="43.3142" lon="-1.58364">
        <ele>61</ele>
        <time>2026-02-04T10:06:48.000Z</time>
      </trkpt>
      <trkpt lat="43.31412" lon="-1.58372">
        <ele>61</ele>
        <time>2026-02-04T10:06:49.000Z</time>
      </trkpt>
      <trkpt lat="43.31351" lon="-1.58408">
        <ele>61</ele>
        <time>2026-02-04T10:07:01.000Z</time>
      </trkpt>
      <trkpt lat="43.31319" lon="-1.58425">
        <ele>61</ele>
        <time>2026-02-04T10:07:07.000Z</time>
      </trkpt>
      <trkpt lat="43.31297" lon="-1.58431">
        <ele>61</ele>
        <time>2026-02-04T10:07:11.000Z</time>
      </trkpt>
      <trkpt lat="43.31277" lon="-1.58432">
        <ele>61</ele>
        <time>2026-02-04T10:07:15.000Z</time>
      </trkpt>
      <trkpt lat="43.31177" lon="-1.58415">
        <ele>60</ele>
        <time>2026-02-04T10:07:33.000Z</time>
      </trkpt>
      <trkpt lat="43.31151" lon="-1.58417">
        <ele>60</ele>
        <time>2026-02-04T10:07:37.000Z</time>
      </trkpt>
      <trkpt lat="43.31124" lon="-1.58425">
        <ele>60</ele>
        <time>2026-02-04T10:07:42.000Z</time>
      </trkpt>
      <trkpt lat="43.31111" lon="-1.5843">
        <ele>59</ele>
        <time>2026-02-04T10:07:45.000Z</time>
      </trkpt>
      <trkpt lat="43.30998" lon="-1.58508">
        <ele>64</ele>
        <time>2026-02-04T10:08:07.000Z</time>
      </trkpt>
      <trkpt lat="43.30918" lon="-1.58569">
        <ele>65</ele>
        <time>2026-02-04T10:08:24.000Z</time>
      </trkpt>
      <trkpt lat="43.30885" lon="-1.58596">
        <ele>66</ele>
        <time>2026-02-04T10:08:30.000Z</time>
      </trkpt>
      <trkpt lat="43.30871" lon="-1.58611">
        <ele>67</ele>
        <time>2026-02-04T10:08:34.000Z</time>
      </trkpt>
      <trkpt lat="43.30849" lon="-1.58642">
        <ele>68</ele>
        <time>2026-02-04T10:08:39.000Z</time>
      </trkpt>
      <trkpt lat="43.3071" lon="-1.58871">
        <ele>78</ele>
        <time>2026-02-04T10:09:18.000Z</time>
      </trkpt>
      <trkpt lat="43.30697" lon="-1.589">
        <ele>80</ele>
        <time>2026-02-04T10:09:22.000Z</time>
      </trkpt>
      <trkpt lat="43.30675" lon="-1.5894">
        <ele>81</ele>
        <time>2026-02-04T10:09:29.000Z</time>
      </trkpt>
      <trkpt lat="43.3053" lon="-1.5916">
        <ele>90</ele>
        <time>2026-02-04T10:10:07.000Z</time>
      </trkpt>
      <trkpt lat="43.30494" lon="-1.59208">
        <ele>93</ele>
        <time>2026-02-04T10:10:16.000Z</time>
      </trkpt>
      <trkpt lat="43.30476" lon="-1.5923">
        <ele>95</ele>
        <time>2026-02-04T10:10:20.000Z</time>
      </trkpt>
      <trkpt lat="43.3046" lon="-1.59243">
        <ele>97</ele>
        <time>2026-02-04T10:10:24.000Z</time>
      </trkpt>
      <trkpt lat="43.3039" lon="-1.59285">
        <ele>100</ele>
        <time>2026-02-04T10:10:37.000Z</time>
      </trkpt>
      <trkpt lat="43.30377" lon="-1.59287">
        <ele>100</ele>
        <time>2026-02-04T10:10:39.000Z</time>
      </trkpt>
      <trkpt lat="43.30294" lon="-1.59278">
        <ele>102</ele>
        <time>2026-02-04T10:10:54.000Z</time>
      </trkpt>
      <trkpt lat="43.30269" lon="-1.59269">
        <ele>102</ele>
        <time>2026-02-04T10:10:59.000Z</time>
      </trkpt>
      <trkpt lat="43.30254" lon="-1.5926">
        <ele>101</ele>
        <time>2026-02-04T10:11:02.000Z</time>
      </trkpt>
      <trkpt lat="43.30245" lon="-1.59252">
        <ele>101</ele>
        <time>2026-02-04T10:11:04.000Z</time>
      </trkpt>
      <trkpt lat="43.30234" lon="-1.59236">
        <ele>101</ele>
        <time>2026-02-04T10:11:07.000Z</time>
      </trkpt>
      <trkpt lat="43.302" lon="-1.59176">
        <ele>101</ele>
        <time>2026-02-04T10:11:16.000Z</time>
      </trkpt>
      <trkpt lat="43.30149" lon="-1.59094">
        <ele>103</ele>
        <time>2026-02-04T10:11:30.000Z</time>
      </trkpt>
      <trkpt lat="43.30111" lon="-1.59052">
        <ele>103</ele>
        <time>2026-02-04T10:11:39.000Z</time>
      </trkpt>
      <trkpt lat="43.3013" lon="-1.59041">
        <ele>103</ele>
        <time>2026-02-04T10:11:43.000Z</time>
      </trkpt>
      <trkpt lat="43.30145" lon="-1.59029">
        <ele>103</ele>
        <time>2026-02-04T10:11:46.000Z</time>
      </trkpt>
      <trkpt lat="43.30156" lon="-1.59016">
        <ele>103</ele>
        <time>2026-02-04T10:11:48.000Z</time>
      </trkpt>
      <trkpt lat="43.30168" lon="-1.58991">
        <ele>103</ele>
        <time>2026-02-04T10:11:52.000Z</time>
      </trkpt>
      <trkpt lat="43.30187" lon="-1.5893">
        <ele>101</ele>
        <time>2026-02-04T10:12:01.000Z</time>
      </trkpt>
      <trkpt lat="43.30198" lon="-1.58869">
        <ele>98</ele>
        <time>2026-02-04T10:12:09.000Z</time>
      </trkpt>
      <trkpt lat="43.30202" lon="-1.58832">
        <ele>96</ele>
        <time>2026-02-04T10:12:14.000Z</time>
      </trkpt>
      <trkpt lat="43.30207" lon="-1.58817">
        <ele>95</ele>
        <time>2026-02-04T10:12:16.000Z</time>
      </trkpt>
      <trkpt lat="43.30214" lon="-1.58801">
        <ele>94</ele>
        <time>2026-02-04T10:12:18.000Z</time>
      </trkpt>
      <trkpt lat="43.30259" lon="-1.58746">
        <ele>92</ele>
        <time>2026-02-04T10:12:29.000Z</time>
      </trkpt>
      <trkpt lat="43.30308" lon="-1.58693">
        <ele>91</ele>
        <time>2026-02-04T10:12:40.000Z</time>
      </trkpt>
      <trkpt lat="43.30364" lon="-1.58625">
        <ele>92</ele>
        <time>2026-02-04T10:12:54.000Z</time>
      </trkpt>
      <trkpt lat="43.30384" lon="-1.58597">
        <ele>92</ele>
        <time>2026-02-04T10:12:59.000Z</time>
      </trkpt>
      <trkpt lat="43.3039" lon="-1.58588">
        <ele>93</ele>
        <time>2026-02-04T10:13:00.000Z</time>
      </trkpt>
      <trkpt lat="43.30397" lon="-1.58569">
        <ele>93</ele>
        <time>2026-02-04T10:13:03.000Z</time>
      </trkpt>
      <trkpt lat="43.30416" lon="-1.58483">
        <ele>94</ele>
        <time>2026-02-04T10:13:15.000Z</time>
      </trkpt>
      <trkpt lat="43.30435" lon="-1.58416">
        <ele>92</ele>
        <time>2026-02-04T10:13:24.000Z</time>
      </trkpt>
      <trkpt lat="43.30472" lon="-1.58331">
        <ele>89</ele>
        <time>2026-02-04T10:13:37.000Z</time>
      </trkpt>
      <trkpt lat="43.30487" lon="-1.58302">
        <ele>89</ele>
        <time>2026-02-04T10:13:41.000Z</time>
      </trkpt>
      <trkpt lat="43.3052" lon="-1.58245">
        <ele>87</ele>
        <time>2026-02-04T10:13:51.000Z</time>
      </trkpt>
      <trkpt lat="43.30545" lon="-1.5819">
        <ele>86</ele>
        <time>2026-02-04T10:13:59.000Z</time>
      </trkpt>
      <trkpt lat="43.30556" lon="-1.58162">
        <ele>85</ele>
        <time>2026-02-04T10:14:03.000Z</time>
      </trkpt>
      <trkpt lat="43.30575" lon="-1.58092">
        <ele>85</ele>
        <time>2026-02-04T10:14:13.000Z</time>
      </trkpt>
      <trkpt lat="43.30545" lon="-1.58064">
        <ele>84</ele>
        <time>2026-02-04T10:14:19.000Z</time>
      </trkpt>
      <trkpt lat="43.30523" lon="-1.58036">
        <ele>83</ele>
        <time>2026-02-04T10:14:25.000Z</time>
      </trkpt>
      <trkpt lat="43.30488" lon="-1.5797">
        <ele>79</ele>
        <time>2026-02-04T10:14:35.000Z</time>
      </trkpt>
      <trkpt lat="43.30473" lon="-1.57948">
        <ele>78</ele>
        <time>2026-02-04T10:14:39.000Z</time>
      </trkpt>
      <trkpt lat="43.30431" lon="-1.57904">
        <ele>75</ele>
        <time>2026-02-04T10:14:49.000Z</time>
      </trkpt>
      <trkpt lat="43.3041" lon="-1.57885">
        <ele>73</ele>
        <time>2026-02-04T10:14:53.000Z</time>
      </trkpt>
      <trkpt lat="43.30368" lon="-1.57839">
        <ele>70</ele>
        <time>2026-02-04T10:15:03.000Z</time>
      </trkpt>
      <trkpt lat="43.30353" lon="-1.57815">
        <ele>69</ele>
        <time>2026-02-04T10:15:07.000Z</time>
      </trkpt>
      <trkpt lat="43.30347" lon="-1.57791">
        <ele>68</ele>
        <time>2026-02-04T10:15:10.000Z</time>
      </trkpt>
      <trkpt lat="43.30335" lon="-1.57696">
        <ele>62</ele>
        <time>2026-02-04T10:15:22.000Z</time>
      </trkpt>
      <trkpt lat="43.30324" lon="-1.57677">
        <ele>59</ele>
        <time>2026-02-04T10:15:26.000Z</time>
      </trkpt>
      <trkpt lat="43.303" lon="-1.57654">
        <ele>56</ele>
        <time>2026-02-04T10:15:31.000Z</time>
      </trkpt>
      <trkpt lat="43.30285" lon="-1.57627">
        <ele>55</ele>
        <time>2026-02-04T10:15:35.000Z</time>
      </trkpt>
      <trkpt lat="43.30262" lon="-1.57559">
        <ele>52</ele>
        <time>2026-02-04T10:15:45.000Z</time>
      </trkpt>
      <trkpt lat="43.30251" lon="-1.57494">
        <ele>50</ele>
        <time>2026-02-04T10:15:54.000Z</time>
      </trkpt>
      <trkpt lat="43.30252" lon="-1.57461">
        <ele>50</ele>
        <time>2026-02-04T10:15:58.000Z</time>
      </trkpt>
      <trkpt lat="43.30223" lon="-1.57458">
        <ele>55</ele>
        <time>2026-02-04T10:16:03.000Z</time>
      </trkpt>
      <trkpt lat="43.30215" lon="-1.57454">
        <ele>56</ele>
        <time>2026-02-04T10:16:05.000Z</time>
      </trkpt>
      <trkpt lat="43.30179" lon="-1.57407">
        <ele>54</ele>
        <time>2026-02-04T10:16:13.000Z</time>
      </trkpt>
      <trkpt lat="43.30167" lon="-1.57388">
        <ele>53</ele>
        <time>2026-02-04T10:16:17.000Z</time>
      </trkpt>
      <trkpt lat="43.30127" lon="-1.57309">
        <ele>53</ele>
        <time>2026-02-04T10:16:29.000Z</time>
      </trkpt>
      <trkpt lat="43.30114" lon="-1.57292">
        <ele>53</ele>
        <time>2026-02-04T10:16:32.000Z</time>
      </trkpt>
      <trkpt lat="43.30077" lon="-1.57259">
        <ele>51</ele>
        <time>2026-02-04T10:16:40.000Z</time>
      </trkpt>
      <trkpt lat="43.30046" lon="-1.57219">
        <ele>52</ele>
        <time>2026-02-04T10:16:48.000Z</time>
      </trkpt>
      <trkpt lat="43.30018" lon="-1.57189">
        <ele>52</ele>
        <time>2026-02-04T10:16:54.000Z</time>
      </trkpt>
      <trkpt lat="43.29996" lon="-1.57171">
        <ele>50</ele>
        <time>2026-02-04T10:16:59.000Z</time>
      </trkpt>
      <trkpt lat="43.29977" lon="-1.57164">
        <ele>50</ele>
        <time>2026-02-04T10:17:02.000Z</time>
      </trkpt>
      <trkpt lat="43.29956" lon="-1.57166">
        <ele>51</ele>
        <time>2026-02-04T10:17:06.000Z</time>
      </trkpt>
      <trkpt lat="43.29896" lon="-1.57202">
        <ele>56</ele>
        <time>2026-02-04T10:17:17.000Z</time>
      </trkpt>
      <trkpt lat="43.29866" lon="-1.5721">
        <ele>56</ele>
        <time>2026-02-04T10:17:23.000Z</time>
      </trkpt>
      <trkpt lat="43.29853" lon="-1.57218">
        <ele>56</ele>
        <time>2026-02-04T10:17:25.000Z</time>
      </trkpt>
      <trkpt lat="43.29844" lon="-1.57232">
        <ele>56</ele>
        <time>2026-02-04T10:17:28.000Z</time>
      </trkpt>
      <trkpt lat="43.29835" lon="-1.57267">
        <ele>57</ele>
        <time>2026-02-04T10:17:33.000Z</time>
      </trkpt>
      <trkpt lat="43.29828" lon="-1.57283">
        <ele>57</ele>
        <time>2026-02-04T10:17:35.000Z</time>
      </trkpt>
      <trkpt lat="43.29812" lon="-1.57304">
        <ele>57</ele>
        <time>2026-02-04T10:17:39.000Z</time>
      </trkpt>
      <trkpt lat="43.29723" lon="-1.57347">
        <ele>55</ele>
        <time>2026-02-04T10:17:56.000Z</time>
      </trkpt>
      <trkpt lat="43.29634" lon="-1.57366">
        <ele>56</ele>
        <time>2026-02-04T10:18:12.000Z</time>
      </trkpt>
      <trkpt lat="43.29611" lon="-1.57386">
        <ele>56</ele>
        <time>2026-02-04T10:18:17.000Z</time>
      </trkpt>
      <trkpt lat="43.29566" lon="-1.57447">
        <ele>56</ele>
        <time>2026-02-04T10:18:28.000Z</time>
      </trkpt>
      <trkpt lat="43.29543" lon="-1.57489">
        <ele>57</ele>
        <time>2026-02-04T10:18:35.000Z</time>
      </trkpt>
      <trkpt lat="43.29496" lon="-1.57602">
        <ele>58</ele>
        <time>2026-02-04T10:18:52.000Z</time>
      </trkpt>
      <trkpt lat="43.29479" lon="-1.57628">
        <ele>59</ele>
        <time>2026-02-04T10:18:56.000Z</time>
      </trkpt>
      <trkpt lat="43.29395" lon="-1.5772">
        <ele>65</ele>
        <time>2026-02-04T10:19:15.000Z</time>
      </trkpt>
      <trkpt lat="43.29344" lon="-1.5777">
        <ele>67</ele>
        <time>2026-02-04T10:19:26.000Z</time>
      </trkpt>
      <trkpt lat="43.29299" lon="-1.57811">
        <ele>68</ele>
        <time>2026-02-04T10:19:36.000Z</time>
      </trkpt>
      <trkpt lat="43.29245" lon="-1.57844">
        <ele>66</ele>
        <time>2026-02-04T10:19:47.000Z</time>
      </trkpt>
      <trkpt lat="43.29177" lon="-1.57898">
        <ele>65</ele>
        <time>2026-02-04T10:20:00.000Z</time>
      </trkpt>
      <trkpt lat="43.29157" lon="-1.57909">
        <ele>63</ele>
        <time>2026-02-04T10:20:04.000Z</time>
      </trkpt>
      <trkpt lat="43.29048" lon="-1.57926">
        <ele>65</ele>
        <time>2026-02-04T10:20:24.000Z</time>
      </trkpt>
      <trkpt lat="43.29031" lon="-1.57936">
        <ele>65</ele>
        <time>2026-02-04T10:20:27.000Z</time>
      </trkpt>
      <trkpt lat="43.28885" lon="-1.58043">
        <ele>69</ele>
        <time>2026-02-04T10:20:57.000Z</time>
      </trkpt>
      <trkpt lat="43.28851" lon="-1.58062">
        <ele>70</ele>
        <time>2026-02-04T10:21:03.000Z</time>
      </trkpt>
      <trkpt lat="43.28784" lon="-1.58093">
        <ele>72</ele>
        <time>2026-02-04T10:21:16.000Z</time>
      </trkpt>
      <trkpt lat="43.28737" lon="-1.58121">
        <ele>74</ele>
        <time>2026-02-04T10:21:25.000Z</time>
      </trkpt>
      <trkpt lat="43.28706" lon="-1.58158">
        <ele>75</ele>
        <time>2026-02-04T10:21:32.000Z</time>
      </trkpt>
      <trkpt lat="43.28648" lon="-1.58243">
        <ele>77</ele>
        <time>2026-02-04T10:21:47.000Z</time>
      </trkpt>
      <trkpt lat="43.28527" lon="-1.58436">
        <ele>76</ele>
        <time>2026-02-04T10:22:20.000Z</time>
      </trkpt>
      <trkpt lat="43.285" lon="-1.58408">
        <ele>76</ele>
        <time>2026-02-04T10:22:26.000Z</time>
      </trkpt>
      <trkpt lat="43.28437" lon="-1.58387">
        <ele>81</ele>
        <time>2026-02-04T10:22:38.000Z</time>
      </trkpt>
      <trkpt lat="43.28408" lon="-1.58377">
        <ele>83</ele>
        <time>2026-02-04T10:22:43.000Z</time>
      </trkpt>
      <trkpt lat="43.28347" lon="-1.58369">
        <ele>87</ele>
        <time>2026-02-04T10:22:54.000Z</time>
      </trkpt>
      <trkpt lat="43.28318" lon="-1.58331">
        <ele>85</ele>
        <time>2026-02-04T10:23:01.000Z</time>
      </trkpt>
      <trkpt lat="43.28284" lon="-1.58298">
        <ele>87</ele>
        <time>2026-02-04T10:23:09.000Z</time>
      </trkpt>
      <trkpt lat="43.28269" lon="-1.58278">
        <ele>88</ele>
        <time>2026-02-04T10:23:12.000Z</time>
      </trkpt>
      <trkpt lat="43.28255" lon="-1.58252">
        <ele>88</ele>
        <time>2026-02-04T10:23:16.000Z</time>
      </trkpt>
      <trkpt lat="43.28252" lon="-1.58232">
        <ele>89</ele>
        <time>2026-02-04T10:23:19.000Z</time>
      </trkpt>
      <trkpt lat="43.28249" lon="-1.58169">
        <ele>94</ele>
        <time>2026-02-04T10:23:27.000Z</time>
      </trkpt>
      <trkpt lat="43.28241" lon="-1.58146">
        <ele>97</ele>
        <time>2026-02-04T10:23:31.000Z</time>
      </trkpt>
      <trkpt lat="43.28187" lon="-1.58041">
        <ele>102</ele>
        <time>2026-02-04T10:23:47.000Z</time>
      </trkpt>
      <trkpt lat="43.2816" lon="-1.57937">
        <ele>105</ele>
        <time>2026-02-04T10:24:01.000Z</time>
      </trkpt>
      <trkpt lat="43.28061" lon="-1.57774">
        <ele>106</ele>
        <time>2026-02-04T10:24:29.000Z</time>
      </trkpt>
      <trkpt lat="43.28026" lon="-1.57699">
        <ele>110</ele>
        <time>2026-02-04T10:24:41.000Z</time>
      </trkpt>
      <trkpt lat="43.28006" lon="-1.57669">
        <ele>112</ele>
        <time>2026-02-04T10:24:46.000Z</time>
      </trkpt>
      <trkpt lat="43.27903" lon="-1.57554">
        <ele>118</ele>
        <time>2026-02-04T10:25:09.000Z</time>
      </trkpt>
      <trkpt lat="43.27809" lon="-1.57449">
        <ele>123</ele>
        <time>2026-02-04T10:25:31.000Z</time>
      </trkpt>
      <trkpt lat="43.27699" lon="-1.57406">
        <ele>131</ele>
        <time>2026-02-04T10:25:51.000Z</time>
      </trkpt>
      <trkpt lat="43.2757" lon="-1.57332">
        <ele>141</ele>
        <time>2026-02-04T10:26:16.000Z</time>
      </trkpt>
      <trkpt lat="43.27432" lon="-1.57289">
        <ele>145</ele>
        <time>2026-02-04T10:26:41.000Z</time>
      </trkpt>
      <trkpt lat="43.27361" lon="-1.57273">
        <ele>149</ele>
        <time>2026-02-04T10:26:54.000Z</time>
      </trkpt>
      <trkpt lat="43.27366" lon="-1.57265">
        <ele>148</ele>
        <time>2026-02-04T10:26:56.000Z</time>
      </trkpt>
      <trkpt lat="43.27381" lon="-1.57259">
        <ele>147</ele>
        <time>2026-02-04T10:26:58.000Z</time>
      </trkpt>
      <trkpt lat="43.27424" lon="-1.57253">
        <ele>144</ele>
        <time>2026-02-04T10:27:06.000Z</time>
      </trkpt>
      <trkpt lat="43.27434" lon="-1.57248">
        <ele>144</ele>
        <time>2026-02-04T10:27:08.000Z</time>
      </trkpt>
      <trkpt lat="43.27445" lon="-1.57227">
        <ele>143</ele>
        <time>2026-02-04T10:27:11.000Z</time>
      </trkpt>
      <trkpt lat="43.27463" lon="-1.572">
        <ele>143</ele>
        <time>2026-02-04T10:27:16.000Z</time>
      </trkpt>
      <trkpt lat="43.27478" lon="-1.57191">
        <ele>143</ele>
        <time>2026-02-04T10:27:19.000Z</time>
      </trkpt>
      <trkpt lat="43.27515" lon="-1.5718">
        <ele>143</ele>
        <time>2026-02-04T10:27:26.000Z</time>
      </trkpt>
      <trkpt lat="43.27526" lon="-1.57174">
        <ele>144</ele>
        <time>2026-02-04T10:27:28.000Z</time>
      </trkpt>
      <trkpt lat="43.27536" lon="-1.57164">
        <ele>145</ele>
        <time>2026-02-04T10:27:30.000Z</time>
      </trkpt>
      <trkpt lat="43.27562" lon="-1.57108">
        <ele>145</ele>
        <time>2026-02-04T10:27:39.000Z</time>
      </trkpt>
      <trkpt lat="43.27573" lon="-1.57098">
        <ele>144</ele>
        <time>2026-02-04T10:27:41.000Z</time>
      </trkpt>
      <trkpt lat="43.27597" lon="-1.57089">
        <ele>144</ele>
        <time>2026-02-04T10:27:45.000Z</time>
      </trkpt>
      <trkpt lat="43.27611" lon="-1.57087">
        <ele>144</ele>
        <time>2026-02-04T10:27:48.000Z</time>
      </trkpt>
      <trkpt lat="43.2765" lon="-1.5709">
        <ele>145</ele>
        <time>2026-02-04T10:27:55.000Z</time>
      </trkpt>
      <trkpt lat="43.27671" lon="-1.57099">
        <ele>146</ele>
        <time>2026-02-04T10:27:59.000Z</time>
      </trkpt>
      <trkpt lat="43.2769" lon="-1.57109">
        <ele>149</ele>
        <time>2026-02-04T10:28:02.000Z</time>
      </trkpt>
      <trkpt lat="43.27702" lon="-1.57118">
        <ele>150</ele>
        <time>2026-02-04T10:28:05.000Z</time>
      </trkpt>
      <trkpt lat="43.27759" lon="-1.57202">
        <ele>154</ele>
        <time>2026-02-04T10:28:20.000Z</time>
      </trkpt>
      <trkpt lat="43.2777" lon="-1.57215">
        <ele>153</ele>
        <time>2026-02-04T10:28:22.000Z</time>
      </trkpt>
      <trkpt lat="43.27839" lon="-1.57243">
        <ele>153</ele>
        <time>2026-02-04T10:28:35.000Z</time>
      </trkpt>
      <trkpt lat="43.27911" lon="-1.57279">
        <ele>153</ele>
        <time>2026-02-04T10:28:49.000Z</time>
      </trkpt>
      <trkpt lat="43.27926" lon="-1.5728">
        <ele>152</ele>
        <time>2026-02-04T10:28:51.000Z</time>
      </trkpt>
      <trkpt lat="43.27961" lon="-1.57278">
        <ele>151</ele>
        <time>2026-02-04T10:28:58.000Z</time>
      </trkpt>
      <trkpt lat="43.28073" lon="-1.57236">
        <ele>148</ele>
        <time>2026-02-04T10:29:18.000Z</time>
      </trkpt>
      <trkpt lat="43.28095" lon="-1.57225">
        <ele>146</ele>
        <time>2026-02-04T10:29:22.000Z</time>
      </trkpt>
      <trkpt lat="43.28112" lon="-1.57211">
        <ele>145</ele>
        <time>2026-02-04T10:29:26.000Z</time>
      </trkpt>
      <trkpt lat="43.28155" lon="-1.57172">
        <ele>142</ele>
        <time>2026-02-04T10:29:35.000Z</time>
      </trkpt>
      <trkpt lat="43.28229" lon="-1.57119">
        <ele>131</ele>
        <time>2026-02-04T10:29:50.000Z</time>
      </trkpt>
      <trkpt lat="43.28312" lon="-1.57053">
        <ele>126</ele>
        <time>2026-02-04T10:30:07.000Z</time>
      </trkpt>
      <trkpt lat="43.2833" lon="-1.57041">
        <ele>125</ele>
        <time>2026-02-04T10:30:11.000Z</time>
      </trkpt>
      <trkpt lat="43.28345" lon="-1.57035">
        <ele>125</ele>
        <time>2026-02-04T10:30:13.000Z</time>
      </trkpt>
      <trkpt lat="43.28359" lon="-1.57032">
        <ele>124</ele>
        <time>2026-02-04T10:30:16.000Z</time>
      </trkpt>
      <trkpt lat="43.28411" lon="-1.57038">
        <ele>122</ele>
        <time>2026-02-04T10:30:25.000Z</time>
      </trkpt>
      <trkpt lat="43.28474" lon="-1.57047">
        <ele>116</ele>
        <time>2026-02-04T10:30:36.000Z</time>
      </trkpt>
      <trkpt lat="43.28531" lon="-1.57047">
        <ele>112</ele>
        <time>2026-02-04T10:30:47.000Z</time>
      </trkpt>
      <trkpt lat="43.28584" lon="-1.57038">
        <ele>111</ele>
        <time>2026-02-04T10:30:56.000Z</time>
      </trkpt>
      <trkpt lat="43.28673" lon="-1.57013">
        <ele>105</ele>
        <time>2026-02-04T10:31:12.000Z</time>
      </trkpt>
      <trkpt lat="43.28683" lon="-1.57008">
        <ele>104</ele>
        <time>2026-02-04T10:31:14.000Z</time>
      </trkpt>
      <trkpt lat="43.287" lon="-1.56995">
        <ele>104</ele>
        <time>2026-02-04T10:31:18.000Z</time>
      </trkpt>
      <trkpt lat="43.28711" lon="-1.56989">
        <ele>103</ele>
        <time>2026-02-04T10:31:20.000Z</time>
      </trkpt>
      <trkpt lat="43.28774" lon="-1.56974">
        <ele>102</ele>
        <time>2026-02-04T10:31:31.000Z</time>
      </trkpt>
      <trkpt lat="43.28815" lon="-1.56952">
        <ele>103</ele>
        <time>2026-02-04T10:31:39.000Z</time>
      </trkpt>
      <trkpt lat="43.28828" lon="-1.56948">
        <ele>103</ele>
        <time>2026-02-04T10:31:41.000Z</time>
      </trkpt>
      <trkpt lat="43.28844" lon="-1.56947">
        <ele>102</ele>
        <time>2026-02-04T10:31:44.000Z</time>
      </trkpt>
      <trkpt lat="43.28854" lon="-1.56949">
        <ele>102</ele>
        <time>2026-02-04T10:31:46.000Z</time>
      </trkpt>
      <trkpt lat="43.28885" lon="-1.56965">
        <ele>103</ele>
        <time>2026-02-04T10:31:52.000Z</time>
      </trkpt>
      <trkpt lat="43.28938" lon="-1.56996">
        <ele>104</ele>
        <time>2026-02-04T10:32:02.000Z</time>
      </trkpt>
      <trkpt lat="43.28956" lon="-1.5701">
        <ele>103</ele>
        <time>2026-02-04T10:32:06.000Z</time>
      </trkpt>
      <trkpt lat="43.28982" lon="-1.57039">
        <ele>103</ele>
        <time>2026-02-04T10:32:12.000Z</time>
      </trkpt>
      <trkpt lat="43.29003" lon="-1.57049">
        <ele>102</ele>
        <time>2026-02-04T10:32:16.000Z</time>
      </trkpt>
      <trkpt lat="43.29014" lon="-1.57049">
        <ele>102</ele>
        <time>2026-02-04T10:32:18.000Z</time>
      </trkpt>
      <trkpt lat="43.29021" lon="-1.57046">
        <ele>102</ele>
        <time>2026-02-04T10:32:19.000Z</time>
      </trkpt>
      <trkpt lat="43.29044" lon="-1.57026">
        <ele>101</ele>
        <time>2026-02-04T10:32:24.000Z</time>
      </trkpt>
      <trkpt lat="43.29052" lon="-1.57021">
        <ele>101</ele>
        <time>2026-02-04T10:32:25.000Z</time>
      </trkpt>
      <trkpt lat="43.29075" lon="-1.57025">
        <ele>100</ele>
        <time>2026-02-04T10:32:29.000Z</time>
      </trkpt>
      <trkpt lat="43.29097" lon="-1.57022">
        <ele>101</ele>
        <time>2026-02-04T10:32:33.000Z</time>
      </trkpt>
      <trkpt lat="43.29106" lon="-1.57019">
        <ele>101</ele>
        <time>2026-02-04T10:32:35.000Z</time>
      </trkpt>
      <trkpt lat="43.2913" lon="-1.56999">
        <ele>102</ele>
        <time>2026-02-04T10:32:40.000Z</time>
      </trkpt>
      <trkpt lat="43.29183" lon="-1.56962">
        <ele>100</ele>
        <time>2026-02-04T10:32:51.000Z</time>
      </trkpt>
      <trkpt lat="43.29224" lon="-1.5694">
        <ele>99</ele>
        <time>2026-02-04T10:32:58.000Z</time>
      </trkpt>
      <trkpt lat="43.29245" lon="-1.56935">
        <ele>99</ele>
        <time>2026-02-04T10:33:02.000Z</time>
      </trkpt>
      <trkpt lat="43.29255" lon="-1.56935">
        <ele>99</ele>
        <time>2026-02-04T10:33:04.000Z</time>
      </trkpt>
      <trkpt lat="43.29305" lon="-1.56945">
        <ele>96</ele>
        <time>2026-02-04T10:33:13.000Z</time>
      </trkpt>
      <trkpt lat="43.29319" lon="-1.56946">
        <ele>96</ele>
        <time>2026-02-04T10:33:15.000Z</time>
      </trkpt>
      <trkpt lat="43.29331" lon="-1.56945">
        <ele>95</ele>
        <time>2026-02-04T10:33:18.000Z</time>
      </trkpt>
      <trkpt lat="43.29449" lon="-1.56884">
        <ele>86</ele>
        <time>2026-02-04T10:33:40.000Z</time>
      </trkpt>
      <trkpt lat="43.29472" lon="-1.56878">
        <ele>85</ele>
        <time>2026-02-04T10:33:44.000Z</time>
      </trkpt>
      <trkpt lat="43.29509" lon="-1.56873">
        <ele>83</ele>
        <time>2026-02-04T10:33:51.000Z</time>
      </trkpt>
      <trkpt lat="43.29542" lon="-1.56859">
        <ele>77</ele>
        <time>2026-02-04T10:33:57.000Z</time>
      </trkpt>
      <trkpt lat="43.29569" lon="-1.56856">
        <ele>74</ele>
        <time>2026-02-04T10:34:02.000Z</time>
      </trkpt>
      <trkpt lat="43.29583" lon="-1.56859">
        <ele>73</ele>
        <time>2026-02-04T10:34:04.000Z</time>
      </trkpt>
      <trkpt lat="43.29678" lon="-1.56915">
        <ele>66</ele>
        <time>2026-02-04T10:34:23.000Z</time>
      </trkpt>
      <trkpt lat="43.29708" lon="-1.56927">
        <ele>63</ele>
        <time>2026-02-04T10:34:28.000Z</time>
      </trkpt>
      <trkpt lat="43.29737" lon="-1.56949">
        <ele>60</ele>
        <time>2026-02-04T10:34:34.000Z</time>
      </trkpt>
      <trkpt lat="43.29761" lon="-1.56977">
        <ele>58</ele>
        <time>2026-02-04T10:34:40.000Z</time>
      </trkpt>
      <trkpt lat="43.29783" lon="-1.57019">
        <ele>57</ele>
        <time>2026-02-04T10:34:46.000Z</time>
      </trkpt>
      <trkpt lat="43.29794" lon="-1.57029">
        <ele>56</ele>
        <time>2026-02-04T10:34:49.000Z</time>
      </trkpt>
      <trkpt lat="43.29807" lon="-1.57037">
        <ele>55</ele>
        <time>2026-02-04T10:34:51.000Z</time>
      </trkpt>
      <trkpt lat="43.29819" lon="-1.57042">
        <ele>54</ele>
        <time>2026-02-04T10:34:54.000Z</time>
      </trkpt>
      <trkpt lat="43.29829" lon="-1.57044">
        <ele>53</ele>
        <time>2026-02-04T10:34:55.000Z</time>
      </trkpt>
      <trkpt lat="43.29841" lon="-1.57042">
        <ele>52</ele>
        <time>2026-02-04T10:34:58.000Z</time>
      </trkpt>
      <trkpt lat="43.29903" lon="-1.57021">
        <ele>50</ele>
        <time>2026-02-04T10:35:09.000Z</time>
      </trkpt>
      <trkpt lat="43.29905" lon="-1.57026">
        <ele>50</ele>
        <time>2026-02-04T10:35:10.000Z</time>
      </trkpt>
      <trkpt lat="43.29909" lon="-1.57038">
        <ele>50</ele>
        <time>2026-02-04T10:35:11.000Z</time>
      </trkpt>
      <trkpt lat="43.29957" lon="-1.57133">
        <ele>50</ele>
        <time>2026-02-04T10:35:26.000Z</time>
      </trkpt>
      <trkpt lat="43.29977" lon="-1.57164">
        <ele>50</ele>
        <time>2026-02-04T10:35:32.000Z</time>
      </trkpt>
      <trkpt lat="43.29996" lon="-1.57171">
        <ele>50</ele>
        <time>2026-02-04T10:35:35.000Z</time>
      </trkpt>
      <trkpt lat="43.30022" lon="-1.57193">
        <ele>52</ele>
        <time>2026-02-04T10:35:41.000Z</time>
      </trkpt>
      <trkpt lat="43.30046" lon="-1.57219">
        <ele>52</ele>
        <time>2026-02-04T10:35:46.000Z</time>
      </trkpt>
      <trkpt lat="43.30077" lon="-1.57259">
        <ele>51</ele>
        <time>2026-02-04T10:35:54.000Z</time>
      </trkpt>
      <trkpt lat="43.30114" lon="-1.57292">
        <ele>53</ele>
        <time>2026-02-04T10:36:01.000Z</time>
      </trkpt>
      <trkpt lat="43.30127" lon="-1.57309">
        <ele>53</ele>
        <time>2026-02-04T10:36:05.000Z</time>
      </trkpt>
      <trkpt lat="43.30167" lon="-1.57388">
        <ele>53</ele>
        <time>2026-02-04T10:36:17.000Z</time>
      </trkpt>
      <trkpt lat="43.30176" lon="-1.57403">
        <ele>54</ele>
        <time>2026-02-04T10:36:20.000Z</time>
      </trkpt>
      <trkpt lat="43.3021" lon="-1.57449">
        <ele>56</ele>
        <time>2026-02-04T10:36:28.000Z</time>
      </trkpt>
      <trkpt lat="43.30215" lon="-1.57454">
        <ele>56</ele>
        <time>2026-02-04T10:36:29.000Z</time>
      </trkpt>
      <trkpt lat="43.30223" lon="-1.57458">
        <ele>55</ele>
        <time>2026-02-04T10:36:31.000Z</time>
      </trkpt>
      <trkpt lat="43.30252" lon="-1.57461">
        <ele>50</ele>
        <time>2026-02-04T10:36:36.000Z</time>
      </trkpt>
      <trkpt lat="43.30267" lon="-1.57461">
        <ele>51</ele>
        <time>2026-02-04T10:36:39.000Z</time>
      </trkpt>
      <trkpt lat="43.30303" lon="-1.57455">
        <ele>53</ele>
        <time>2026-02-04T10:36:45.000Z</time>
      </trkpt>
      <trkpt lat="43.30313" lon="-1.57448">
        <ele>53</ele>
        <time>2026-02-04T10:36:47.000Z</time>
      </trkpt>
      <trkpt lat="43.30329" lon="-1.57434">
        <ele>53</ele>
        <time>2026-02-04T10:36:50.000Z</time>
      </trkpt>
      <trkpt lat="43.30367" lon="-1.57388">
        <ele>52</ele>
        <time>2026-02-04T10:36:59.000Z</time>
      </trkpt>
      <trkpt lat="43.30399" lon="-1.57356">
        <ele>50</ele>
        <time>2026-02-04T10:37:06.000Z</time>
      </trkpt>
      <trkpt lat="43.30416" lon="-1.57342">
        <ele>48</ele>
        <time>2026-02-04T10:37:10.000Z</time>
      </trkpt>
      <trkpt lat="43.30479" lon="-1.57306">
        <ele>50</ele>
        <time>2026-02-04T10:37:22.000Z</time>
      </trkpt>
      <trkpt lat="43.30509" lon="-1.57281">
        <ele>49</ele>
        <time>2026-02-04T10:37:28.000Z</time>
      </trkpt>
      <trkpt lat="43.30576" lon="-1.57247">
        <ele>45</ele>
        <time>2026-02-04T10:37:41.000Z</time>
      </trkpt>
      <trkpt lat="43.30596" lon="-1.57239">
        <ele>45</ele>
        <time>2026-02-04T10:37:45.000Z</time>
      </trkpt>
      <trkpt lat="43.30646" lon="-1.57239">
        <ele>45</ele>
        <time>2026-02-04T10:37:54.000Z</time>
      </trkpt>
      <trkpt lat="43.30667" lon="-1.57243">
        <ele>45</ele>
        <time>2026-02-04T10:37:57.000Z</time>
      </trkpt>
      <trkpt lat="43.30718" lon="-1.57268">
        <ele>47</ele>
        <time>2026-02-04T10:38:07.000Z</time>
      </trkpt>
      <trkpt lat="43.30732" lon="-1.57272">
        <ele>47</ele>
        <time>2026-02-04T10:38:10.000Z</time>
      </trkpt>
      <trkpt lat="43.30747" lon="-1.57272">
        <ele>48</ele>
        <time>2026-02-04T10:38:12.000Z</time>
      </trkpt>
      <trkpt lat="43.30782" lon="-1.57268">
        <ele>48</ele>
        <time>2026-02-04T10:38:19.000Z</time>
      </trkpt>
      <trkpt lat="43.30792" lon="-1.57267">
        <ele>48</ele>
        <time>2026-02-04T10:38:20.000Z</time>
      </trkpt>
      <trkpt lat="43.30864" lon="-1.57271">
        <ele>48</ele>
        <time>2026-02-04T10:38:33.000Z</time>
      </trkpt>
      <trkpt lat="43.30882" lon="-1.57267">
        <ele>48</ele>
        <time>2026-02-04T10:38:36.000Z</time>
      </trkpt>
      <trkpt lat="43.30943" lon="-1.57239">
        <ele>47</ele>
        <time>2026-02-04T10:38:48.000Z</time>
      </trkpt>
      <trkpt lat="43.30952" lon="-1.57225">
        <ele>47</ele>
        <time>2026-02-04T10:38:50.000Z</time>
      </trkpt>
      <trkpt lat="43.30953" lon="-1.57219">
        <ele>47</ele>
        <time>2026-02-04T10:38:51.000Z</time>
      </trkpt>
      <trkpt lat="43.30968" lon="-1.57201">
        <ele>47</ele>
        <time>2026-02-04T10:38:55.000Z</time>
      </trkpt>
      <trkpt lat="43.3098" lon="-1.57165">
        <ele>47</ele>
        <time>2026-02-04T10:39:00.000Z</time>
      </trkpt>
      <trkpt lat="43.30987" lon="-1.57138">
        <ele>48</ele>
        <time>2026-02-04T10:39:03.000Z</time>
      </trkpt>
      <trkpt lat="43.30989" lon="-1.57111">
        <ele>49</ele>
        <time>2026-02-04T10:39:07.000Z</time>
      </trkpt>
      <trkpt lat="43.30988" lon="-1.57086">
        <ele>49</ele>
        <time>2026-02-04T10:39:10.000Z</time>
      </trkpt>
      <trkpt lat="43.30984" lon="-1.57075">
        <ele>50</ele>
        <time>2026-02-04T10:39:12.000Z</time>
      </trkpt>
      <trkpt lat="43.30978" lon="-1.57064">
        <ele>50</ele>
        <time>2026-02-04T10:39:14.000Z</time>
      </trkpt>
      <trkpt lat="43.30952" lon="-1.57024">
        <ele>50</ele>
        <time>2026-02-04T10:39:20.000Z</time>
      </trkpt>
      <trkpt lat="43.30933" lon="-1.56976">
        <ele>50</ele>
        <time>2026-02-04T10:39:28.000Z</time>
      </trkpt>
      <trkpt lat="43.30921" lon="-1.56933">
        <ele>51</ele>
        <time>2026-02-04T10:39:34.000Z</time>
      </trkpt>
      <trkpt lat="43.30918" lon="-1.56908">
        <ele>51</ele>
        <time>2026-02-04T10:39:37.000Z</time>
      </trkpt>
      <trkpt lat="43.30919" lon="-1.56885">
        <ele>50</ele>
        <time>2026-02-04T10:39:40.000Z</time>
      </trkpt>
      <trkpt lat="43.30918" lon="-1.56908">
        <ele>51</ele>
        <time>2026-02-04T10:39:43.000Z</time>
      </trkpt>
      <trkpt lat="43.30921" lon="-1.56933">
        <ele>51</ele>
        <time>2026-02-04T10:39:46.000Z</time>
      </trkpt>
      <trkpt lat="43.30933" lon="-1.56976">
        <ele>50</ele>
        <time>2026-02-04T10:39:52.000Z</time>
      </trkpt>
      <trkpt lat="43.30952" lon="-1.57024">
        <ele>50</ele>
        <time>2026-02-04T10:39:59.000Z</time>
      </trkpt>
      <trkpt lat="43.30978" lon="-1.57064">
        <ele>50</ele>
        <time>2026-02-04T10:40:06.000Z</time>
      </trkpt>
      <trkpt lat="43.30984" lon="-1.57075">
        <ele>50</ele>
        <time>2026-02-04T10:40:08.000Z</time>
      </trkpt>
      <trkpt lat="43.30988" lon="-1.57086">
        <ele>49</ele>
        <time>2026-02-04T10:40:09.000Z</time>
      </trkpt>
      <trkpt lat="43.30989" lon="-1.57111">
        <ele>49</ele>
        <time>2026-02-04T10:40:13.000Z</time>
      </trkpt>
      <trkpt lat="43.30987" lon="-1.57138">
        <ele>48</ele>
        <time>2026-02-04T10:40:16.000Z</time>
      </trkpt>
      <trkpt lat="43.3098" lon="-1.57165">
        <ele>47</ele>
        <time>2026-02-04T10:40:20.000Z</time>
      </trkpt>
      <trkpt lat="43.30968" lon="-1.57201">
        <ele>47</ele>
        <time>2026-02-04T10:40:25.000Z</time>
      </trkpt>
      <trkpt lat="43.30967" lon="-1.57219">
        <ele>47</ele>
        <time>2026-02-04T10:40:27.000Z</time>
      </trkpt>
      <trkpt lat="43.30968" lon="-1.57222">
        <ele>47</ele>
        <time>2026-02-04T10:40:28.000Z</time>
      </trkpt>
      <trkpt lat="43.30976" lon="-1.5723">
        <ele>48</ele>
        <time>2026-02-04T10:40:30.000Z</time>
      </trkpt>
      <trkpt lat="43.31007" lon="-1.57234">
        <ele>48</ele>
        <time>2026-02-04T10:40:35.000Z</time>
      </trkpt>
      <trkpt lat="43.3105" lon="-1.57243">
        <ele>46</ele>
        <time>2026-02-04T10:40:43.000Z</time>
      </trkpt>
      <trkpt lat="43.31078" lon="-1.57256">
        <ele>44</ele>
        <time>2026-02-04T10:40:48.000Z</time>
      </trkpt>
      <trkpt lat="43.31095" lon="-1.57271">
        <ele>45</ele>
        <time>2026-02-04T10:40:52.000Z</time>
      </trkpt>
      <trkpt lat="43.31221" lon="-1.57392">
        <ele>51</ele>
        <time>2026-02-04T10:41:19.000Z</time>
      </trkpt>
      <trkpt lat="43.31256" lon="-1.57422">
        <ele>51</ele>
        <time>2026-02-04T10:41:26.000Z</time>
      </trkpt>
      <trkpt lat="43.31333" lon="-1.57478">
        <ele>53</ele>
        <time>2026-02-04T10:41:42.000Z</time>
      </trkpt>
      <trkpt lat="43.31351" lon="-1.57496">
        <ele>53</ele>
        <time>2026-02-04T10:41:46.000Z</time>
      </trkpt>
      <trkpt lat="43.31359" lon="-1.57506">
        <ele>54</ele>
        <time>2026-02-04T10:41:48.000Z</time>
      </trkpt>
      <trkpt lat="43.31369" lon="-1.57529">
        <ele>55</ele>
        <time>2026-02-04T10:41:51.000Z</time>
      </trkpt>
      <trkpt lat="43.31382" lon="-1.5757">
        <ele>56</ele>
        <time>2026-02-04T10:41:57.000Z</time>
      </trkpt>
      <trkpt lat="43.3144" lon="-1.57773">
        <ele>61</ele>
        <time>2026-02-04T10:42:25.000Z</time>
      </trkpt>
      <trkpt lat="43.31454" lon="-1.57825">
        <ele>63</ele>
        <time>2026-02-04T10:42:32.000Z</time>
      </trkpt>
      <trkpt lat="43.31459" lon="-1.57827">
        <ele>63</ele>
        <time>2026-02-04T10:42:33.000Z</time>
      </trkpt>
      <trkpt lat="43.31475" lon="-1.57826">
        <ele>62</ele>
        <time>2026-02-04T10:42:36.000Z</time>
      </trkpt>
      <trkpt lat="43.31509" lon="-1.57831">
        <ele>61</ele>
        <time>2026-02-04T10:42:42.000Z</time>
      </trkpt>
      <trkpt lat="43.31535" lon="-1.57834">
        <ele>60</ele>
        <time>2026-02-04T10:42:47.000Z</time>
      </trkpt>
      <trkpt lat="43.31579" lon="-1.57815">
        <ele>58</ele>
        <time>2026-02-04T10:42:55.000Z</time>
      </trkpt>
      <trkpt lat="43.31652" lon="-1.57773">
        <ele>58</ele>
        <time>2026-02-04T10:43:09.000Z</time>
      </trkpt>
      <trkpt lat="43.31659" lon="-1.57774">
        <ele>58</ele>
        <time>2026-02-04T10:43:10.000Z</time>
      </trkpt>
      <trkpt lat="43.31664" lon="-1.57778">
        <ele>58</ele>
        <time>2026-02-04T10:43:11.000Z</time>
      </trkpt>
      <trkpt lat="43.31669" lon="-1.57784">
        <ele>58</ele>
        <time>2026-02-04T10:43:13.000Z</time>
      </trkpt>
      <trkpt lat="43.31688" lon="-1.5783">
        <ele>58</ele>
        <time>2026-02-04T10:43:20.000Z</time>
      </trkpt>
      <trkpt lat="43.317" lon="-1.57847">
        <ele>58</ele>
        <time>2026-02-04T10:43:23.000Z</time>
      </trkpt>
      <trkpt lat="43.31711" lon="-1.57858">
        <ele>59</ele>
        <time>2026-02-04T10:43:25.000Z</time>
      </trkpt>
      <trkpt lat="43.31725" lon="-1.57865">
        <ele>59</ele>
        <time>2026-02-04T10:43:28.000Z</time>
      </trkpt>
      <trkpt lat="43.31791" lon="-1.57884">
        <ele>61</ele>
        <time>2026-02-04T10:43:40.000Z</time>
      </trkpt>
      <trkpt lat="43.3181" lon="-1.57886">
        <ele>61</ele>
        <time>2026-02-04T10:43:43.000Z</time>
      </trkpt>
      <trkpt lat="43.31855" lon="-1.57897">
        <ele>62</ele>
        <time>2026-02-04T10:43:51.000Z</time>
      </trkpt>
      <trkpt lat="43.31874" lon="-1.57896">
        <ele>63</ele>
        <time>2026-02-04T10:43:55.000Z</time>
      </trkpt>
      <trkpt lat="43.31888" lon="-1.57892">
        <ele>63</ele>
        <time>2026-02-04T10:43:57.000Z</time>
      </trkpt>
      <trkpt lat="43.31906" lon="-1.5788">
        <ele>63</ele>
        <time>2026-02-04T10:44:01.000Z</time>
      </trkpt>
      <trkpt lat="43.31941" lon="-1.57845">
        <ele>67</ele>
        <time>2026-02-04T10:44:08.000Z</time>
      </trkpt>
      <trkpt lat="43.31974" lon="-1.57817">
        <ele>69</ele>
        <time>2026-02-04T10:44:15.000Z</time>
      </trkpt>
      <trkpt lat="43.31991" lon="-1.57807">
        <ele>70</ele>
        <time>2026-02-04T10:44:19.000Z</time>
      </trkpt>
      <trkpt lat="43.32014" lon="-1.57792">
        <ele>69</ele>
        <time>2026-02-04T10:44:23.000Z</time>
      </trkpt>
      <trkpt lat="43.32061" lon="-1.57781">
        <ele>68</ele>
        <time>2026-02-04T10:44:32.000Z</time>
      </trkpt>
      <trkpt lat="43.32092" lon="-1.578">
        <ele>73</ele>
        <time>2026-02-04T10:44:38.000Z</time>
      </trkpt>
      <trkpt lat="43.32131" lon="-1.57844">
        <ele>76</ele>
        <time>2026-02-04T10:44:47.000Z</time>
      </trkpt>
      <trkpt lat="43.32152" lon="-1.57889">
        <ele>76</ele>
        <time>2026-02-04T10:44:53.000Z</time>
      </trkpt>
      <trkpt lat="43.32161" lon="-1.57896">
        <ele>74</ele>
        <time>2026-02-04T10:44:55.000Z</time>
      </trkpt>
      <trkpt lat="43.32182" lon="-1.57915">
        <ele>73</ele>
        <time>2026-02-04T10:45:00.000Z</time>
      </trkpt>
      <trkpt lat="43.32209" lon="-1.57925">
        <ele>71</ele>
        <time>2026-02-04T10:45:05.000Z</time>
      </trkpt>
      <trkpt lat="43.32265" lon="-1.57916">
        <ele>69</ele>
        <time>2026-02-04T10:45:15.000Z</time>
      </trkpt>
      <trkpt lat="43.32272" lon="-1.57918">
        <ele>70</ele>
        <time>2026-02-04T10:45:16.000Z</time>
      </trkpt>
      <trkpt lat="43.32301" lon="-1.58034">
        <ele>72</ele>
        <time>2026-02-04T10:45:32.000Z</time>
      </trkpt>
      <trkpt lat="43.32304" lon="-1.58052">
        <ele>72</ele>
        <time>2026-02-04T10:45:34.000Z</time>
      </trkpt>
      <trkpt lat="43.32303" lon="-1.58077">
        <ele>73</ele>
        <time>2026-02-04T10:45:38.000Z</time>
      </trkpt>
      <trkpt lat="43.32295" lon="-1.5818">
        <ele>77</ele>
        <time>2026-02-04T10:45:51.000Z</time>
      </trkpt>
      <trkpt lat="43.32296" lon="-1.58205">
        <ele>78</ele>
        <time>2026-02-04T10:45:54.000Z</time>
      </trkpt>
      <trkpt lat="43.32318" lon="-1.58338">
        <ele>83</ele>
        <time>2026-02-04T10:46:12.000Z</time>
      </trkpt>
      <trkpt lat="43.32328" lon="-1.58386">
        <ele>84</ele>
        <time>2026-02-04T10:46:18.000Z</time>
      </trkpt>
      <trkpt lat="43.32339" lon="-1.58409">
        <ele>85</ele>
        <time>2026-02-04T10:46:22.000Z</time>
      </trkpt>
      <trkpt lat="43.32346" lon="-1.58419">
        <ele>85</ele>
        <time>2026-02-04T10:46:24.000Z</time>
      </trkpt>
      <trkpt lat="43.32355" lon="-1.58428">
        <ele>86</ele>
        <time>2026-02-04T10:46:26.000Z</time>
      </trkpt>
      <trkpt lat="43.32428" lon="-1.58466">
        <ele>95</ele>
        <time>2026-02-04T10:46:40.000Z</time>
      </trkpt>
      <trkpt lat="43.32442" lon="-1.58475">
        <ele>97</ele>
        <time>2026-02-04T10:46:42.000Z</time>
      </trkpt>
      <trkpt lat="43.32452" lon="-1.58486">
        <ele>99</ele>
        <time>2026-02-04T10:46:45.000Z</time>
      </trkpt>
      <trkpt lat="43.32461" lon="-1.58501">
        <ele>101</ele>
        <time>2026-02-04T10:46:47.000Z</time>
      </trkpt>
      <trkpt lat="43.32469" lon="-1.58523">
        <ele>104</ele>
        <time>2026-02-04T10:46:50.000Z</time>
      </trkpt>
      <trkpt lat="43.32478" lon="-1.58588">
        <ele>109</ele>
        <time>2026-02-04T10:46:59.000Z</time>
      </trkpt>
      <trkpt lat="43.32475" lon="-1.5861">
        <ele>110</ele>
        <time>2026-02-04T10:47:02.000Z</time>
      </trkpt>
      <trkpt lat="43.32473" lon="-1.58631">
        <ele>111</ele>
        <time>2026-02-04T10:47:05.000Z</time>
      </trkpt>
      <trkpt lat="43.32419" lon="-1.58739">
        <ele>114</ele>
        <time>2026-02-04T10:47:21.000Z</time>
      </trkpt>
      <trkpt lat="43.32404" lon="-1.58814">
        <ele>118</ele>
        <time>2026-02-04T10:47:32.000Z</time>
      </trkpt>
      <trkpt lat="43.32392" lon="-1.58839">
        <ele>117</ele>
        <time>2026-02-04T10:47:35.000Z</time>
      </trkpt>
      <trkpt lat="43.3234" lon="-1.58957">
        <ele>123</ele>
        <time>2026-02-04T10:47:53.000Z</time>
      </trkpt>
      <trkpt lat="43.3231" lon="-1.59025">
        <ele>122</ele>
        <time>2026-02-04T10:48:04.000Z</time>
      </trkpt>
      <trkpt lat="43.32306" lon="-1.59043">
        <ele>121</ele>
        <time>2026-02-04T10:48:06.000Z</time>
      </trkpt>
      <trkpt lat="43.32306" lon="-1.59058">
        <ele>122</ele>
        <time>2026-02-04T10:48:08.000Z</time>
      </trkpt>
      <trkpt lat="43.32311" lon="-1.5908">
        <ele>124</ele>
        <time>2026-02-04T10:48:11.000Z</time>
      </trkpt>
      <trkpt lat="43.32317" lon="-1.59093">
        <ele>127</ele>
        <time>2026-02-04T10:48:13.000Z</time>
      </trkpt>
      <trkpt lat="43.32342" lon="-1.59125">
        <ele>134</ele>
        <time>2026-02-04T10:48:19.000Z</time>
      </trkpt>
      <trkpt lat="43.32347" lon="-1.59137">
        <ele>135</ele>
        <time>2026-02-04T10:48:21.000Z</time>
      </trkpt>
      <trkpt lat="43.32351" lon="-1.59154">
        <ele>137</ele>
        <time>2026-02-04T10:48:23.000Z</time>
      </trkpt>
      <trkpt lat="43.32352" lon="-1.59166">
        <ele>137</ele>
        <time>2026-02-04T10:48:25.000Z</time>
      </trkpt>
      <trkpt lat="43.32351" lon="-1.59176">
        <ele>138</ele>
        <time>2026-02-04T10:48:26.000Z</time>
      </trkpt>
      <trkpt lat="43.32347" lon="-1.59188">
        <ele>139</ele>
        <time>2026-02-04T10:48:28.000Z</time>
      </trkpt>
      <trkpt lat="43.32296" lon="-1.59289">
        <ele>139</ele>
        <time>2026-02-04T10:48:44.000Z</time>
      </trkpt>
      <trkpt lat="43.32277" lon="-1.59348">
        <ele>141</ele>
        <time>2026-02-04T10:48:52.000Z</time>
      </trkpt>
      <trkpt lat="43.32255" lon="-1.59457">
        <ele>143</ele>
        <time>2026-02-04T10:49:07.000Z</time>
      </trkpt>
      <trkpt lat="43.32253" lon="-1.59482">
        <ele>144</ele>
        <time>2026-02-04T10:49:10.000Z</time>
      </trkpt>
      <trkpt lat="43.32253" lon="-1.59506">
        <ele>145</ele>
        <time>2026-02-04T10:49:13.000Z</time>
      </trkpt>
      <trkpt lat="43.32256" lon="-1.59531">
        <ele>146</ele>
        <time>2026-02-04T10:49:16.000Z</time>
      </trkpt>
      <trkpt lat="43.3227" lon="-1.59618">
        <ele>148</ele>
        <time>2026-02-04T10:49:28.000Z</time>
      </trkpt>
      <trkpt lat="43.32319" lon="-1.59689">
        <ele>157</ele>
        <time>2026-02-04T10:49:40.000Z</time>
      </trkpt>
      <trkpt lat="43.32338" lon="-1.59727">
        <ele>158</ele>
        <time>2026-02-04T10:49:46.000Z</time>
      </trkpt>
      <trkpt lat="43.32381" lon="-1.59863">
        <ele>170</ele>
        <time>2026-02-04T10:50:06.000Z</time>
      </trkpt>
      <trkpt lat="43.32427" lon="-1.59987">
        <ele>171</ele>
        <time>2026-02-04T10:50:24.000Z</time>
      </trkpt>
      <trkpt lat="43.32449" lon="-1.60018">
        <ele>173</ele>
        <time>2026-02-04T10:50:29.000Z</time>
      </trkpt>
      <trkpt lat="43.32498" lon="-1.60056">
        <ele>173</ele>
        <time>2026-02-04T10:50:39.000Z</time>
      </trkpt>
      <trkpt lat="43.32507" lon="-1.60054">
        <ele>173</ele>
        <time>2026-02-04T10:50:41.000Z</time>
      </trkpt>
      <trkpt lat="43.32517" lon="-1.60054">
        <ele>174</ele>
        <time>2026-02-04T10:50:43.000Z</time>
      </trkpt>
      <trkpt lat="43.32529" lon="-1.60061">
        <ele>173</ele>
        <time>2026-02-04T10:50:45.000Z</time>
      </trkpt>
      <trkpt lat="43.32561" lon="-1.60087">
        <ele>170</ele>
        <time>2026-02-04T10:50:52.000Z</time>
      </trkpt>
      <trkpt lat="43.32578" lon="-1.60097">
        <ele>168</ele>
        <time>2026-02-04T10:50:55.000Z</time>
      </trkpt>
      <trkpt lat="43.32595" lon="-1.60104">
        <ele>168</ele>
        <time>2026-02-04T10:50:58.000Z</time>
      </trkpt>
      <trkpt lat="43.32685" lon="-1.60134">
        <ele>169</ele>
        <time>2026-02-04T10:51:15.000Z</time>
      </trkpt>
      <trkpt lat="43.32714" lon="-1.60151">
        <ele>168</ele>
        <time>2026-02-04T10:51:20.000Z</time>
      </trkpt>
      <trkpt lat="43.32751" lon="-1.60178">
        <ele>166</ele>
        <time>2026-02-04T10:51:28.000Z</time>
      </trkpt>
      <trkpt lat="43.32772" lon="-1.60187">
        <ele>164</ele>
        <time>2026-02-04T10:51:31.000Z</time>
      </trkpt>
      <trkpt lat="43.32792" lon="-1.60191">
        <ele>164</ele>
        <time>2026-02-04T10:51:35.000Z</time>
      </trkpt>
      <trkpt lat="43.32899" lon="-1.60204">
        <ele>162</ele>
        <time>2026-02-04T10:51:54.000Z</time>
      </trkpt>
      <trkpt lat="43.32981" lon="-1.60215">
        <ele>158</ele>
        <time>2026-02-04T10:52:09.000Z</time>
      </trkpt>
      <trkpt lat="43.33019" lon="-1.60227">
        <ele>155</ele>
        <time>2026-02-04T10:52:16.000Z</time>
      </trkpt>
      <trkpt lat="43.33073" lon="-1.60252">
        <ele>152</ele>
        <time>2026-02-04T10:52:26.000Z</time>
      </trkpt>
      <trkpt lat="43.33094" lon="-1.60262">
        <ele>152</ele>
        <time>2026-02-04T10:52:30.000Z</time>
      </trkpt>
      <trkpt lat="43.3311" lon="-1.60273">
        <ele>151</ele>
        <time>2026-02-04T10:52:33.000Z</time>
      </trkpt>
      <trkpt lat="43.33128" lon="-1.60292">
        <ele>150</ele>
        <time>2026-02-04T10:52:37.000Z</time>
      </trkpt>
      <trkpt lat="43.33143" lon="-1.60316">
        <ele>150</ele>
        <time>2026-02-04T10:52:41.000Z</time>
      </trkpt>
      <trkpt lat="43.33156" lon="-1.60359">
        <ele>148</ele>
        <time>2026-02-04T10:52:47.000Z</time>
      </trkpt>
      <trkpt lat="43.33174" lon="-1.60406">
        <ele>145</ele>
        <time>2026-02-04T10:52:54.000Z</time>
      </trkpt>
      <trkpt lat="43.33178" lon="-1.60435">
        <ele>142</ele>
        <time>2026-02-04T10:52:58.000Z</time>
      </trkpt>
      <trkpt lat="43.33185" lon="-1.60466">
        <ele>139</ele>
        <time>2026-02-04T10:53:02.000Z</time>
      </trkpt>
      <trkpt lat="43.33199" lon="-1.60488">
        <ele>139</ele>
        <time>2026-02-04T10:53:06.000Z</time>
      </trkpt>
      <trkpt lat="43.33212" lon="-1.60497">
        <ele>141</ele>
        <time>2026-02-04T10:53:08.000Z</time>
      </trkpt>
      <trkpt lat="43.33234" lon="-1.60504">
        <ele>146</ele>
        <time>2026-02-04T10:53:13.000Z</time>
      </trkpt>
      <trkpt lat="43.33244" lon="-1.60513">
        <ele>148</ele>
        <time>2026-02-04T10:53:15.000Z</time>
      </trkpt>
      <trkpt lat="43.33247" lon="-1.60524">
        <ele>147</ele>
        <time>2026-02-04T10:53:16.000Z</time>
      </trkpt>
      <trkpt lat="43.33243" lon="-1.6057">
        <ele>140</ele>
        <time>2026-02-04T10:53:22.000Z</time>
      </trkpt>
      <trkpt lat="43.33249" lon="-1.60601">
        <ele>136</ele>
        <time>2026-02-04T10:53:26.000Z</time>
      </trkpt>
      <trkpt lat="43.33268" lon="-1.60651">
        <ele>132</ele>
        <time>2026-02-04T10:53:34.000Z</time>
      </trkpt>
      <trkpt lat="43.33317" lon="-1.60728">
        <ele>129</ele>
        <time>2026-02-04T10:53:47.000Z</time>
      </trkpt>
      <trkpt lat="43.33331" lon="-1.60735">
        <ele>131</ele>
        <time>2026-02-04T10:53:49.000Z</time>
      </trkpt>
      <trkpt lat="43.33344" lon="-1.60746">
        <ele>131</ele>
        <time>2026-02-04T10:53:52.000Z</time>
      </trkpt>
      <trkpt lat="43.33353" lon="-1.60767">
        <ele>129</ele>
        <time>2026-02-04T10:53:55.000Z</time>
      </trkpt>
      <trkpt lat="43.33353" lon="-1.60788">
        <ele>125</ele>
        <time>2026-02-04T10:53:58.000Z</time>
      </trkpt>
      <trkpt lat="43.33359" lon="-1.60813">
        <ele>122</ele>
        <time>2026-02-04T10:54:01.000Z</time>
      </trkpt>
      <trkpt lat="43.33369" lon="-1.60828">
        <ele>121</ele>
        <time>2026-02-04T10:54:04.000Z</time>
      </trkpt>
      <trkpt lat="43.33373" lon="-1.60836">
        <ele>120</ele>
        <time>2026-02-04T10:54:05.000Z</time>
      </trkpt>
      <trkpt lat="43.3339" lon="-1.60852">
        <ele>119</ele>
        <time>2026-02-04T10:54:09.000Z</time>
      </trkpt>
      <trkpt lat="43.33401" lon="-1.60853">
        <ele>121</ele>
        <time>2026-02-04T10:54:11.000Z</time>
      </trkpt>
      <trkpt lat="43.33424" lon="-1.60845">
        <ele>127</ele>
        <time>2026-02-04T10:54:15.000Z</time>
      </trkpt>
      <trkpt lat="43.33434" lon="-1.60846">
        <ele>130</ele>
        <time>2026-02-04T10:54:17.000Z</time>
      </trkpt>
      <trkpt lat="43.33441" lon="-1.60858">
        <ele>130</ele>
        <time>2026-02-04T10:54:19.000Z</time>
      </trkpt>
      <trkpt lat="43.33442" lon="-1.60876">
        <ele>127</ele>
        <time>2026-02-04T10:54:21.000Z</time>
      </trkpt>
      <trkpt lat="43.33434" lon="-1.60918">
        <ele>117</ele>
        <time>2026-02-04T10:54:27.000Z</time>
      </trkpt>
      <trkpt lat="43.33435" lon="-1.60941">
        <ele>115</ele>
        <time>2026-02-04T10:54:30.000Z</time>
      </trkpt>
      <trkpt lat="43.33441" lon="-1.60956">
        <ele>116</ele>
        <time>2026-02-04T10:54:32.000Z</time>
      </trkpt>
      <trkpt lat="43.33457" lon="-1.60973">
        <ele>121</ele>
        <time>2026-02-04T10:54:36.000Z</time>
      </trkpt>
      <trkpt lat="43.33461" lon="-1.60989">
        <ele>121</ele>
        <time>2026-02-04T10:54:38.000Z</time>
      </trkpt>
      <trkpt lat="43.33458" lon="-1.61001">
        <ele>119</ele>
        <time>2026-02-04T10:54:40.000Z</time>
      </trkpt>
      <trkpt lat="43.33439" lon="-1.61015">
        <ele>112</ele>
        <time>2026-02-04T10:54:43.000Z</time>
      </trkpt>
      <trkpt lat="43.3343" lon="-1.61045">
        <ele>108</ele>
        <time>2026-02-04T10:54:48.000Z</time>
      </trkpt>
      <trkpt lat="43.33429" lon="-1.61078">
        <ele>108</ele>
        <time>2026-02-04T10:54:52.000Z</time>
      </trkpt>
      <trkpt lat="43.33423" lon="-1.61102">
        <ele>103</ele>
        <time>2026-02-04T10:54:55.000Z</time>
      </trkpt>
      <trkpt lat="43.33421" lon="-1.61125">
        <ele>100</ele>
        <time>2026-02-04T10:54:58.000Z</time>
      </trkpt>
      <trkpt lat="43.33423" lon="-1.6117">
        <ele>97</ele>
        <time>2026-02-04T10:55:04.000Z</time>
      </trkpt>
      <trkpt lat="43.33431" lon="-1.612">
        <ele>94</ele>
        <time>2026-02-04T10:55:08.000Z</time>
      </trkpt>
      <trkpt lat="43.3344" lon="-1.61214">
        <ele>94</ele>
        <time>2026-02-04T10:55:11.000Z</time>
      </trkpt>
      <trkpt lat="43.33448" lon="-1.61219">
        <ele>95</ele>
        <time>2026-02-04T10:55:12.000Z</time>
      </trkpt>
      <trkpt lat="43.33457" lon="-1.61218">
        <ele>98</ele>
        <time>2026-02-04T10:55:14.000Z</time>
      </trkpt>
      <trkpt lat="43.33471" lon="-1.61223">
        <ele>101</ele>
        <time>2026-02-04T10:55:16.000Z</time>
      </trkpt>
      <trkpt lat="43.3348" lon="-1.61233">
        <ele>101</ele>
        <time>2026-02-04T10:55:18.000Z</time>
      </trkpt>
      <trkpt lat="43.33501" lon="-1.61281">
        <ele>95</ele>
        <time>2026-02-04T10:55:26.000Z</time>
      </trkpt>
      <trkpt lat="43.33531" lon="-1.61302">
        <ele>97</ele>
        <time>2026-02-04T10:55:32.000Z</time>
      </trkpt>
      <trkpt lat="43.33538" lon="-1.61319">
        <ele>95</ele>
        <time>2026-02-04T10:55:34.000Z</time>
      </trkpt>
      <trkpt lat="43.33539" lon="-1.61369">
        <ele>86</ele>
        <time>2026-02-04T10:55:41.000Z</time>
      </trkpt>
      <trkpt lat="43.33546" lon="-1.61387">
        <ele>84</ele>
        <time>2026-02-04T10:55:43.000Z</time>
      </trkpt>
      <trkpt lat="43.33566" lon="-1.61407">
        <ele>85</ele>
        <time>2026-02-04T10:55:48.000Z</time>
      </trkpt>
      <trkpt lat="43.33576" lon="-1.61419">
        <ele>85</ele>
        <time>2026-02-04T10:55:50.000Z</time>
      </trkpt>
      <trkpt lat="43.3359" lon="-1.6145">
        <ele>81</ele>
        <time>2026-02-04T10:55:55.000Z</time>
      </trkpt>
      <trkpt lat="43.33602" lon="-1.61468">
        <ele>79</ele>
        <time>2026-02-04T10:55:58.000Z</time>
      </trkpt>
      <trkpt lat="43.33615" lon="-1.61479">
        <ele>79</ele>
        <time>2026-02-04T10:56:01.000Z</time>
      </trkpt>
      <trkpt lat="43.33654" lon="-1.61499">
        <ele>80</ele>
        <time>2026-02-04T10:56:08.000Z</time>
      </trkpt>
      <trkpt lat="43.33696" lon="-1.61543">
        <ele>73</ele>
        <time>2026-02-04T10:56:17.000Z</time>
      </trkpt>
      <trkpt lat="43.33788" lon="-1.61574">
        <ele>63</ele>
        <time>2026-02-04T10:56:34.000Z</time>
      </trkpt>
      <trkpt lat="43.33807" lon="-1.61573">
        <ele>62</ele>
        <time>2026-02-04T10:56:38.000Z</time>
      </trkpt>
      <trkpt lat="43.33835" lon="-1.61567">
        <ele>61</ele>
        <time>2026-02-04T10:56:43.000Z</time>
      </trkpt>
      <trkpt lat="43.33868" lon="-1.61571">
        <ele>57</ele>
        <time>2026-02-04T10:56:49.000Z</time>
      </trkpt>
      <trkpt lat="43.33892" lon="-1.61563">
        <ele>58</ele>
        <time>2026-02-04T10:56:53.000Z</time>
      </trkpt>
      <trkpt lat="43.3392" lon="-1.61564">
        <ele>56</ele>
        <time>2026-02-04T10:56:58.000Z</time>
      </trkpt>
      <trkpt lat="43.33942" lon="-1.61559">
        <ele>58</ele>
        <time>2026-02-04T10:57:02.000Z</time>
      </trkpt>
      <trkpt lat="43.33962" lon="-1.61557">
        <ele>59</ele>
        <time>2026-02-04T10:57:06.000Z</time>
      </trkpt>
      <trkpt lat="43.34008" lon="-1.61565">
        <ele>57</ele>
        <time>2026-02-04T10:57:14.000Z</time>
      </trkpt>
      <trkpt lat="43.34025" lon="-1.61572">
        <ele>55</ele>
        <time>2026-02-04T10:57:17.000Z</time>
      </trkpt>
      <trkpt lat="43.3406" lon="-1.61609">
        <ele>48</ele>
        <time>2026-02-04T10:57:25.000Z</time>
      </trkpt>
      <trkpt lat="43.34077" lon="-1.61621">
        <ele>46</ele>
        <time>2026-02-04T10:57:28.000Z</time>
      </trkpt>
      <trkpt lat="43.34092" lon="-1.61623">
        <ele>46</ele>
        <time>2026-02-04T10:57:31.000Z</time>
      </trkpt>
      <trkpt lat="43.34147" lon="-1.61609">
        <ele>45</ele>
        <time>2026-02-04T10:57:41.000Z</time>
      </trkpt>
      <trkpt lat="43.34345" lon="-1.61629">
        <ele>32</ele>
        <time>2026-02-04T10:58:16.000Z</time>
      </trkpt>
      <trkpt lat="43.34356" lon="-1.61637">
        <ele>30</ele>
        <time>2026-02-04T10:58:18.000Z</time>
      </trkpt>
      <trkpt lat="43.34364" lon="-1.61649">
        <ele>29</ele>
        <time>2026-02-04T10:58:20.000Z</time>
      </trkpt>
      <trkpt lat="43.34377" lon="-1.61689">
        <ele>26</ele>
        <time>2026-02-04T10:58:26.000Z</time>
      </trkpt>
      <trkpt lat="43.34378" lon="-1.61699">
        <ele>25</ele>
        <time>2026-02-04T10:58:27.000Z</time>
      </trkpt>
      <trkpt lat="43.34379" lon="-1.61719">
        <ele>24</ele>
        <time>2026-02-04T10:58:30.000Z</time>
      </trkpt>
      <trkpt lat="43.3438" lon="-1.61879">
        <ele>24</ele>
        <time>2026-02-04T10:58:51.000Z</time>
      </trkpt>
      <trkpt lat="43.34381" lon="-1.61901">
        <ele>25</ele>
        <time>2026-02-04T10:58:54.000Z</time>
      </trkpt>
      <trkpt lat="43.34384" lon="-1.61931">
        <ele>26</ele>
        <time>2026-02-04T10:58:57.000Z</time>
      </trkpt>
      <trkpt lat="43.34389" lon="-1.61951">
        <ele>26</ele>
        <time>2026-02-04T10:59:00.000Z</time>
      </trkpt>
      <trkpt lat="43.34394" lon="-1.61963">
        <ele>26</ele>
        <time>2026-02-04T10:59:02.000Z</time>
      </trkpt>
      <trkpt lat="43.34406" lon="-1.61984">
        <ele>25</ele>
        <time>2026-02-04T10:59:05.000Z</time>
      </trkpt>
      <trkpt lat="43.34456" lon="-1.62059">
        <ele>24</ele>
        <time>2026-02-04T10:59:19.000Z</time>
      </trkpt>
      <trkpt lat="43.34471" lon="-1.62092">
        <ele>24</ele>
        <time>2026-02-04T10:59:24.000Z</time>
      </trkpt>
      <trkpt lat="43.34474" lon="-1.62153">
        <ele>23</ele>
        <time>2026-02-04T10:59:32.000Z</time>
      </trkpt>
      <trkpt lat="43.34465" lon="-1.62188">
        <ele>23</ele>
        <time>2026-02-04T10:59:36.000Z</time>
      </trkpt>
      <trkpt lat="43.34445" lon="-1.62293">
        <ele>21</ele>
        <time>2026-02-04T10:59:50.000Z</time>
      </trkpt>
      <trkpt lat="43.34444" lon="-1.62311">
        <ele>21</ele>
        <time>2026-02-04T10:59:53.000Z</time>
      </trkpt>
      <trkpt lat="43.34472" lon="-1.62313">
        <ele>20</ele>
        <time>2026-02-04T10:59:58.000Z</time>
      </trkpt>
      <trkpt lat="43.34526" lon="-1.6231">
        <ele>18</ele>
        <time>2026-02-04T11:00:07.000Z</time>
      </trkpt>
      <trkpt lat="43.34573" lon="-1.62311">
        <ele>14</ele>
        <time>2026-02-04T11:00:16.000Z</time>
      </trkpt>
      <trkpt lat="43.34644" lon="-1.62348">
        <ele>13</ele>
        <time>2026-02-04T11:00:29.000Z</time>
      </trkpt>
      <trkpt lat="43.34672" lon="-1.62366">
        <ele>13</ele>
        <time>2026-02-04T11:00:35.000Z</time>
      </trkpt>
      <trkpt lat="43.34769" lon="-1.62469">
        <ele>6</ele>
        <time>2026-02-04T11:00:57.000Z</time>
      </trkpt>
      <trkpt lat="43.34809" lon="-1.62521">
        <ele>6</ele>
        <time>2026-02-04T11:01:06.000Z</time>
      </trkpt>
      <trkpt lat="43.34839" lon="-1.62552">
        <ele>6</ele>
        <time>2026-02-04T11:01:13.000Z</time>
      </trkpt>
      <trkpt lat="43.34846" lon="-1.62566">
        <ele>6</ele>
        <time>2026-02-04T11:01:15.000Z</time>
      </trkpt>
      <trkpt lat="43.34919" lon="-1.62667">
        <ele>3</ele>
        <time>2026-02-04T11:01:34.000Z</time>
      </trkpt>
      <trkpt lat="43.34922" lon="-1.62669">
        <ele>3</ele>
        <time>2026-02-04T11:01:34.000Z</time>
      </trkpt>
      <trkpt lat="43.34908" lon="-1.62721">
        <ele>4</ele>
        <time>2026-02-04T11:01:41.000Z</time>
      </trkpt>
      <trkpt lat="43.34905" lon="-1.62741">
        <ele>5</ele>
        <time>2026-02-04T11:01:44.000Z</time>
      </trkpt>
      <trkpt lat="43.3492" lon="-1.62766">
        <ele>5</ele>
        <time>2026-02-04T11:01:48.000Z</time>
      </trkpt>
      <trkpt lat="43.34947" lon="-1.62802">
        <ele>5</ele>
        <time>2026-02-04T11:01:55.000Z</time>
      </trkpt>
      <trkpt lat="43.34972" lon="-1.62824">
        <ele>5</ele>
        <time>2026-02-04T11:02:00.000Z</time>
      </trkpt>
      <trkpt lat="43.34983" lon="-1.62825">
        <ele>5</ele>
        <time>2026-02-04T11:02:02.000Z</time>
      </trkpt>
      <trkpt lat="43.34995" lon="-1.62833">
        <ele>4</ele>
        <time>2026-02-04T11:02:05.000Z</time>
      </trkpt>
      <trkpt lat="43.35136" lon="-1.62979">
        <ele>3</ele>
        <time>2026-02-04T11:02:36.000Z</time>
      </trkpt>
      <trkpt lat="43.35202" lon="-1.63012">
        <ele>2</ele>
        <time>2026-02-04T11:02:48.000Z</time>
      </trkpt>
      <trkpt lat="43.35232" lon="-1.6303">
        <ele>3</ele>
        <time>2026-02-04T11:02:54.000Z</time>
      </trkpt>
      <trkpt lat="43.35258" lon="-1.63051">
        <ele>4</ele>
        <time>2026-02-04T11:03:00.000Z</time>
      </trkpt>
      <trkpt lat="43.3527" lon="-1.63074">
        <ele>4</ele>
        <time>2026-02-04T11:03:03.000Z</time>
      </trkpt>
      <trkpt lat="43.35276" lon="-1.63103">
        <ele>5</ele>
        <time>2026-02-04T11:03:07.000Z</time>
      </trkpt>
      <trkpt lat="43.35275" lon="-1.63123">
        <ele>5</ele>
        <time>2026-02-04T11:03:10.000Z</time>
      </trkpt>
      <trkpt lat="43.35248" lon="-1.63238">
        <ele>5</ele>
        <time>2026-02-04T11:03:25.000Z</time>
      </trkpt>
      <trkpt lat="43.35234" lon="-1.63272">
        <ele>10</ele>
        <time>2026-02-04T11:03:30.000Z</time>
      </trkpt>
      <trkpt lat="43.35233" lon="-1.63285">
        <ele>13</ele>
        <time>2026-02-04T11:03:32.000Z</time>
      </trkpt>
      <trkpt lat="43.35234" lon="-1.63301">
        <ele>16</ele>
        <time>2026-02-04T11:03:34.000Z</time>
      </trkpt>
      <trkpt lat="43.35249" lon="-1.63321">
        <ele>17</ele>
        <time>2026-02-04T11:03:38.000Z</time>
      </trkpt>
      <trkpt lat="43.35337" lon="-1.63397">
        <ele>18</ele>
        <time>2026-02-04T11:03:56.000Z</time>
      </trkpt>
      <trkpt lat="43.35374" lon="-1.63437">
        <ele>18</ele>
        <time>2026-02-04T11:04:05.000Z</time>
      </trkpt>
      <trkpt lat="43.35491" lon="-1.63519">
        <ele>7</ele>
        <time>2026-02-04T11:04:28.000Z</time>
      </trkpt>
      <trkpt lat="43.35539" lon="-1.6355">
        <ele>5</ele>
        <time>2026-02-04T11:04:38.000Z</time>
      </trkpt>
      <trkpt lat="43.35587" lon="-1.63586">
        <ele>4</ele>
        <time>2026-02-04T11:04:47.000Z</time>
      </trkpt>
      <trkpt lat="43.35602" lon="-1.63595">
        <ele>4</ele>
        <time>2026-02-04T11:04:50.000Z</time>
      </trkpt>
      <trkpt lat="43.35614" lon="-1.636">
        <ele>4</ele>
        <time>2026-02-04T11:04:53.000Z</time>
      </trkpt>
      <trkpt lat="43.35618" lon="-1.636">
        <ele>4</ele>
        <time>2026-02-04T11:04:53.000Z</time>
      </trkpt>
      <trkpt lat="43.35625" lon="-1.63606">
        <ele>3</ele>
        <time>2026-02-04T11:04:55.000Z</time>
      </trkpt>
      <trkpt lat="43.35601" lon="-1.63878">
        <ele>9</ele>
        <time>2026-02-04T11:05:30.000Z</time>
      </trkpt>
      <trkpt lat="43.35598" lon="-1.63912">
        <ele>10</ele>
        <time>2026-02-04T11:05:35.000Z</time>
      </trkpt>
      <trkpt lat="43.35582" lon="-1.64022">
        <ele>15</ele>
        <time>2026-02-04T11:05:49.000Z</time>
      </trkpt>
      <trkpt lat="43.35573" lon="-1.64045">
        <ele>16</ele>
        <time>2026-02-04T11:05:52.000Z</time>
      </trkpt>
      <trkpt lat="43.35446" lon="-1.64129">
        <ele>13</ele>
        <time>2026-02-04T11:06:18.000Z</time>
      </trkpt>
      <trkpt lat="43.35418" lon="-1.64167">
        <ele>12</ele>
        <time>2026-02-04T11:06:25.000Z</time>
      </trkpt>
      <trkpt lat="43.35335" lon="-1.64248">
        <ele>15</ele>
        <time>2026-02-04T11:06:43.000Z</time>
      </trkpt>
      <trkpt lat="43.35251" lon="-1.64281">
        <ele>12</ele>
        <time>2026-02-04T11:06:58.000Z</time>
      </trkpt>
      <trkpt lat="43.35126" lon="-1.64319">
        <ele>9</ele>
        <time>2026-02-04T11:07:21.000Z</time>
      </trkpt>
      <trkpt lat="43.35116" lon="-1.64323">
        <ele>8</ele>
        <time>2026-02-04T11:07:23.000Z</time>
      </trkpt>
      <trkpt lat="43.35103" lon="-1.6433">
        <ele>8</ele>
        <time>2026-02-04T11:07:25.000Z</time>
      </trkpt>
      <trkpt lat="43.35076" lon="-1.64352">
        <ele>9</ele>
        <time>2026-02-04T11:07:31.000Z</time>
      </trkpt>
      <trkpt lat="43.35053" lon="-1.64361">
        <ele>10</ele>
        <time>2026-02-04T11:07:35.000Z</time>
      </trkpt>
      <trkpt lat="43.34996" lon="-1.64375">
        <ele>13</ele>
        <time>2026-02-04T11:07:45.000Z</time>
      </trkpt>
      <trkpt lat="43.34985" lon="-1.6438">
        <ele>13</ele>
        <time>2026-02-04T11:07:48.000Z</time>
      </trkpt>
      <trkpt lat="43.34959" lon="-1.64387">
        <ele>13</ele>
        <time>2026-02-04T11:07:52.000Z</time>
      </trkpt>
      <trkpt lat="43.34931" lon="-1.64372">
        <ele>14</ele>
        <time>2026-02-04T11:07:58.000Z</time>
      </trkpt>
      <trkpt lat="43.34879" lon="-1.64316">
        <ele>18</ele>
        <time>2026-02-04T11:08:09.000Z</time>
      </trkpt>
      <trkpt lat="43.34796" lon="-1.64317">
        <ele>18</ele>
        <time>2026-02-04T11:08:24.000Z</time>
      </trkpt>
      <trkpt lat="43.34736" lon="-1.64261">
        <ele>23</ele>
        <time>2026-02-04T11:08:37.000Z</time>
      </trkpt>
      <trkpt lat="43.34691" lon="-1.6423">
        <ele>23</ele>
        <time>2026-02-04T11:08:46.000Z</time>
      </trkpt>
      <trkpt lat="43.34683" lon="-1.64226">
        <ele>23</ele>
        <time>2026-02-04T11:08:47.000Z</time>
      </trkpt>
      <trkpt lat="43.34667" lon="-1.64226">
        <ele>22</ele>
        <time>2026-02-04T11:08:50.000Z</time>
      </trkpt>
      <trkpt lat="43.34651" lon="-1.64236">
        <ele>24</ele>
        <time>2026-02-04T11:08:53.000Z</time>
      </trkpt>
      <trkpt lat="43.3464" lon="-1.64264">
        <ele>24</ele>
        <time>2026-02-04T11:08:58.000Z</time>
      </trkpt>
      <trkpt lat="43.34622" lon="-1.64317">
        <ele>22</ele>
        <time>2026-02-04T11:09:05.000Z</time>
      </trkpt>
      <trkpt lat="43.34651" lon="-1.64405">
        <ele>19</ele>
        <time>2026-02-04T11:09:18.000Z</time>
      </trkpt>
      <trkpt lat="43.34661" lon="-1.64524">
        <ele>25</ele>
        <time>2026-02-04T11:09:33.000Z</time>
      </trkpt>
      <trkpt lat="43.34659" lon="-1.64597">
        <ele>33</ele>
        <time>2026-02-04T11:09:43.000Z</time>
      </trkpt>
      <trkpt lat="43.34659" lon="-1.6465">
        <ele>37</ele>
        <time>2026-02-04T11:09:49.000Z</time>
      </trkpt>
      <trkpt lat="43.34667" lon="-1.64686">
        <ele>35</ele>
        <time>2026-02-04T11:09:54.000Z</time>
      </trkpt>
      <trkpt lat="43.34629" lon="-1.64695">
        <ele>39</ele>
        <time>2026-02-04T11:10:01.000Z</time>
      </trkpt>
      <trkpt lat="43.34601" lon="-1.64707">
        <ele>42</ele>
        <time>2026-02-04T11:10:06.000Z</time>
      </trkpt>
      <trkpt lat="43.34519" lon="-1.64753">
        <ele>50</ele>
        <time>2026-02-04T11:10:22.000Z</time>
      </trkpt>
      <trkpt lat="43.34486" lon="-1.64781">
        <ele>51</ele>
        <time>2026-02-04T11:10:29.000Z</time>
      </trkpt>
      <trkpt lat="43.34464" lon="-1.64796">
        <ele>51</ele>
        <time>2026-02-04T11:10:33.000Z</time>
      </trkpt>
      <trkpt lat="43.34445" lon="-1.64798">
        <ele>52</ele>
        <time>2026-02-04T11:10:37.000Z</time>
      </trkpt>
      <trkpt lat="43.34421" lon="-1.64785">
        <ele>54</ele>
        <time>2026-02-04T11:10:41.000Z</time>
      </trkpt>
      <trkpt lat="43.34401" lon="-1.64776">
        <ele>54</ele>
        <time>2026-02-04T11:10:45.000Z</time>
      </trkpt>
      <trkpt lat="43.34387" lon="-1.6478">
        <ele>54</ele>
        <time>2026-02-04T11:10:48.000Z</time>
      </trkpt>
      <trkpt lat="43.34256" lon="-1.64878">
        <ele>57</ele>
        <time>2026-02-04T11:11:14.000Z</time>
      </trkpt>
      <trkpt lat="43.3422" lon="-1.64931">
        <ele>58</ele>
        <time>2026-02-04T11:11:24.000Z</time>
      </trkpt>
      <trkpt lat="43.34178" lon="-1.65003">
        <ele>60</ele>
        <time>2026-02-04T11:11:36.000Z</time>
      </trkpt>
      <trkpt lat="43.34161" lon="-1.65043">
        <ele>64</ele>
        <time>2026-02-04T11:11:42.000Z</time>
      </trkpt>
      <trkpt lat="43.34138" lon="-1.65103">
        <ele>67</ele>
        <time>2026-02-04T11:11:50.000Z</time>
      </trkpt>
      <trkpt lat="43.34115" lon="-1.65123">
        <ele>68</ele>
        <time>2026-02-04T11:11:55.000Z</time>
      </trkpt>
      <trkpt lat="43.34098" lon="-1.65132">
        <ele>69</ele>
        <time>2026-02-04T11:11:58.000Z</time>
      </trkpt>
      <trkpt lat="43.34089" lon="-1.65145">
        <ele>69</ele>
        <time>2026-02-04T11:12:01.000Z</time>
      </trkpt>
      <trkpt lat="43.34073" lon="-1.65179">
        <ele>69</ele>
        <time>2026-02-04T11:12:06.000Z</time>
      </trkpt>
      <trkpt lat="43.34048" lon="-1.65236">
        <ele>68</ele>
        <time>2026-02-04T11:12:15.000Z</time>
      </trkpt>
      <trkpt lat="43.34038" lon="-1.65267">
        <ele>68</ele>
        <time>2026-02-04T11:12:19.000Z</time>
      </trkpt>
      <trkpt lat="43.33994" lon="-1.65603">
        <ele>63</ele>
        <time>2026-02-04T11:13:03.000Z</time>
      </trkpt>
      <trkpt lat="43.33986" lon="-1.65637">
        <ele>64</ele>
        <time>2026-02-04T11:13:08.000Z</time>
      </trkpt>
      <trkpt lat="43.33981" lon="-1.65646">
        <ele>64</ele>
        <time>2026-02-04T11:13:09.000Z</time>
      </trkpt>
      <trkpt lat="43.33967" lon="-1.65659">
        <ele>64</ele>
        <time>2026-02-04T11:13:12.000Z</time>
      </trkpt>
      <trkpt lat="43.33918" lon="-1.65719">
        <ele>65</ele>
        <time>2026-02-04T11:13:24.000Z</time>
      </trkpt>
      <trkpt lat="43.33875" lon="-1.6576">
        <ele>65</ele>
        <time>2026-02-04T11:13:33.000Z</time>
      </trkpt>
      <trkpt lat="43.33864" lon="-1.65764">
        <ele>64</ele>
        <time>2026-02-04T11:13:35.000Z</time>
      </trkpt>
      <trkpt lat="43.33822" lon="-1.65753">
        <ele>62</ele>
        <time>2026-02-04T11:13:43.000Z</time>
      </trkpt>
      <trkpt lat="43.33716" lon="-1.65754">
        <ele>66</ele>
        <time>2026-02-04T11:14:02.000Z</time>
      </trkpt>
      <trkpt lat="43.33695" lon="-1.6592">
        <ele>68</ele>
        <time>2026-02-04T11:14:24.000Z</time>
      </trkpt>
      <trkpt lat="43.33677" lon="-1.66023">
        <ele>69</ele>
        <time>2026-02-04T11:14:37.000Z</time>
      </trkpt>
      <trkpt lat="43.3365" lon="-1.66164">
        <ele>65</ele>
        <time>2026-02-04T11:14:56.000Z</time>
      </trkpt>
      <trkpt lat="43.33645" lon="-1.66182">
        <ele>65</ele>
        <time>2026-02-04T11:14:59.000Z</time>
      </trkpt>
      <trkpt lat="43.33622" lon="-1.6624">
        <ele>67</ele>
        <time>2026-02-04T11:15:07.000Z</time>
      </trkpt>
      <trkpt lat="43.33615" lon="-1.66263">
        <ele>67</ele>
        <time>2026-02-04T11:15:10.000Z</time>
      </trkpt>
      <trkpt lat="43.33607" lon="-1.66344">
        <ele>65</ele>
        <time>2026-02-04T11:15:21.000Z</time>
      </trkpt>
      <trkpt lat="43.33608" lon="-1.66377">
        <ele>64</ele>
        <time>2026-02-04T11:15:25.000Z</time>
      </trkpt>
      <trkpt lat="43.33615" lon="-1.66412">
        <ele>62</ele>
        <time>2026-02-04T11:15:30.000Z</time>
      </trkpt>
      <trkpt lat="43.33625" lon="-1.66444">
        <ele>59</ele>
        <time>2026-02-04T11:15:34.000Z</time>
      </trkpt>
      <trkpt lat="43.33661" lon="-1.6654">
        <ele>53</ele>
        <time>2026-02-04T11:15:48.000Z</time>
      </trkpt>
      <trkpt lat="43.33666" lon="-1.66563">
        <ele>52</ele>
        <time>2026-02-04T11:15:52.000Z</time>
      </trkpt>
      <trkpt lat="43.33671" lon="-1.66597">
        <ele>50</ele>
        <time>2026-02-04T11:15:56.000Z</time>
      </trkpt>
      <trkpt lat="43.33672" lon="-1.66622">
        <ele>50</ele>
        <time>2026-02-04T11:15:59.000Z</time>
      </trkpt>
      <trkpt lat="43.33666" lon="-1.66662">
        <ele>48</ele>
        <time>2026-02-04T11:16:05.000Z</time>
      </trkpt>
      <trkpt lat="43.33655" lon="-1.66718">
        <ele>47</ele>
        <time>2026-02-04T11:16:12.000Z</time>
      </trkpt>
      <trkpt lat="43.3364" lon="-1.66759">
        <ele>45</ele>
        <time>2026-02-04T11:16:18.000Z</time>
      </trkpt>
      <trkpt lat="43.33633" lon="-1.66772">
        <ele>45</ele>
        <time>2026-02-04T11:16:20.000Z</time>
      </trkpt>
      <trkpt lat="43.33629" lon="-1.66778">
        <ele>45</ele>
        <time>2026-02-04T11:16:21.000Z</time>
      </trkpt>
      <trkpt lat="43.33622" lon="-1.66788">
        <ele>45</ele>
        <time>2026-02-04T11:16:23.000Z</time>
      </trkpt>
      <trkpt lat="43.33613" lon="-1.66794">
        <ele>45</ele>
        <time>2026-02-04T11:16:25.000Z</time>
      </trkpt>
      <trkpt lat="43.3361" lon="-1.66799">
        <ele>45</ele>
        <time>2026-02-04T11:16:26.000Z</time>
      </trkpt>
      <trkpt lat="43.33606" lon="-1.66802">
        <ele>45</ele>
        <time>2026-02-04T11:16:26.000Z</time>
      </trkpt>
      <trkpt lat="43.33599" lon="-1.66799">
        <ele>45</ele>
        <time>2026-02-04T11:16:28.000Z</time>
      </trkpt>
      <trkpt lat="43.33596" lon="-1.66791">
        <ele>45</ele>
        <time>2026-02-04T11:16:29.000Z</time>
      </trkpt>
      <trkpt lat="43.33597" lon="-1.66783">
        <ele>45</ele>
        <time>2026-02-04T11:16:30.000Z</time>
      </trkpt>
      <trkpt lat="43.336" lon="-1.66781">
        <ele>45</ele>
        <time>2026-02-04T11:16:30.000Z</time>
      </trkpt>
      <trkpt lat="43.33605" lon="-1.66779">
        <ele>45</ele>
        <time>2026-02-04T11:16:31.000Z</time>
      </trkpt>
      <trkpt lat="43.33611" lon="-1.66782">
        <ele>45</ele>
        <time>2026-02-04T11:16:33.000Z</time>
      </trkpt>
      <trkpt lat="43.33612" lon="-1.66786">
        <ele>45</ele>
        <time>2026-02-04T11:16:33.000Z</time>
      </trkpt>
      <trkpt lat="43.33613" lon="-1.66794">
        <ele>45</ele>
        <time>2026-02-04T11:16:34.000Z</time>
      </trkpt>
      <trkpt lat="43.3361" lon="-1.66799">
        <ele>45</ele>
        <time>2026-02-04T11:16:35.000Z</time>
      </trkpt>
      <trkpt lat="43.33606" lon="-1.66802">
        <ele>45</ele>
        <time>2026-02-04T11:16:36.000Z</time>
      </trkpt>
      <trkpt lat="43.3361" lon="-1.66812">
        <ele>45</ele>
        <time>2026-02-04T11:16:37.000Z</time>
      </trkpt>
      <trkpt lat="43.3362" lon="-1.66822">
        <ele>44</ele>
        <time>2026-02-04T11:16:39.000Z</time>
      </trkpt>
      <trkpt lat="43.33683" lon="-1.66831">
        <ele>43</ele>
        <time>2026-02-04T11:16:51.000Z</time>
      </trkpt>
      <trkpt lat="43.337" lon="-1.66832">
        <ele>42</ele>
        <time>2026-02-04T11:16:54.000Z</time>
      </trkpt>
      <trkpt lat="43.33747" lon="-1.66824">
        <ele>42</ele>
        <time>2026-02-04T11:17:02.000Z</time>
      </trkpt>
      <trkpt lat="43.33782" lon="-1.66811">
        <ele>41</ele>
        <time>2026-02-04T11:17:09.000Z</time>
      </trkpt>
      <trkpt lat="43.33831" lon="-1.66786">
        <ele>39</ele>
        <time>2026-02-04T11:17:18.000Z</time>
      </trkpt>
      <trkpt lat="43.33878" lon="-1.66755">
        <ele>37</ele>
        <time>2026-02-04T11:17:27.000Z</time>
      </trkpt>
      <trkpt lat="43.3392" lon="-1.66705">
        <ele>37</ele>
        <time>2026-02-04T11:17:37.000Z</time>
      </trkpt>
      <trkpt lat="43.33975" lon="-1.66648">
        <ele>34</ele>
        <time>2026-02-04T11:17:49.000Z</time>
      </trkpt>
      <trkpt lat="43.33996" lon="-1.66637">
        <ele>33</ele>
        <time>2026-02-04T11:17:53.000Z</time>
      </trkpt>
      <trkpt lat="43.34014" lon="-1.66632">
        <ele>33</ele>
        <time>2026-02-04T11:17:57.000Z</time>
      </trkpt>
      <trkpt lat="43.34031" lon="-1.6663">
        <ele>34</ele>
        <time>2026-02-04T11:18:00.000Z</time>
      </trkpt>
      <trkpt lat="43.34045" lon="-1.66632">
        <ele>35</ele>
        <time>2026-02-04T11:18:02.000Z</time>
      </trkpt>
      <trkpt lat="43.34055" lon="-1.66636">
        <ele>35</ele>
        <time>2026-02-04T11:18:04.000Z</time>
      </trkpt>
      <trkpt lat="43.34059" lon="-1.66639">
        <ele>36</ele>
        <time>2026-02-04T11:18:05.000Z</time>
      </trkpt>
      <trkpt lat="43.3409" lon="-1.66655">
        <ele>38</ele>
        <time>2026-02-04T11:18:11.000Z</time>
      </trkpt>
      <trkpt lat="43.34167" lon="-1.66684">
        <ele>44</ele>
        <time>2026-02-04T11:18:25.000Z</time>
      </trkpt>
      <trkpt lat="43.34291" lon="-1.66741">
        <ele>53</ele>
        <time>2026-02-04T11:18:48.000Z</time>
      </trkpt>
      <trkpt lat="43.3432" lon="-1.66746">
        <ele>54</ele>
        <time>2026-02-04T11:18:53.000Z</time>
      </trkpt>
      <trkpt lat="43.34348" lon="-1.66741">
        <ele>57</ele>
        <time>2026-02-04T11:18:58.000Z</time>
      </trkpt>
      <trkpt lat="43.34368" lon="-1.66726">
        <ele>61</ele>
        <time>2026-02-04T11:19:02.000Z</time>
      </trkpt>
      <trkpt lat="43.34419" lon="-1.66665">
        <ele>71</ele>
        <time>2026-02-04T11:19:14.000Z</time>
      </trkpt>
      <trkpt lat="43.34436" lon="-1.66659">
        <ele>72</ele>
        <time>2026-02-04T11:19:18.000Z</time>
      </trkpt>
      <trkpt lat="43.34498" lon="-1.66656">
        <ele>72</ele>
        <time>2026-02-04T11:19:29.000Z</time>
      </trkpt>
      <trkpt lat="43.34535" lon="-1.66657">
        <ele>74</ele>
        <time>2026-02-04T11:19:35.000Z</time>
      </trkpt>
      <trkpt lat="43.34553" lon="-1.66663">
        <ele>75</ele>
        <time>2026-02-04T11:19:39.000Z</time>
      </trkpt>
      <trkpt lat="43.34569" lon="-1.66676">
        <ele>76</ele>
        <time>2026-02-04T11:19:42.000Z</time>
      </trkpt>
      <trkpt lat="43.34661" lon="-1.66775">
        <ele>74</ele>
        <time>2026-02-04T11:20:03.000Z</time>
      </trkpt>
      <trkpt lat="43.34676" lon="-1.66789">
        <ele>73</ele>
        <time>2026-02-04T11:20:06.000Z</time>
      </trkpt>
      <trkpt lat="43.34741" lon="-1.66805">
        <ele>72</ele>
        <time>2026-02-04T11:20:18.000Z</time>
      </trkpt>
      <trkpt lat="43.34795" lon="-1.6681">
        <ele>73</ele>
        <time>2026-02-04T11:20:27.000Z</time>
      </trkpt>
      <trkpt lat="43.3482" lon="-1.66817">
        <ele>74</ele>
        <time>2026-02-04T11:20:32.000Z</time>
      </trkpt>
      <trkpt lat="43.34917" lon="-1.66871">
        <ele>83</ele>
        <time>2026-02-04T11:20:50.000Z</time>
      </trkpt>
      <trkpt lat="43.34942" lon="-1.66882">
        <ele>87</ele>
        <time>2026-02-04T11:20:55.000Z</time>
      </trkpt>
      <trkpt lat="43.34958" lon="-1.6688">
        <ele>89</ele>
        <time>2026-02-04T11:20:58.000Z</time>
      </trkpt>
      <trkpt lat="43.3497" lon="-1.6687">
        <ele>90</ele>
        <time>2026-02-04T11:21:00.000Z</time>
      </trkpt>
      <trkpt lat="43.34977" lon="-1.66826">
        <ele>86</ele>
        <time>2026-02-04T11:21:06.000Z</time>
      </trkpt>
      <trkpt lat="43.34985" lon="-1.66811">
        <ele>85</ele>
        <time>2026-02-04T11:21:09.000Z</time>
      </trkpt>
      <trkpt lat="43.34998" lon="-1.66803">
        <ele>86</ele>
        <time>2026-02-04T11:21:11.000Z</time>
      </trkpt>
      <trkpt lat="43.35013" lon="-1.668">
        <ele>86</ele>
        <time>2026-02-04T11:21:14.000Z</time>
      </trkpt>
      <trkpt lat="43.35023" lon="-1.66806">
        <ele>87</ele>
        <time>2026-02-04T11:21:16.000Z</time>
      </trkpt>
      <trkpt lat="43.35073" lon="-1.66853">
        <ele>92</ele>
        <time>2026-02-04T11:21:27.000Z</time>
      </trkpt>
      <trkpt lat="43.35089" lon="-1.66859">
        <ele>92</ele>
        <time>2026-02-04T11:21:30.000Z</time>
      </trkpt>
      <trkpt lat="43.35108" lon="-1.66858">
        <ele>93</ele>
        <time>2026-02-04T11:21:33.000Z</time>
      </trkpt>
      <trkpt lat="43.35124" lon="-1.66846">
        <ele>93</ele>
        <time>2026-02-04T11:21:36.000Z</time>
      </trkpt>
      <trkpt lat="43.3518" lon="-1.66752">
        <ele>92</ele>
        <time>2026-02-04T11:21:52.000Z</time>
      </trkpt>
      <trkpt lat="43.35199" lon="-1.66734">
        <ele>91</ele>
        <time>2026-02-04T11:21:56.000Z</time>
      </trkpt>
      <trkpt lat="43.35212" lon="-1.66731">
        <ele>91</ele>
        <time>2026-02-04T11:21:58.000Z</time>
      </trkpt>
      <trkpt lat="43.35246" lon="-1.66735">
        <ele>93</ele>
        <time>2026-02-04T11:22:04.000Z</time>
      </trkpt>
      <trkpt lat="43.35265" lon="-1.66731">
        <ele>92</ele>
        <time>2026-02-04T11:22:08.000Z</time>
      </trkpt>
      <trkpt lat="43.35289" lon="-1.66718">
        <ele>91</ele>
        <time>2026-02-04T11:22:12.000Z</time>
      </trkpt>
      <trkpt lat="43.35301" lon="-1.66706">
        <ele>91</ele>
        <time>2026-02-04T11:22:15.000Z</time>
      </trkpt>
      <trkpt lat="43.35386" lon="-1.66666">
        <ele>97</ele>
        <time>2026-02-04T11:22:31.000Z</time>
      </trkpt>
      <trkpt lat="43.35428" lon="-1.6664">
        <ele>96</ele>
        <time>2026-02-04T11:22:39.000Z</time>
      </trkpt>
      <trkpt lat="43.35456" lon="-1.66613">
        <ele>94</ele>
        <time>2026-02-04T11:22:45.000Z</time>
      </trkpt>
      <trkpt lat="43.35478" lon="-1.66603">
        <ele>94</ele>
        <time>2026-02-04T11:22:49.000Z</time>
      </trkpt>
      <trkpt lat="43.3556" lon="-1.66589">
        <ele>90</ele>
        <time>2026-02-04T11:23:04.000Z</time>
      </trkpt>
      <trkpt lat="43.35628" lon="-1.66587">
        <ele>86</ele>
        <time>2026-02-04T11:23:16.000Z</time>
      </trkpt>
      <trkpt lat="43.3565" lon="-1.66574">
        <ele>84</ele>
        <time>2026-02-04T11:23:20.000Z</time>
      </trkpt>
      <trkpt lat="43.35682" lon="-1.66548">
        <ele>80</ele>
        <time>2026-02-04T11:23:27.000Z</time>
      </trkpt>
      <trkpt lat="43.35721" lon="-1.66497">
        <ele>77</ele>
        <time>2026-02-04T11:23:37.000Z</time>
      </trkpt>
      <trkpt lat="43.35739" lon="-1.66481">
        <ele>76</ele>
        <time>2026-02-04T11:23:40.000Z</time>
      </trkpt>
      <trkpt lat="43.35756" lon="-1.66471">
        <ele>76</ele>
        <time>2026-02-04T11:23:44.000Z</time>
      </trkpt>
      <trkpt lat="43.35819" lon="-1.66447">
        <ele>75</ele>
        <time>2026-02-04T11:23:55.000Z</time>
      </trkpt>
      <trkpt lat="43.35843" lon="-1.66442">
        <ele>76</ele>
        <time>2026-02-04T11:24:00.000Z</time>
      </trkpt>
      <trkpt lat="43.35868" lon="-1.66434">
        <ele>77</ele>
        <time>2026-02-04T11:24:04.000Z</time>
      </trkpt>
      <trkpt lat="43.35879" lon="-1.66427">
        <ele>78</ele>
        <time>2026-02-04T11:24:06.000Z</time>
      </trkpt>
      <trkpt lat="43.35887" lon="-1.66408">
        <ele>77</ele>
        <time>2026-02-04T11:24:09.000Z</time>
      </trkpt>
      <trkpt lat="43.35891" lon="-1.6638">
        <ele>76</ele>
        <time>2026-02-04T11:24:13.000Z</time>
      </trkpt>
      <trkpt lat="43.35896" lon="-1.66356">
        <ele>75</ele>
        <time>2026-02-04T11:24:16.000Z</time>
      </trkpt>
      <trkpt lat="43.35904" lon="-1.66343">
        <ele>75</ele>
        <time>2026-02-04T11:24:18.000Z</time>
      </trkpt>
      <trkpt lat="43.35921" lon="-1.66334">
        <ele>76</ele>
        <time>2026-02-04T11:24:22.000Z</time>
      </trkpt>
      <trkpt lat="43.35958" lon="-1.66324">
        <ele>76</ele>
        <time>2026-02-04T11:24:28.000Z</time>
      </trkpt>
      <trkpt lat="43.36052" lon="-1.66192">
        <ele>82</ele>
        <time>2026-02-04T11:24:52.000Z</time>
      </trkpt>
      <trkpt lat="43.36088" lon="-1.66137">
        <ele>83</ele>
        <time>2026-02-04T11:25:02.000Z</time>
      </trkpt>
      <trkpt lat="43.36116" lon="-1.66099">
        <ele>84</ele>
        <time>2026-02-04T11:25:09.000Z</time>
      </trkpt>
      <trkpt lat="43.36176" lon="-1.66069">
        <ele>86</ele>
        <time>2026-02-04T11:25:20.000Z</time>
      </trkpt>
      <trkpt lat="43.36203" lon="-1.66064">
        <ele>84</ele>
        <time>2026-02-04T11:25:25.000Z</time>
      </trkpt>
      <trkpt lat="43.36233" lon="-1.66076">
        <ele>81</ele>
        <time>2026-02-04T11:25:31.000Z</time>
      </trkpt>
      <trkpt lat="43.36256" lon="-1.66092">
        <ele>78</ele>
        <time>2026-02-04T11:25:35.000Z</time>
      </trkpt>
      <trkpt lat="43.3627" lon="-1.66093">
        <ele>77</ele>
        <time>2026-02-04T11:25:38.000Z</time>
      </trkpt>
      <trkpt lat="43.36327" lon="-1.66082">
        <ele>76</ele>
        <time>2026-02-04T11:25:48.000Z</time>
      </trkpt>
      <trkpt lat="43.3637" lon="-1.66054">
        <ele>75</ele>
        <time>2026-02-04T11:25:56.000Z</time>
      </trkpt>
      <trkpt lat="43.36417" lon="-1.65987">
        <ele>74</ele>
        <time>2026-02-04T11:26:08.000Z</time>
      </trkpt>
      <trkpt lat="43.36511" lon="-1.6582">
        <ele>68</ele>
        <time>2026-02-04T11:26:36.000Z</time>
      </trkpt>
      <trkpt lat="43.36524" lon="-1.65795">
        <ele>68</ele>
        <time>2026-02-04T11:26:40.000Z</time>
      </trkpt>
      <trkpt lat="43.36536" lon="-1.65765">
        <ele>68</ele>
        <time>2026-02-04T11:26:44.000Z</time>
      </trkpt>
      <trkpt lat="43.36558" lon="-1.65684">
        <ele>72</ele>
        <time>2026-02-04T11:26:55.000Z</time>
      </trkpt>
      <trkpt lat="43.36565" lon="-1.65674">
        <ele>74</ele>
        <time>2026-02-04T11:26:57.000Z</time>
      </trkpt>
      <trkpt lat="43.36584" lon="-1.65655">
        <ele>75</ele>
        <time>2026-02-04T11:27:01.000Z</time>
      </trkpt>
      <trkpt lat="43.36597" lon="-1.65644">
        <ele>73</ele>
        <time>2026-02-04T11:27:04.000Z</time>
      </trkpt>
      <trkpt lat="43.36614" lon="-1.65635">
        <ele>72</ele>
        <time>2026-02-04T11:27:07.000Z</time>
      </trkpt>
      <trkpt lat="43.36636" lon="-1.65628">
        <ele>71</ele>
        <time>2026-02-04T11:27:11.000Z</time>
      </trkpt>
      <trkpt lat="43.36653" lon="-1.65628">
        <ele>70</ele>
        <time>2026-02-04T11:27:14.000Z</time>
      </trkpt>
      <trkpt lat="43.36676" lon="-1.65632">
        <ele>69</ele>
        <time>2026-02-04T11:27:18.000Z</time>
      </trkpt>
      <trkpt lat="43.36703" lon="-1.65641">
        <ele>67</ele>
        <time>2026-02-04T11:27:23.000Z</time>
      </trkpt>
      <trkpt lat="43.36733" lon="-1.65656">
        <ele>66</ele>
        <time>2026-02-04T11:27:29.000Z</time>
      </trkpt>
      <trkpt lat="43.36766" lon="-1.6568">
        <ele>65</ele>
        <time>2026-02-04T11:27:36.000Z</time>
      </trkpt>
      <trkpt lat="43.36853" lon="-1.65724">
        <ele>63</ele>
        <time>2026-02-04T11:27:52.000Z</time>
      </trkpt>
      <trkpt lat="43.36916" lon="-1.65752">
        <ele>60</ele>
        <time>2026-02-04T11:28:04.000Z</time>
      </trkpt>
      <trkpt lat="43.36982" lon="-1.65775">
        <ele>57</ele>
        <time>2026-02-04T11:28:16.000Z</time>
      </trkpt>
      <trkpt lat="43.37079" lon="-1.6583">
        <ele>60</ele>
        <time>2026-02-04T11:28:35.000Z</time>
      </trkpt>
      <trkpt lat="43.37089" lon="-1.65839">
        <ele>59</ele>
        <time>2026-02-04T11:28:37.000Z</time>
      </trkpt>
      <trkpt lat="43.37097" lon="-1.65849">
        <ele>57</ele>
        <time>2026-02-04T11:28:39.000Z</time>
      </trkpt>
      <trkpt lat="43.37109" lon="-1.65882">
        <ele>52</ele>
        <time>2026-02-04T11:28:44.000Z</time>
      </trkpt>
      <trkpt lat="43.37114" lon="-1.65888">
        <ele>52</ele>
        <time>2026-02-04T11:28:45.000Z</time>
      </trkpt>
      <trkpt lat="43.37122" lon="-1.65894">
        <ele>52</ele>
        <time>2026-02-04T11:28:46.000Z</time>
      </trkpt>
      <trkpt lat="43.37138" lon="-1.65898">
        <ele>52</ele>
        <time>2026-02-04T11:28:49.000Z</time>
      </trkpt>
      <trkpt lat="43.37323" lon="-1.65911">
        <ele>39</ele>
        <time>2026-02-04T11:29:22.000Z</time>
      </trkpt>
      <trkpt lat="43.37333" lon="-1.65911">
        <ele>38</ele>
        <time>2026-02-04T11:29:24.000Z</time>
      </trkpt>
      <trkpt lat="43.37349" lon="-1.65906">
        <ele>38</ele>
        <time>2026-02-04T11:29:27.000Z</time>
      </trkpt>
      <trkpt lat="43.37401" lon="-1.65886">
        <ele>37</ele>
        <time>2026-02-04T11:29:37.000Z</time>
      </trkpt>
      <trkpt lat="43.37425" lon="-1.65876">
        <ele>37</ele>
        <time>2026-02-04T11:29:41.000Z</time>
      </trkpt>
      <trkpt lat="43.37455" lon="-1.65872">
        <ele>39</ele>
        <time>2026-02-04T11:29:46.000Z</time>
      </trkpt>
      <trkpt lat="43.37463" lon="-1.65873">
        <ele>40</ele>
        <time>2026-02-04T11:29:48.000Z</time>
      </trkpt>
      <trkpt lat="43.37461" lon="-1.65846">
        <ele>40</ele>
        <time>2026-02-04T11:29:51.000Z</time>
      </trkpt>
      <trkpt lat="43.37462" lon="-1.6584">
        <ele>40</ele>
        <time>2026-02-04T11:29:52.000Z</time>
      </trkpt>
      <trkpt lat="43.37541" lon="-1.65803">
        <ele>46</ele>
        <time>2026-02-04T11:30:07.000Z</time>
      </trkpt>
      <trkpt lat="43.3758" lon="-1.65811">
        <ele>48</ele>
        <time>2026-02-04T11:30:14.000Z</time>
      </trkpt>
      <trkpt lat="43.37634" lon="-1.65834">
        <ele>40</ele>
        <time>2026-02-04T11:30:24.000Z</time>
      </trkpt>
      <trkpt lat="43.37684" lon="-1.65844">
        <ele>33</ele>
        <time>2026-02-04T11:30:33.000Z</time>
      </trkpt>
      <trkpt lat="43.37723" lon="-1.65853">
        <ele>26</ele>
        <time>2026-02-04T11:30:40.000Z</time>
      </trkpt>
      <trkpt lat="43.3774" lon="-1.65864">
        <ele>24</ele>
        <time>2026-02-04T11:30:43.000Z</time>
      </trkpt>
      <trkpt lat="43.37752" lon="-1.65881">
        <ele>22</ele>
        <time>2026-02-04T11:30:46.000Z</time>
      </trkpt>
      <trkpt lat="43.37756" lon="-1.65879">
        <ele>22</ele>
        <time>2026-02-04T11:30:47.000Z</time>
      </trkpt>
      <trkpt lat="43.37766" lon="-1.65881">
        <ele>21</ele>
        <time>2026-02-04T11:30:49.000Z</time>
      </trkpt>
      <trkpt lat="43.37827" lon="-1.65931">
        <ele>16</ele>
        <time>2026-02-04T11:31:02.000Z</time>
      </trkpt>
      <trkpt lat="43.37834" lon="-1.65938">
        <ele>15</ele>
        <time>2026-02-04T11:31:03.000Z</time>
      </trkpt>
      <trkpt lat="43.37845" lon="-1.65954">
        <ele>14</ele>
        <time>2026-02-04T11:31:06.000Z</time>
      </trkpt>
      <trkpt lat="43.37862" lon="-1.65988">
        <ele>12</ele>
        <time>2026-02-04T11:31:11.000Z</time>
      </trkpt>
      <trkpt lat="43.37878" lon="-1.66012">
        <ele>10</ele>
        <time>2026-02-04T11:31:16.000Z</time>
      </trkpt>
      <trkpt lat="43.3789" lon="-1.66023">
        <ele>9</ele>
        <time>2026-02-04T11:31:18.000Z</time>
      </trkpt>
      <trkpt lat="43.37923" lon="-1.66042">
        <ele>8</ele>
        <time>2026-02-04T11:31:25.000Z</time>
      </trkpt>
      <trkpt lat="43.37967" lon="-1.66075">
        <ele>6</ele>
        <time>2026-02-04T11:31:33.000Z</time>
      </trkpt>
      <trkpt lat="43.37989" lon="-1.66095">
        <ele>5</ele>
        <time>2026-02-04T11:31:38.000Z</time>
      </trkpt>
      <trkpt lat="43.38005" lon="-1.66115">
        <ele>5</ele>
        <time>2026-02-04T11:31:42.000Z</time>
      </trkpt>
      <trkpt lat="43.38033" lon="-1.6614">
        <ele>6</ele>
        <time>2026-02-04T11:31:48.000Z</time>
      </trkpt>
      <trkpt lat="43.38015" lon="-1.6616">
        <ele>5</ele>
        <time>2026-02-04T11:31:52.000Z</time>
      </trkpt>
      <trkpt lat="43.38001" lon="-1.66189">
        <ele>5</ele>
        <time>2026-02-04T11:31:57.000Z</time>
      </trkpt>
      <trkpt lat="43.38012" lon="-1.66221">
        <ele>5</ele>
        <time>2026-02-04T11:32:01.000Z</time>
      </trkpt>
      <trkpt lat="43.38026" lon="-1.66242">
        <ele>4</ele>
        <time>2026-02-04T11:32:05.000Z</time>
      </trkpt>
      <trkpt lat="43.38037" lon="-1.66252">
        <ele>4</ele>
        <time>2026-02-04T11:32:07.000Z</time>
      </trkpt>
      <trkpt lat="43.38072" lon="-1.6627">
        <ele>5</ele>
        <time>2026-02-04T11:32:14.000Z</time>
      </trkpt>
      <trkpt lat="43.38085" lon="-1.66281">
        <ele>5</ele>
        <time>2026-02-04T11:32:17.000Z</time>
      </trkpt>
      <trkpt lat="43.38093" lon="-1.66296">
        <ele>5</ele>
        <time>2026-02-04T11:32:19.000Z</time>
      </trkpt>
      <trkpt lat="43.38108" lon="-1.66404">
        <ele>6</ele>
        <time>2026-02-04T11:32:33.000Z</time>
      </trkpt>
      <trkpt lat="43.38118" lon="-1.66429">
        <ele>5</ele>
        <time>2026-02-04T11:32:37.000Z</time>
      </trkpt>
      <trkpt lat="43.38129" lon="-1.66448">
        <ele>5</ele>
        <time>2026-02-04T11:32:40.000Z</time>
      </trkpt>
      <trkpt lat="43.38141" lon="-1.66462">
        <ele>4</ele>
        <time>2026-02-04T11:32:43.000Z</time>
      </trkpt>
      <trkpt lat="43.38223" lon="-1.66552">
        <ele>3</ele>
        <time>2026-02-04T11:33:01.000Z</time>
      </trkpt>
      <trkpt lat="43.38274" lon="-1.66679">
        <ele>5</ele>
        <time>2026-02-04T11:33:20.000Z</time>
      </trkpt>
      <trkpt lat="43.38286" lon="-1.66703">
        <ele>6</ele>
        <time>2026-02-04T11:33:24.000Z</time>
      </trkpt>
      <trkpt lat="43.38305" lon="-1.66747">
        <ele>7</ele>
        <time>2026-02-04T11:33:31.000Z</time>
      </trkpt>
      <trkpt lat="43.38314" lon="-1.6676">
        <ele>7</ele>
        <time>2026-02-04T11:33:33.000Z</time>
      </trkpt>
      <trkpt lat="43.38344" lon="-1.66759">
        <ele>7</ele>
        <time>2026-02-04T11:33:38.000Z</time>
      </trkpt>
      <trkpt lat="43.38335" lon="-1.66787">
        <ele>9</ele>
        <time>2026-02-04T11:33:42.000Z</time>
      </trkpt>
      <trkpt lat="43.38338" lon="-1.66794">
        <ele>9</ele>
        <time>2026-02-04T11:33:43.000Z</time>
      </trkpt>
      <trkpt lat="43.38364" lon="-1.66802">
        <ele>9</ele>
        <time>2026-02-04T11:33:48.000Z</time>
      </trkpt>
      <trkpt lat="43.38373" lon="-1.66797">
        <ele>9</ele>
        <time>2026-02-04T11:33:50.000Z</time>
      </trkpt>
      <trkpt lat="43.3838" lon="-1.66801">
        <ele>9</ele>
        <time>2026-02-04T11:33:51.000Z</time>
      </trkpt>
      <trkpt lat="43.38389" lon="-1.66812">
        <ele>9</ele>
        <time>2026-02-04T11:33:53.000Z</time>
      </trkpt>
      <trkpt lat="43.38392" lon="-1.66829">
        <ele>10</ele>
        <time>2026-02-04T11:33:55.000Z</time>
      </trkpt>
      <trkpt lat="43.38399" lon="-1.6684">
        <ele>11</ele>
        <time>2026-02-04T11:33:57.000Z</time>
      </trkpt>
      <trkpt lat="43.38403" lon="-1.66866">
        <ele>14</ele>
        <time>2026-02-04T11:34:01.000Z</time>
      </trkpt>
      <trkpt lat="43.38399" lon="-1.6687">
        <ele>15</ele>
        <time>2026-02-04T11:34:02.000Z</time>
      </trkpt>
      <trkpt lat="43.38386" lon="-1.66911">
        <ele>20</ele>
        <time>2026-02-04T11:34:07.000Z</time>
      </trkpt>
      <trkpt lat="43.38401" lon="-1.66908">
        <ele>19</ele>
        <time>2026-02-04T11:34:10.000Z</time>
      </trkpt>
      <trkpt lat="43.38407" lon="-1.66902">
        <ele>18</ele>
        <time>2026-02-04T11:34:11.000Z</time>
      </trkpt>
      <trkpt lat="43.38417" lon="-1.66885">
        <ele>16</ele>
        <time>2026-02-04T11:34:14.000Z</time>
      </trkpt>
      <trkpt lat="43.38436" lon="-1.66863">
        <ele>15</ele>
        <time>2026-02-04T11:34:19.000Z</time>
      </trkpt>
      <trkpt lat="43.38448" lon="-1.66844">
        <ele>13</ele>
        <time>2026-02-04T11:34:22.000Z</time>
      </trkpt>
      <trkpt lat="43.38493" lon="-1.66815">
        <ele>12</ele>
        <time>2026-02-04T11:34:31.000Z</time>
      </trkpt>
      <trkpt lat="43.38501" lon="-1.66809">
        <ele>12</ele>
        <time>2026-02-04T11:34:32.000Z</time>
      </trkpt>
      <trkpt lat="43.38505" lon="-1.66786">
        <ele>10</ele>
        <time>2026-02-04T11:34:36.000Z</time>
      </trkpt>
      <trkpt lat="43.38512" lon="-1.66788">
        <ele>10</ele>
        <time>2026-02-04T11:34:37.000Z</time>
      </trkpt>
      <trkpt lat="43.38521" lon="-1.66782">
        <ele>9</ele>
        <time>2026-02-04T11:34:39.000Z</time>
      </trkpt>
      <trkpt lat="43.38537" lon="-1.66739">
        <ele>5</ele>
        <time>2026-02-04T11:34:45.000Z</time>
      </trkpt>
      <trkpt lat="43.38491" lon="-1.66705">
        <ele>5</ele>
        <time>2026-02-04T11:34:54.000Z</time>
      </trkpt>
      <trkpt lat="43.38482" lon="-1.66695">
        <ele>5</ele>
        <time>2026-02-04T11:34:56.000Z</time>
      </trkpt>
      <trkpt lat="43.3847" lon="-1.66674">
        <ele>5</ele>
        <time>2026-02-04T11:35:00.000Z</time>
      </trkpt>
      <trkpt lat="43.3846" lon="-1.66647">
        <ele>4</ele>
        <time>2026-02-04T11:35:04.000Z</time>
      </trkpt>
      <trkpt lat="43.38455" lon="-1.66649">
        <ele>4</ele>
        <time>2026-02-04T11:35:04.000Z</time>
      </trkpt>
      <trkpt lat="43.38449" lon="-1.66646">
        <ele>4</ele>
        <time>2026-02-04T11:35:06.000Z</time>
      </trkpt>
      <trkpt lat="43.38446" lon="-1.66639">
        <ele>4</ele>
        <time>2026-02-04T11:35:07.000Z</time>
      </trkpt>
      <trkpt lat="43.38446" lon="-1.66631">
        <ele>4</ele>
        <time>2026-02-04T11:35:08.000Z</time>
      </trkpt>
      <trkpt lat="43.38411" lon="-1.66589">
        <ele>4</ele>
        <time>2026-02-04T11:35:16.000Z</time>
      </trkpt>
      <trkpt lat="43.38408" lon="-1.66568">
        <ele>4</ele>
        <time>2026-02-04T11:35:19.000Z</time>
      </trkpt>
      <trkpt lat="43.38416" lon="-1.66546">
        <ele>4</ele>
        <time>2026-02-04T11:35:22.000Z</time>
      </trkpt>
      <trkpt lat="43.38482" lon="-1.6642">
        <ele>5</ele>
        <time>2026-02-04T11:35:42.000Z</time>
      </trkpt>
      <trkpt lat="43.38517" lon="-1.66346">
        <ele>2</ele>
        <time>2026-02-04T11:35:53.000Z</time>
      </trkpt>
      <trkpt lat="43.38548" lon="-1.66274">
        <ele>3</ele>
        <time>2026-02-04T11:36:04.000Z</time>
      </trkpt>
      <trkpt lat="43.38558" lon="-1.6625">
        <ele>3</ele>
        <time>2026-02-04T11:36:08.000Z</time>
      </trkpt>
      <trkpt lat="43.38566" lon="-1.66229">
        <ele>3</ele>
        <time>2026-02-04T11:36:11.000Z</time>
      </trkpt>
      <trkpt lat="43.38574" lon="-1.66212">
        <ele>4</ele>
        <time>2026-02-04T11:36:13.000Z</time>
      </trkpt>
      <trkpt lat="43.38589" lon="-1.66194">
        <ele>4</ele>
        <time>2026-02-04T11:36:17.000Z</time>
      </trkpt>
      <trkpt lat="43.3859" lon="-1.66189">
        <ele>4</ele>
        <time>2026-02-04T11:36:18.000Z</time>
      </trkpt>
      <trkpt lat="43.38593" lon="-1.66178">
        <ele>4</ele>
        <time>2026-02-04T11:36:19.000Z</time>
      </trkpt>
      <trkpt lat="43.38598" lon="-1.66173">
        <ele>5</ele>
        <time>2026-02-04T11:36:20.000Z</time>
      </trkpt>
      <trkpt lat="43.38603" lon="-1.6617">
        <ele>5</ele>
        <time>2026-02-04T11:36:21.000Z</time>
      </trkpt>
      <trkpt lat="43.38609" lon="-1.6617">
        <ele>5</ele>
        <time>2026-02-04T11:36:22.000Z</time>
      </trkpt>
      <trkpt lat="43.38615" lon="-1.66172">
        <ele>6</ele>
        <time>2026-02-04T11:36:23.000Z</time>
      </trkpt>
      <trkpt lat="43.38623" lon="-1.66181">
        <ele>6</ele>
        <time>2026-02-04T11:36:25.000Z</time>
      </trkpt>
      <trkpt lat="43.38625" lon="-1.66195">
        <ele>5</ele>
        <time>2026-02-04T11:36:27.000Z</time>
      </trkpt>
      <trkpt lat="43.3863" lon="-1.66198">
        <ele>6</ele>
        <time>2026-02-04T11:36:28.000Z</time>
      </trkpt>
      <trkpt lat="43.38654" lon="-1.66271">
        <ele>3</ele>
        <time>2026-02-04T11:36:38.000Z</time>
      </trkpt>
      <trkpt lat="43.38665" lon="-1.66299">
        <ele>2</ele>
        <time>2026-02-04T11:36:43.000Z</time>
      </trkpt>
      <trkpt lat="43.38674" lon="-1.66306">
        <ele>2</ele>
        <time>2026-02-04T11:36:44.000Z</time>
      </trkpt>
      <trkpt lat="43.3868" lon="-1.66306">
        <ele>2</ele>
        <time>2026-02-04T11:36:45.000Z</time>
      </trkpt>
      <trkpt lat="43.38685" lon="-1.66309">
        <ele>2</ele>
        <time>2026-02-04T11:36:46.000Z</time>
      </trkpt>
      <trkpt lat="43.38688" lon="-1.66317">
        <ele>2</ele>
        <time>2026-02-04T11:36:48.000Z</time>
      </trkpt>
      <trkpt lat="43.38687" lon="-1.66329">
        <ele>1</ele>
        <time>2026-02-04T11:36:49.000Z</time>
      </trkpt>
      <trkpt lat="43.38682" lon="-1.66334">
        <ele>1</ele>
        <time>2026-02-04T11:36:50.000Z</time>
      </trkpt>
      <trkpt lat="43.38678" lon="-1.66335">
        <ele>1</ele>
        <time>2026-02-04T11:36:51.000Z</time>
      </trkpt>
      <trkpt lat="43.3867" lon="-1.66331">
        <ele>4</ele>
        <time>2026-02-04T11:36:53.000Z</time>
      </trkpt>
      <trkpt lat="43.38668" lon="-1.66327">
        <ele>4</ele>
        <time>2026-02-04T11:36:53.000Z</time>
      </trkpt>
      <trkpt lat="43.38651" lon="-1.66328">
        <ele>4</ele>
        <time>2026-02-04T11:36:56.000Z</time>
      </trkpt>
      <trkpt lat="43.38636" lon="-1.66325">
        <ele>3.9</ele>
        <time>2026-02-04T11:36:59.000Z</time>
      </trkpt>
      <trkpt lat="43.38617" lon="-1.66317">
        <ele>3.4</ele>
        <time>2026-02-04T11:37:02.000Z</time>
      </trkpt>
      <trkpt lat="43.386" lon="-1.66303">
        <ele>1</ele>
        <time>2026-02-04T11:37:06.000Z</time>
      </trkpt>
      <trkpt lat="43.3857" lon="-1.66267">
        <ele>2</ele>
        <time>2026-02-04T11:37:13.000Z</time>
      </trkpt>
      <trkpt lat="43.38503" lon="-1.66208">
        <ele>4</ele>
        <time>2026-02-04T11:37:27.000Z</time>
      </trkpt>
      <trkpt lat="43.38496" lon="-1.66199">
        <ele>5</ele>
        <time>2026-02-04T11:37:29.000Z</time>
      </trkpt>
      <trkpt lat="43.38487" lon="-1.66173">
        <ele>5</ele>
        <time>2026-02-04T11:37:33.000Z</time>
      </trkpt>
      <trkpt lat="43.38481" lon="-1.66172">
        <ele>5</ele>
        <time>2026-02-04T11:37:34.000Z</time>
      </trkpt>
      <trkpt lat="43.38478" lon="-1.66167">
        <ele>6</ele>
        <time>2026-02-04T11:37:35.000Z</time>
      </trkpt>
      <trkpt lat="43.38477" lon="-1.66161">
        <ele>5</ele>
        <time>2026-02-04T11:37:35.000Z</time>
      </trkpt>
      <trkpt lat="43.38479" lon="-1.66155">
        <ele>5</ele>
        <time>2026-02-04T11:37:36.000Z</time>
      </trkpt>
      <trkpt lat="43.38462" lon="-1.66121">
        <ele>5</ele>
        <time>2026-02-04T11:37:41.000Z</time>
      </trkpt>
      <trkpt lat="43.38445" lon="-1.66095">
        <ele>5</ele>
        <time>2026-02-04T11:37:46.000Z</time>
      </trkpt>
      <trkpt lat="43.38347" lon="-1.65961">
        <ele>6</ele>
        <time>2026-02-04T11:38:11.000Z</time>
      </trkpt>
      <trkpt lat="43.3834" lon="-1.65943">
        <ele>6</ele>
        <time>2026-02-04T11:38:13.000Z</time>
      </trkpt>
      <trkpt lat="43.38336" lon="-1.65944">
        <ele>6</ele>
        <time>2026-02-04T11:38:14.000Z</time>
      </trkpt>
      <trkpt lat="43.3833" lon="-1.65941">
        <ele>6</ele>
        <time>2026-02-04T11:38:15.000Z</time>
      </trkpt>
      <trkpt lat="43.38328" lon="-1.65932">
        <ele>6</ele>
        <time>2026-02-04T11:38:16.000Z</time>
      </trkpt>
      <trkpt lat="43.3833" lon="-1.65928">
        <ele>6</ele>
        <time>2026-02-04T11:38:17.000Z</time>
      </trkpt>
      <trkpt lat="43.38324" lon="-1.65923">
        <ele>6</ele>
        <time>2026-02-04T11:38:18.000Z</time>
      </trkpt>
      <trkpt lat="43.38309" lon="-1.65902">
        <ele>5</ele>
        <time>2026-02-04T11:38:22.000Z</time>
      </trkpt>
      <trkpt lat="43.38298" lon="-1.65877">
        <ele>4</ele>
        <time>2026-02-04T11:38:26.000Z</time>
      </trkpt>
      <trkpt lat="43.38275" lon="-1.65815">
        <ele>3</ele>
        <time>2026-02-04T11:38:35.000Z</time>
      </trkpt>
      <trkpt lat="43.38282" lon="-1.65818">
        <ele>4</ele>
        <time>2026-02-04T11:38:36.000Z</time>
      </trkpt>
      <trkpt lat="43.38288" lon="-1.65823">
        <ele>4</ele>
        <time>2026-02-04T11:38:37.000Z</time>
      </trkpt>
      <trkpt lat="43.38312" lon="-1.65878">
        <ele>5</ele>
        <time>2026-02-04T11:38:46.000Z</time>
      </trkpt>
      <trkpt lat="43.38313" lon="-1.65883">
        <ele>5</ele>
        <time>2026-02-04T11:38:46.000Z</time>
      </trkpt>
      <trkpt lat="43.38311" lon="-1.65889">
        <ele>5</ele>
        <time>2026-02-04T11:38:47.000Z</time>
      </trkpt>
    </trkseg>
  </trk>
</gpx>